[[{"header":{"parameterUnit":"m.s-1","parameterCategory":1,"la1":31.0,"la2":29.5877,"lo1":-88.7671,"lo2":-86.6584,"dy":0.0162,"dx":0.0185,"nx":115,"ny":88,"refTime":"2023-10-19T18:00:00:Z","depth":0,"parameterNumber":2,"parameterNumberName":"U-component_of_WINDS"},"data":[0.0,0.0,0.0,0.0,0.0,0.0,0.0,0.0,0.0,0.0,0.0,0.0,0.0,0.0,0.0,0.0,0.0,0.0,0.0,0.0,0.0,0.0,0.0,0.0,0.0,0.0,0.0,0.0,0.0,0.0,0.0,0.0,0.0,0.0,0.0,0.0,0.0,0.0,0.0,0.0,0.0,0.0,0.0,0.0,0.0,0.0,0.0,0.0,0.0,0.0,0.0,0.0,0.0,0.0,0.0,0.0,0.0,0.0,0.0,0.0,0.0,0.0,0.0,0.0,0.0,0.0,0.0,0.0,0.0,0.0,0.0,0.0,0.0,0.0,0.0,0.0,0.0,0.0,0.0,0.0,0.0,0.0,0.0,0.0,0.0,0.0,0.0,0.0,0.0,0.0,0.0,0.0,0.0,0.0,0.0,0.0,0.0,0.0,0.0,0.0,0.0,0.0,0.0,0.0,0.0,0.0,0.0,0.0,0.0,0.0,0.0,0.0,0.0,0.0,0.0,0.0,0.0,0.0,0.0,0.0,0.0,0.0,0.0,0.0,0.0,0.0,0.0,0.0,0.0,0.0,0.0,0.0,0.0,0.0,0.0,0.0,0.0,0.0,0.0,0.0,0.0,0.0,0.0,0.0,0.0,0.0,0.0,0.0,0.0,0.0,0.0,0.0,0.0,0.0,0.0,0.0,0.0,0.0,0.0,0.0,0.0,0.0,0.0,0.0,0.0,0.0,0.0,0.0,0.0,0.0,0.0,0.0,0.0,0.0,0.0,0.0,0.0,0.0,0.0,0.0,0.0,0.0,0.0,0.0,0.0,0.0,0.0,0.0,0.0,0.0,0.0,0.0,0.0,0.0,0.0,0.0,0.0,0.0,0.0,0.0,0.0,0.0,0.0,0.0,0.0,0.0,0.0,0.0,0.0,0.0,0.0,0.0,0.0,0.0,0.0,0.0,0.0,0.0,0.0,0.0,0.0,0.0,0.0,0.0,0.0,0.0,0.0,0.0,0.0,0.0,0.0,0.0,0.0,0.0,0.0,0.0,0.0,0.0,0.0,0.0,0.0,0.0,0.0,0.0,0.0,0.0,0.0,0.0,0.0,0.0,0.0,0.0,0.0,0.0,0.0,0.0,0.0,0.0,0.0,0.0,0.0,0.0,0.0,0.0,0.0,0.0,0.0,0.0,0.0,0.0,0.0,0.0,0.0,0.0,0.0,0.0,0.0,0.0,0.0,0.0,0.0,0.0,0.0,0.0,0.0,0.0,0.0,0.0,0.0,0.0,0.0,0.0,0.0,0.0,0.0,0.0,0.0,0.0,0.0,0.0,0.0,0.0,0.0,0.0,0.0,0.0,0.0,0.0,0.0,0.0,0.0,0.0,0.0,0.0,0.0,0.0,0.0,0.0,0.0,0.0,0.0,0.0,0.0,0.0,0.0,0.0,0.0,0.0,0.0,0.0,0.0,0.0,0.0,0.0,0.0,0.0,0.0,0.0,0.0,0.0,0.0,0.0,0.0,0.0,0.0,0.0,0.0,0.0,0.0,0.0,0.0,0.0,0.0,0.0,0.0,0.0,0.0,0.0,0.0,0.0,0.0,0.0,0.0,0.0,0.0,0.0,0.0,0.0,0.0,0.0,0.0,0.0,0.0,0.0,0.0,0.0,0.0,0.0,0.0,0.0,0.0,0.0,0.0,0.0,0.0,0.0,0.0,0.0,0.0,0.0,0.0,0.0,0.0,0.0,0.0,0.0,0.0,0.0,0.0,0.0,0.0,0.0,0.0,0.0,0.0,0.0,0.0,0.0,0.0,0.0,0.0,0.0,0.0,0.0,0.0,0.0,0.0,0.0,0.0,0.0,0.0,0.0,0.0,0.0,0.0,0.0,0.0,0.0,0.0,0.0,0.0,0.0,0.0,0.0,0.0,0.0,0.0,0.0,0.0,0.0,0.0,0.0,0.0,0.0,0.0,0.0,0.0,0.0,0.0,0.0,0.0,0.0,0.0,0.0,0.0,0.0,0.0,0.0,0.0,0.0,0.0,0.0,0.0,0.0,0.0,0.0,0.0,0.0,0.0,0.0,0.0,0.0,0.0,0.0,0.0,0.0,0.0,0.0,0.0,0.0,0.0,0.0,0.0,0.0,0.0,0.0,0.0,0.0,0.0,0.0,0.0,0.0,0.0,0.0,0.0,0.0,0.0,0.0,0.0,0.0,0.0,0.0,0.0,0.0,0.0,0.0,0.0,0.0,0.0,0.0,0.0,0.0,0.0,0.0,0.0,0.0,0.0,0.0,0.0,0.0,0.0,0.0,0.0,0.0,0.0,0.0,0.0,0.0,0.0,0.0,0.0,0.0,0.0,0.0,0.0,0.0,0.0,0.0,0.0,0.0,0.0,0.0,0.0,0.0,0.0,0.0,0.0,0.0,0.0,0.0,0.0,0.0,0.0,0.0,0.0,0.0,0.0,0.0,0.0,0.0,0.0,0.0,0.0,0.0,0.0,0.0,0.0,0.0,0.0,0.0,0.0,0.0,0.0,0.0,0.0,0.0,0.0,0.0,0.0,0.0,0.0,0.0,0.0,0.0,0.0,0.0,0.0,0.0,0.0,0.0,0.0,0.0,0.0,0.0,0.0,0.0,0.0,0.0,0.0,0.0,0.0,0.0,0.0,0.0,0.0,0.0,0.0,0.0,0.0,0.0,0.0,0.0,0.0,0.0,0.0,0.0,0.0,0.0,0.0,0.0,0.0,0.0,0.0,0.0,0.0,0.0,0.0,0.0,0.0,0.0,0.0,0.0,0.0,0.0,0.0,0.0,0.0,0.0,0.0,0.0,0.0,0.0,0.0,0.0,0.0,0.0,0.0,0.0,0.0,0.0,0.0,0.0,0.0,0.0,0.0,0.0,0.0,0.0,0.0,0.0,0.0,0.0,0.0,0.0,0.0,0.0,0.0,0.0,0.0,0.0,0.0,0.0,0.0,0.0,0.0,0.0,0.0,0.0,0.0,0.0,0.0,0.0,0.0,0.0,0.0,0.0,0.0,0.0,0.0,0.0,0.0,0.0,0.0,0.0,0.0,0.0,0.0,0.0,0.0,0.0,0.0,0.0,0.0,0.0,0.0,0.0,0.0,0.0,0.0,0.0,0.0,0.0,0.0,0.0,0.0,0.0,0.0,0.0,0.0,0.0,0.0,0.0,0.0,0.0,0.0,0.0,0.0,0.0,0.0,0.0,0.0,0.0,0.0,0.0,0.0,0.0,0.0,0.0,0.0,0.0,0.0,0.0,0.0,0.0,0.0,0.0,0.0,0.0,0.0,0.0,0.0,0.0,0.0,0.0,0.0,0.0,0.0,0.0,0.0,0.0,0.0,0.0,0.0,0.0,0.0,0.0,0.0,0.0,0.0,0.0,0.0,0.0,0.0,0.0,0.0,0.0,0.0,0.0,0.0,0.0,0.0,0.0,0.0,0.0,0.0,0.0,0.0,0.0,0.0,0.0,0.0,0.0,0.0,0.0,0.0,0.0,0.0,0.0,0.0,0.0,0.0,0.0,0.0,0.0,0.0,0.0,0.0,0.0,0.0,0.0,0.0,0.0,0.0,0.0,0.0,0.0,0.0,0.0,0.0,0.0,0.0,0.0,0.0,0.0,0.0,0.0,0.0,0.0,0.0,0.0,0.0,0.0,0.0,0.0,0.0,0.0,0.0,0.0,0.0,0.0,0.0,0.0,0.0,0.0,0.0,0.0,0.0,0.0,0.0,0.0,0.0,0.0,0.0,0.0,0.0,0.0,0.0,0.0,0.0,0.0,0.0,0.0,0.0,0.0,0.0,0.0,0.0,0.0,0.0,0.0,0.0,0.0,0.0,0.0,0.0,0.0,0.0,0.0,0.0,0.0,0.0,0.0,0.0,0.0,0.0,0.0,0.0,0.0,0.0,0.0,0.0,0.0,0.0,0.0,0.0,0.0,0.0,0.0,0.0,0.0,0.0,0.0,0.0,0.0,0.0,0.0,0.0,0.0,0.0,0.0,0.0,0.0,0.0,0.0,0.0,0.0,0.0,0.0,0.0,0.0,0.0,0.0,0.0,0.0,0.0,0.0,0.0,0.0,0.0,0.0,0.0,0.0,0.0,0.0,0.0,0.0,0.0,0.0,0.0,0.0,0.0,0.0,0.0,0.0,0.0,0.0,0.0,0.0,0.0,0.0,0.0,0.0,0.0,0.0,0.0,0.0,0.0,0.0,0.0,0.0,0.0,0.0,0.0,0.0,0.0,0.0,2.6989,0.0,0.0,0.0,0.0,0.0,0.0,0.0,0.0,0.0,0.0,0.0,0.0,0.0,0.0,0.0,0.0,0.0,0.0,0.0,0.0,0.0,0.0,0.0,0.0,0.0,0.0,0.0,0.0,0.0,0.0,0.0,0.0,0.0,0.0,0.0,0.0,0.0,0.0,0.0,0.0,0.0,0.0,0.0,0.0,0.0,0.0,0.0,0.0,0.0,0.0,0.0,0.0,0.0,0.0,0.0,0.0,0.0,0.0,0.0,0.0,0.0,0.0,0.0,0.0,0.0,0.0,0.0,0.0,0.0,0.0,0.0,0.0,0.0,0.0,0.0,0.0,0.0,0.0,0.0,0.0,0.0,0.0,0.0,0.0,0.0,0.0,0.0,0.0,0.0,0.0,0.0,0.0,0.0,0.0,0.0,0.0,0.0,0.0,0.0,0.0,0.0,0.0,0.0,0.0,0.0,0.0,0.0,0.0,0.0,0.0,2.7008,2.7008,2.6899,2.6791,2.6791,0.0,0.0,0.0,0.0,0.0,0.0,0.0,0.0,0.0,0.0,0.0,0.0,0.0,0.0,0.0,0.0,0.0,0.0,0.0,0.0,0.0,0.0,0.0,0.0,0.0,0.0,0.0,0.0,0.0,0.0,0.0,0.0,0.0,0.0,0.0,0.0,0.0,0.0,0.0,0.0,0.0,0.0,0.0,0.0,0.0,0.0,0.0,0.0,0.0,0.0,0.0,0.0,0.0,0.0,0.0,0.0,0.0,0.0,0.0,0.0,0.0,0.0,0.0,0.0,0.0,0.0,0.0,0.0,0.0,0.0,0.0,0.0,0.0,0.0,0.0,0.0,0.0,0.0,0.0,0.0,0.0,0.0,0.0,0.0,0.0,0.0,0.0,0.0,0.0,0.0,0.0,0.0,0.0,0.0,0.0,0.0,0.0,0.0,0.0,0.0,0.0,0.0,0.0,0.0,0.0,0.0,0.0,0.0,0.0,0.0,0.0,0.0,2.6591,2.6591,2.6591,0.0,0.0,0.0,0.0,0.0,0.0,0.0,0.0,0.0,0.0,0.0,0.0,0.0,0.0,0.0,0.0,0.0,0.0,0.0,0.0,0.0,0.0,0.0,0.0,0.0,0.0,0.0,0.0,0.0,0.0,0.0,0.0,0.0,0.0,0.0,0.0,0.0,0.0,0.0,0.0,0.0,0.0,0.0,0.0,0.0,0.0,0.0,0.0,0.0,0.0,0.0,0.0,0.0,0.0,0.0,0.0,0.0,0.0,0.0,0.0,0.0,0.0,0.0,0.0,0.0,0.0,0.0,0.0,0.0,0.0,0.0,0.0,0.0,0.0,0.0,0.0,0.0,0.0,0.0,0.0,0.0,0.0,0.0,0.0,0.0,0.0,0.0,0.0,0.0,0.0,0.0,0.0,0.0,0.0,0.0,0.0,0.0,0.0,0.0,0.0,0.0,0.0,0.0,0.0,0.0,0.0,0.0,0.0,0.0,0.0,2.6591,2.6591,2.6591,0.0,2.6591,0.0,0.0,0.0,0.0,0.0,0.0,0.0,0.0,0.0,0.0,0.0,0.0,0.0,0.0,0.0,0.0,0.0,0.0,0.0,0.0,0.0,0.0,0.0,0.0,0.0,0.0,0.0,0.0,0.0,0.0,0.0,0.0,0.0,0.0,0.0,0.0,0.0,0.0,0.0,0.0,0.0,0.0,0.0,0.0,0.0,0.0,0.0,0.0,0.0,0.0,0.0,0.0,0.0,0.0,0.0,0.0,0.0,0.0,0.0,0.0,0.0,0.0,0.0,0.0,0.0,0.0,0.0,0.0,0.0,0.0,0.0,0.0,0.0,0.0,0.0,0.0,0.0,0.0,0.0,0.0,0.0,0.0,0.0,0.0,0.0,0.0,0.0,0.0,0.0,0.0,0.0,0.0,0.0,0.0,0.0,0.0,0.0,0.0,0.0,0.0,0.0,0.0,0.0,0.0,0.0,0.0,0.0,0.0,0.0,0.0,2.6591,2.6591,2.6591,2.6591,0.0,0.0,0.0,0.0,0.0,0.0,0.0,0.0,0.0,0.0,0.0,0.0,0.0,0.0,0.0,0.0,0.0,0.0,0.0,0.0,0.0,0.0,0.0,0.0,0.0,0.0,0.0,0.0,0.0,0.0,0.0,0.0,0.0,0.0,0.0,0.0,0.0,0.0,0.0,0.0,0.0,0.0,0.0,0.0,0.0,0.0,0.0,0.0,0.0,0.0,0.0,0.0,0.0,0.0,0.0,0.0,0.0,0.0,0.0,0.0,0.0,0.0,0.0,0.0,0.0,0.0,0.0,0.0,0.0,0.0,0.0,0.0,0.0,0.0,0.0,0.0,0.0,0.0,0.0,0.0,0.0,0.0,0.0,0.0,0.0,0.0,0.0,0.0,0.0,0.0,0.0,0.0,0.0,0.0,0.0,0.0,0.0,0.0,0.0,0.0,0.0,0.0,0.0,0.0,0.0,0.0,0.0,0.0,0.0,0.0,2.6591,2.6591,2.6591,2.6591,2.6536,2.6408,0.0,0.0,0.0,0.0,0.0,0.0,0.0,0.0,0.0,0.0,0.0,0.0,0.0,0.0,0.0,0.0,0.0,0.0,0.0,0.0,0.0,0.0,0.0,0.0,0.0,0.0,0.0,0.0,0.0,0.0,0.0,0.0,0.0,0.0,0.0,0.0,0.0,0.0,0.0,0.0,0.0,0.0,0.0,0.0,0.0,0.0,0.0,0.0,0.0,0.0,0.0,0.0,0.0,0.0,0.0,0.0,0.0,0.0,0.0,0.0,0.0,0.0,0.0,0.0,0.0,0.0,0.0,0.0,0.0,0.0,0.0,0.0,0.0,0.0,0.0,0.0,0.0,0.0,0.0,0.0,0.0,0.0,0.0,0.0,0.0,0.0,0.0,0.0,0.0,0.0,0.0,0.0,0.0,0.0,0.0,0.0,0.0,0.0,0.0,0.0,0.0,0.0,0.0,0.0,0.0,0.0,0.0,0.0,2.6591,2.6591,2.6591,2.6591,2.6591,2.6408,0.0,0.0,0.0,0.0,0.0,0.0,0.0,0.0,0.0,0.0,0.0,0.0,0.0,0.0,0.0,0.0,0.0,0.0,0.0,0.0,0.0,0.0,0.0,0.0,0.0,0.0,0.0,0.0,0.0,0.0,0.0,0.0,0.0,0.0,0.0,0.0,0.0,0.0,0.0,0.0,0.0,0.0,0.0,0.0,0.0,0.0,0.0,0.0,0.0,0.0,0.0,0.0,0.0,0.0,0.0,0.0,0.0,0.0,0.0,0.0,0.0,0.0,0.0,0.0,0.0,0.0,0.0,0.0,0.0,0.0,0.0,0.0,0.0,0.0,0.0,0.0,0.0,0.0,0.0,0.0,0.0,0.0,0.0,0.0,0.0,0.0,0.0,0.0,0.0,0.0,0.0,0.0,0.0,0.0,0.0,0.0,0.0,0.0,0.0,0.0,0.0,0.0,0.0,0.0,0.0,0.0,0.0,0.0,0.0,2.6591,2.6591,2.6591,2.6591,2.6591,2.6389,0.0,0.0,0.0,0.0,0.0,0.0,0.0,0.0,0.0,0.0,0.0,0.0,0.0,0.0,0.0,0.0,0.0,0.0,0.0,0.0,0.0,0.0,0.0,0.0,0.0,0.0,0.0,0.0,0.0,0.0,0.0,0.0,0.0,0.0,0.0,0.0,0.0,0.0,0.0,0.0,0.0,0.0,0.0,0.0,0.0,0.0,0.0,0.0,0.0,0.0,0.0,0.0,0.0,0.0,0.0,0.0,0.0,0.0,0.0,0.0,0.0,0.0,0.0,0.0,0.0,0.0,0.0,0.0,0.0,0.0,0.0,0.0,0.0,0.0,0.0,0.0,0.0,0.0,0.0,0.0,0.0,0.0,0.0,0.0,0.0,0.0,0.0,0.0,0.0,0.0,0.0,0.0,0.0,0.0,0.0,0.0,0.0,0.0,0.0,0.0,0.0,0.0,0.0,0.0,0.0,0.0,0.0,0.0,0.0,2.6591,0.0,2.6591,0.0,2.6463,2.6188,0.0,0.0,0.0,0.0,0.0,0.0,0.0,0.0,0.0,0.0,0.0,0.0,0.0,0.0,0.0,0.0,0.0,0.0,0.0,0.0,0.0,0.0,0.0,0.0,0.0,0.0,0.0,0.0,0.0,0.0,0.0,0.0,0.0,0.0,0.0,0.0,0.0,0.0,0.0,0.0,0.0,0.0,0.0,0.0,0.0,0.0,0.0,0.0,0.0,0.0,0.0,0.0,0.0,0.0,0.0,0.0,0.0,0.0,0.0,0.0,0.0,0.0,0.0,0.0,0.0,0.0,0.0,0.0,0.0,0.0,0.0,0.0,0.0,0.0,0.0,0.0,0.0,0.0,0.0,0.0,0.0,0.0,0.0,0.0,0.0,0.0,0.0,0.0,0.0,0.0,0.0,0.0,0.0,0.0,0.0,0.0,0.0,0.0,0.0,0.0,0.0,0.0,0.0,0.0,0.0,0.0,0.0,0.0,2.6554,2.6573,2.6554,2.6518,2.6554,2.6169,2.5766,0.0,0.0,0.0,0.0,0.0,0.0,0.0,0.0,0.0,0.0,0.0,0.0,0.0,0.0,0.0,0.0,0.0,0.0,0.0,0.0,0.0,0.0,0.0,0.0,0.0,0.0,0.0,0.0,0.0,0.0,0.0,0.0,0.0,0.0,0.0,0.0,0.0,0.0,0.0,0.0,0.0,0.0,0.0,0.0,0.0,0.0,0.0,0.0,0.0,0.0,0.0,0.0,0.0,0.0,0.0,0.0,0.0,0.0,0.0,0.0,0.0,0.0,0.0,0.0,0.0,0.0,0.0,0.0,0.0,0.0,0.0,0.0,0.0,0.0,0.0,0.0,0.0,0.0,0.0,0.0,0.0,0.0,0.0,0.0,0.0,0.0,0.0,0.0,0.0,0.0,0.0,0.0,0.0,0.0,0.0,0.0,0.0,0.0,0.0,0.0,0.0,0.0,0.0,0.0,0.0,0.0,0.0,0.0,0.0,2.5748,2.5748,2.5748,2.5748,2.5619,2.5362,0.0,0.0,0.0,0.0,0.0,0.0,0.0,0.0,0.0,0.0,0.0,0.0,0.0,0.0,0.0,0.0,0.0,0.0,0.0,0.0,0.0,0.0,0.0,0.0,0.0,0.0,0.0,0.0,0.0,0.0,0.0,0.0,0.0,0.0,0.0,0.0,0.0,0.0,0.0,0.0,0.0,0.0,0.0,0.0,0.0,0.0,0.0,0.0,0.0,0.0,0.0,0.0,0.0,0.0,0.0,0.0,0.0,0.0,0.0,0.0,0.0,0.0,0.0,0.0,0.0,0.0,0.0,0.0,0.0,0.0,0.0,0.0,0.0,0.0,0.0,0.0,0.0,0.0,0.0,0.0,0.0,0.0,0.0,0.0,0.0,0.0,0.0,0.0,0.0,0.0,0.0,0.0,0.0,0.0,0.0,0.0,0.0,0.0,0.0,0.0,0.0,0.0,0.0,0.0,0.0,0.0,0.0,0.0,0.0,2.4162,2.4802,2.5216,2.5362,2.5234,2.5032,2.4794,0.0,0.0,0.0,0.0,0.0,0.0,0.0,0.0,0.0,0.0,0.0,0.0,0.0,0.0,0.0,0.0,0.0,0.0,0.0,0.0,0.0,0.0,0.0,0.0,0.0,0.0,0.0,0.0,0.0,0.0,0.0,0.0,0.0,0.0,0.0,0.0,0.0,0.0,0.0,0.0,0.0,0.0,0.0,0.0,0.0,0.0,0.0,0.0,0.0,0.0,0.0,0.0,0.0,0.0,0.0,0.0,0.0,0.0,0.0,0.0,0.0,0.0,0.0,0.0,0.0,0.0,0.0,0.0,0.0,0.0,0.0,0.0,0.0,0.0,0.0,0.0,0.0,0.0,0.0,0.0,0.0,0.0,0.0,0.0,0.0,0.0,0.0,0.0,0.0,0.0,0.0,0.0,0.0,0.0,0.0,0.0,0.0,0.0,0.0,0.0,0.0,0.0,0.0,0.0,0.0,0.0,0.0,0.0,2.2185,2.3764,2.4812,2.5179,2.4886,2.4721,0.0,0.0,0.0,0.0,0.0,0.0,0.0,0.0,0.0,0.0,0.0,0.0,0.0,0.0,0.0,0.0,0.0,0.0,0.0,0.0,0.0,0.0,0.0,0.0,0.0,0.0,0.0,0.0,0.0,0.0,0.0,0.0,0.0,0.0,0.0,0.0,0.0,0.0,0.0,0.0,0.0,0.0,0.0,0.0,0.0,0.0,0.0,0.0,0.0,0.0,0.0,0.0,0.0,0.0,0.0,0.0,0.0,0.0,0.0,0.0,0.0,0.0,0.0,0.0,0.0,0.0,0.0,0.0,0.0,0.0,0.0,0.0,0.0,0.0,0.0,0.0,0.0,0.0,0.0,0.0,0.0,0.0,0.0,0.0,0.0,0.0,0.0,0.0,0.0,0.0,0.0,0.0,0.0,0.0,0.0,0.0,0.0,0.0,0.0,0.0,0.0,0.0,0.0,0.0,0.0,0.0,0.0,0.0,0.0,2.1995,2.2125,2.2512,2.2965,2.3376,2.3484,0.0,0.0,0.0,0.0,0.0,0.0,0.0,0.0,0.0,0.0,0.0,0.0,0.0,0.0,0.0,0.0,0.0,0.0,0.0,0.0,0.0,0.0,0.0,0.0,0.0,0.0,0.0,0.0,0.0,0.0,0.0,0.0,0.0,0.0,0.0,0.0,0.0,0.0,0.0,0.0,0.0,0.0,0.0,0.0,0.0,0.0,0.0,0.0,0.0,0.0,0.0,0.0,0.0,0.0,0.0,0.0,0.0,0.0,0.0,0.0,0.0,0.0,0.0,0.0,0.0,0.0,0.0,0.0,0.0,0.0,0.0,0.0,0.0,0.0,0.0,0.0,0.0,0.0,0.0,0.0,0.0,0.0,0.0,0.0,0.0,0.0,0.0,0.0,0.0,0.0,0.0,0.0,0.0,0.0,0.0,0.0,0.0,0.0,0.0,0.0,0.0,0.0,0.0,0.0,0.0,0.0,0.0,0.0,2.005,2.0866,2.0737,2.072,2.0925,2.2048,2.2611,0.0,0.0,0.0,0.0,0.0,0.0,0.0,0.0,0.0,0.0,0.0,0.0,0.0,0.0,0.0,0.0,0.0,0.0,0.0,0.0,0.0,0.0,0.0,0.0,0.0,0.0,0.0,0.0,0.0,0.0,0.0,0.0,0.0,0.0,0.0,0.0,0.0,0.0,0.0,0.0,0.0,0.0,0.0,0.0,0.0,0.0,0.0,0.0,0.0,0.0,0.0,0.0,0.0,0.0,0.0,0.0,0.0,0.0,0.0,0.0,0.0,0.0,0.0,0.0,0.0,0.0,0.0,0.0,0.0,0.0,0.0,0.0,0.0,0.0,0.0,0.0,0.0,0.0,0.0,0.0,0.0,0.0,0.0,0.0,0.0,0.0,0.0,0.0,0.0,0.0,0.0,0.0,0.0,0.0,0.0,0.0,0.0,0.0,0.0,0.0,0.0,0.0,0.0,0.0,0.0,0.0,0.0,0.0,1.8973,1.9504,1.9471,1.9347,1.9055,2.0772,2.17,0.0,0.0,0.0,0.0,0.0,0.0,0.0,0.0,0.0,0.0,0.0,0.0,0.0,0.0,0.0,0.0,0.0,0.0,0.0,0.0,0.0,0.0,0.0,0.0,0.0,0.0,0.0,0.0,0.0,0.0,0.0,0.0,0.0,0.0,0.0,0.0,0.0,0.0,0.0,0.0,0.0,0.0,0.0,0.0,0.0,0.0,0.0,0.0,0.0,0.0,0.0,0.0,0.0,0.0,0.0,0.0,0.0,0.0,0.0,0.0,0.0,0.0,0.0,0.0,0.0,0.0,0.0,0.0,0.0,0.0,0.0,0.0,0.0,0.0,0.0,0.0,0.0,0.0,0.0,0.0,0.0,0.0,0.0,0.0,0.0,0.0,0.0,0.0,0.0,0.0,0.0,0.0,0.0,0.0,0.0,0.0,0.0,0.0,0.0,0.0,0.0,0.0,0.0,0.0,0.0,0.0,0.0,0.0,1.8315,1.8535,1.8442,1.8226,1.769,1.9362,2.005,0.0,0.0,0.0,0.0,0.0,0.0,0.0,0.0,0.0,0.0,0.0,0.0,0.0,0.0,0.0,0.0,0.0,0.0,0.0,0.0,0.0,0.0,0.0,0.0,0.0,0.0,0.0,0.0,0.0,0.0,0.0,0.0,0.0,0.0,0.0,0.0,0.0,0.0,0.0,0.0,0.0,0.0,0.0,0.0,0.0,0.0,0.0,0.0,2.0327,0.0,0.0,0.0,0.0,0.0,0.0,0.0,0.0,0.0,0.0,0.0,0.0,0.0,0.0,0.0,0.0,0.0,0.0,0.0,0.0,0.0,0.0,0.0,0.0,0.0,0.0,0.0,0.0,0.0,0.0,0.0,0.0,0.0,0.0,0.0,0.0,0.0,0.0,0.0,0.0,0.0,0.0,0.0,0.0,0.0,0.0,0.0,0.0,0.0,0.0,0.0,0.0,0.0,0.0,0.0,0.0,0.0,0.0,0.0,1.7501,1.7684,1.7257,1.6742,1.6296,1.6621,1.7051,0.0,0.0,0.0,0.0,0.0,0.0,0.0,0.0,0.0,0.0,0.0,0.0,0.0,0.0,0.0,0.0,0.0,0.0,0.0,0.0,0.0,0.0,0.0,0.0,0.0,0.0,0.0,0.0,0.0,0.0,0.0,0.0,0.0,0.0,0.0,0.0,0.0,0.0,0.0,0.0,0.0,0.0,0.0,0.0,0.0,0.0,0.0,0.0,0.0,0.0,0.0,0.0,0.0,0.0,0.0,0.0,0.0,0.0,0.0,0.0,0.0,0.0,0.0,0.0,0.0,0.0,0.0,0.0,0.0,0.0,0.0,0.0,0.0,0.0,0.0,0.0,0.0,0.0,0.0,0.0,0.0,0.0,0.0,0.0,0.0,0.0,0.0,0.0,0.0,0.0,0.0,0.0,0.0,0.0,0.0,0.0,0.0,0.0,0.0,0.0,0.0,0.0,0.0,0.0,0.0,0.0,0.0,1.6279,1.6374,1.649,1.5776,1.514,1.4485,1.3318,1.3332,1.4559,0.0,0.0,0.0,0.0,0.0,0.0,0.0,0.0,0.0,0.0,0.0,0.0,0.0,0.0,0.0,0.0,0.0,0.0,0.0,0.0,0.0,0.0,0.0,0.0,0.0,0.0,0.0,0.0,0.0,0.0,0.0,0.0,0.0,0.0,0.0,0.0,0.0,0.0,1.7916,1.8559,0.0,0.0,0.0,0.0,0.0,0.0,0.0,0.0,1.9276,0.0,0.0,0.0,0.0,0.0,0.0,0.0,0.0,0.0,0.0,0.0,0.0,0.0,0.0,0.0,0.0,0.0,0.0,0.0,0.0,0.0,0.0,0.0,0.0,0.0,0.0,0.0,0.0,0.0,0.0,0.0,0.0,0.0,0.0,0.0,0.0,0.0,0.0,0.0,0.0,0.0,0.0,0.0,0.0,0.0,0.0,0.0,0.0,0.0,0.0,0.0,0.0,0.0,0.0,0.0,0.0,1.4762,1.4651,1.4584,1.4359,1.3975,1.3101,1.1779,1.0798,0.987,0.9035,0.0,0.0,0.0,0.0,0.0,0.0,0.0,0.0,0.0,0.0,0.0,0.0,0.0,0.0,0.0,0.0,0.0,0.0,0.0,0.0,0.0,0.0,0.0,0.0,0.0,0.0,0.0,0.0,0.0,0.0,0.0,0.0,0.0,0.0,0.0,0.0,0.0,0.0,0.0,1.7916,1.8185,0.0,0.0,0.0,0.0,0.0,0.0,0.0,0.0,1.8282,0.0,0.0,0.0,0.0,0.0,0.0,0.0,0.0,0.0,0.0,0.0,0.0,0.0,0.0,0.0,0.0,0.0,0.0,0.0,0.0,0.0,0.0,0.0,0.0,0.0,0.0,0.0,0.0,0.0,0.0,0.0,0.0,0.0,0.0,0.0,0.0,0.0,0.0,0.0,0.0,0.0,0.0,0.0,0.0,0.0,0.0,0.0,0.0,0.0,0.0,0.0,0.0,0.0,0.0,0.0,1.3755,1.3097,1.2797,1.2813,1.1967,1.097,0.9589,0.8191,0.6876,0.0,0.0,0.0,0.0,0.0,0.0,0.0,0.0,0.0,0.0,0.0,0.0,0.0,0.0,0.0,0.0,0.0,0.0,0.0,0.0,0.0,0.0,0.0,0.0,0.0,0.0,0.0,0.0,0.0,0.0,0.0,0.0,0.0,0.0,0.0,0.0,0.0,0.0,0.0,0.0,1.726,1.7787,1.7787,0.0,0.0,0.0,0.0,0.0,0.0,1.6781,1.6359,0.0,0.0,0.0,0.0,0.0,0.0,0.0,0.0,0.0,0.0,0.0,0.0,0.0,0.0,0.0,0.0,0.0,0.0,0.0,0.0,0.0,0.0,0.0,0.0,0.0,0.0,0.0,0.0,0.0,0.0,0.0,0.0,0.0,0.0,0.0,0.0,0.0,0.0,0.0,0.0,0.0,0.0,0.0,0.0,0.0,0.0,0.0,0.0,0.0,0.0,0.0,0.0,0.0,0.0,0.0,1.2417,1.1228,1.0871,1.1121,1.0229,0.8878,0.7319,0.5425,0.3914,0.0,0.0,0.0,0.0,0.0,0.0,0.0,0.0,0.0,0.0,0.0,0.0,0.0,0.0,0.0,0.0,0.0,0.0,0.0,0.0,0.0,0.0,0.0,0.0,0.0,0.0,0.0,0.0,0.0,0.0,0.0,0.0,0.0,0.0,0.0,0.0,0.0,0.0,0.0,0.0,0.0,1.7001,1.7141,1.7141,0.0,0.0,0.0,0.0,1.5574,1.4782,0.0,0.0,0.0,0.0,0.0,0.0,0.0,0.0,0.0,0.0,0.0,0.0,0.0,0.0,0.0,0.0,0.0,0.0,0.0,0.0,0.0,0.0,0.0,0.0,0.0,0.0,0.0,0.0,0.0,0.0,0.0,0.0,0.0,0.0,0.0,0.0,0.0,0.0,0.0,0.0,0.0,0.0,0.0,0.0,0.0,0.0,0.0,0.0,0.0,0.0,0.0,0.0,0.0,0.0,0.0,0.0,1.0416,0.8955,0.8459,0.8919,0.8746,0.7171,0.4131,0.2525,0.1049,0.0,0.0,0.0,0.0,0.0,0.0,0.0,0.0,0.0,0.0,0.0,0.0,0.0,0.0,0.0,0.0,0.0,0.0,0.0,0.0,0.0,0.0,0.0,0.0,0.0,0.0,0.0,0.0,0.0,0.0,0.0,0.0,0.0,0.0,0.0,0.0,0.0,0.0,0.0,0.0,0.0,1.5303,1.5704,1.5704,1.5574,0.0,0.0,0.0,1.3735,1.2808,0.0,0.0,0.0,0.0,0.0,0.0,0.0,0.0,0.0,0.0,0.0,0.0,0.0,0.0,0.0,0.0,0.0,0.0,0.0,0.0,0.0,0.0,0.0,0.0,0.0,0.0,0.0,0.0,0.0,0.0,0.0,0.0,0.0,0.0,0.0,0.0,0.0,0.0,0.0,0.0,0.0,0.0,0.0,0.0,0.0,0.0,0.0,0.0,0.0,0.0,0.0,0.0,0.0,0.0,0.0,1.1338,0.8893,0.7923,0.7528,0.7692,0.5935,0.3857,0.1655,-0.0,-0.1452,0.0,0.0,0.0,0.0,0.0,0.0,0.0,0.0,0.0,0.0,0.0,0.0,0.0,0.0,0.0,0.0,0.0,0.0,0.0,0.0,0.0,0.0,0.0,0.0,0.0,0.0,0.0,0.0,0.0,0.0,0.0,0.0,0.0,0.0,0.0,0.0,0.0,0.0,0.0,0.0,0.0,0.0,1.4422,1.4166,0.0,0.0,0.0,1.2172,1.176,0.0,0.0,0.0,0.0,0.0,0.0,0.0,0.0,0.0,0.0,0.0,0.0,0.0,0.0,0.0,0.0,0.0,0.0,0.0,0.0,0.0,0.0,0.0,0.0,0.0,0.0,0.0,0.0,0.0,0.0,0.0,0.0,0.0,0.0,0.0,0.0,0.0,0.0,0.0,0.0,0.0,0.0,0.0,0.0,0.0,0.0,0.0,0.0,0.0,0.0,0.0,0.0,0.0,0.0,0.0,0.0,0.0,0.749,0.6149,0.5415,0.5445,0.2848,0.065,-0.0934,-0.2897,0.0,0.0,0.0,0.0,0.0,0.0,0.0,0.0,0.0,0.0,0.0,0.0,0.0,0.0,0.0,0.0,0.0,0.0,0.0,0.0,0.0,0.0,0.0,0.0,0.0,0.0,0.0,0.7921,0.0,0.0,0.0,0.0,0.0,0.0,0.0,0.0,0.0,0.0,0.0,0.0,0.0,0.0,1.2757,1.3068,1.2689,1.2203,0.0,0.0,1.0184,0.9625,0.8655,0.796,0.0,0.0,0.0,0.0,0.0,0.0,0.0,0.0,0.0,0.0,0.0,0.0,0.0,0.0,0.0,0.0,0.0,0.0,0.0,0.0,0.0,0.0,0.0,0.0,0.0,0.0,0.0,0.0,0.0,0.0,0.0,0.0,0.0,0.0,0.0,0.0,0.0,0.0,0.0,0.0,0.0,0.0,0.0,0.0,0.0,0.0,0.0,0.0,0.0,0.0,0.0,0.0,0.0,0.0,0.0,0.6133,0.2666,0.1037,0.1132,-0.0,-0.1715,-0.4171,-0.6651,-0.7739,0.0,0.0,0.0,0.0,0.0,0.0,0.0,0.0,0.0,0.0,0.0,0.0,0.0,0.0,0.0,0.0,0.0,0.0,0.0,0.0,0.0,0.0,0.0,0.0,0.0,0.0,0.0,0.0,0.0,0.0,0.0,0.0,0.0,0.0,0.0,0.0,0.0,0.0,0.0,0.0,0.0,1.1038,1.1447,1.0934,1.0438,0.0,0.0,0.8243,0.7548,0.6434,0.5737,0.574,0.0,0.0,0.0,0.0,0.0,0.0,0.0,0.0,0.0,0.0,0.0,0.0,0.0,0.0,0.0,0.0,0.0,0.0,0.0,0.0,0.0,0.0,0.0,0.0,0.0,0.0,0.0,0.0,0.0,0.0,0.0,0.0,0.0,0.0,0.0,0.0,0.0,0.0,0.0,0.0,0.0,0.0,0.0,0.0,0.0,0.0,0.0,0.0,0.0,0.0,0.0,0.0,0.0,0.5761,0.3833,-0.186,-0.3788,-0.1863,-0.4415,-0.6541,-0.8085,-0.9041,-0.943,0.0,0.0,0.0,0.0,0.0,0.0,0.0,0.0,0.0,0.0,0.0,0.0,0.0,0.0,0.0,0.0,0.0,0.0,0.0,0.0,0.0,0.0,0.0,0.0,0.0,0.0,0.0,0.0,0.7784,0.8205,0.8153,0.0,0.0,0.0,0.0,0.0,0.0,0.0,0.0,0.0,0.0,0.9555,0.9811,0.9209,0.0,0.0,0.7308,0.6598,0.6169,0.5454,0.4881,0.4591,0.4117,0.0,0.0,0.0,0.0,0.0,0.0,0.0,0.0,0.0,0.0,0.0,0.0,0.0,0.0,0.0,0.0,0.0,0.0,0.0,0.0,0.0,0.0,0.0,0.0,0.0,0.0,0.0,0.0,0.0,0.0,0.0,0.0,0.0,0.0,0.0,0.0,0.0,0.0,0.0,0.0,0.0,0.0,0.0,0.0,0.0,0.0,0.0,0.0,0.0,0.0,0.0,0.0,0.2494,0.0831,-0.5183,-0.7409,-0.5546,-0.8024,-0.9965,-1.1088,-1.1247,-1.1301,0.0,0.0,0.0,0.0,0.0,0.0,0.0,0.0,0.0,0.0,0.0,0.0,0.0,0.0,0.0,0.0,0.0,0.0,0.0,0.0,0.0,0.0,0.0,0.0,0.0,0.0,0.0,0.0,0.6904,0.7417,0.7373,0.0,0.0,0.0,0.0,0.0,0.0,0.0,0.0,0.0,0.0,0.8138,0.8273,0.7658,0.7035,0.657,0.5856,0.5424,0.4988,0.4118,0.3386,0.2932,0.0,0.0,0.0,0.0,0.0,0.0,0.0,0.0,0.0,0.0,0.0,0.0,0.0,0.0,0.0,0.0,0.0,0.0,0.0,0.0,0.0,0.0,0.0,0.0,0.0,0.0,0.0,0.0,0.0,0.0,0.0,0.0,0.0,0.0,0.0,0.0,0.0,0.0,0.0,0.0,0.0,0.0,0.0,0.0,0.0,0.0,0.0,0.0,0.0,0.0,0.0,0.0,0.0,0.0,-0.2861,-0.6895,-0.9542,-1.056,-1.0404,-1.1112,-1.2615,-1.3377,-1.3737,-1.3423,0.0,0.0,0.0,0.0,0.0,0.0,0.0,0.0,0.0,0.0,0.0,0.0,0.0,0.0,0.0,0.0,0.0,0.0,0.0,0.0,0.0,0.0,0.0,0.0,0.0,0.0,0.4916,0.5536,0.59,0.0,0.0,0.0,0.0,0.0,0.0,0.0,0.0,0.0,0.0,0.6521,0.6647,0.6823,0.614,0.563,0.5324,0.5049,0.4456,0.4013,0.2101,0.0753,0.0,0.0,0.0,0.0,0.0,0.0,0.0,0.0,0.0,0.0,0.0,0.0,0.0,0.0,0.0,0.0,0.0,0.0,0.0,0.0,0.0,0.0,0.0,0.0,0.0,0.0,0.0,0.0,0.5146,0.0,0.0,0.0,0.0,0.0,0.0,0.0,0.0,0.0,0.0,0.0,-0.0452,-0.1839,0.0,0.0,0.0,0.0,0.0,0.0,0.0,0.0,0.0,0.0,0.0,0.0,-0.4256,-0.782,-1.0421,-1.1669,-1.1802,-1.2459,-1.3453,-1.474,-1.5308,-1.5308,-1.4656,0.0,0.0,0.0,0.0,0.0,0.0,0.0,0.0,0.0,0.0,0.0,0.0,0.0,0.0,0.0,0.0,0.0,0.0,0.0,0.0,0.0,0.0,0.0,0.0,0.0,0.3271,0.0,0.0,0.0,0.0,0.0,0.0,0.0,0.0,0.0,0.0,0.0,0.5369,0.5305,0.5321,0.5301,0.5348,0.5143,0.4917,0.0,0.0,0.0,0.0,0.0,0.0,0.0,0.0,0.0,0.0,0.0,0.0,0.0,0.0,0.1117,0.2035,0.2316,0.245,0.2297,0.0,0.0,0.0,0.0,0.0,0.0,0.0,0.0,0.0,0.0,0.0,0.0,0.0,0.0,0.0,0.0,0.1246,0.0,0.0,0.0,0.0,0.0,0.0,0.0,0.0,-0.2171,-0.3234,-0.4647,-0.5814,-0.6832,0.0,-0.9433,-0.8474,0.0,0.0,0.0,0.0,0.0,0.0,0.0,0.0,-0.7097,-1.1438,-1.3315,-1.3939,-1.3414,-1.4611,-1.5664,-1.6418,-1.6759,-1.6608,-1.583,-1.4779,-1.3658,0.0,0.0,0.0,0.0,0.0,0.0,0.0,0.0,0.0,0.0,0.0,0.0,0.0,0.0,0.0,0.0,0.0,0.0,0.0,0.0,0.0,0.0,0.0,0.2554,0.0,0.0,0.0,0.0,0.0,0.0,0.0,0.0,0.0,0.4687,0.462,0.429,0.4228,0.4189,0.3969,0.3543,0.0,0.0,0.0,0.0,0.0,0.0,0.0,-0.1717,-0.1744,-0.1743,-0.1594,-0.1469,-0.1653,-0.1844,-0.1877,0.0,0.0,0.0329,0.0324,-0.0,-0.0,-0.0965,-0.1608,-0.1769,-0.2413,-0.2895,0.0,0.0,0.0,0.0,0.0,0.0,0.0,0.0,-0.3036,-0.2905,0.0,-0.2506,0.0,0.0,0.0,0.0,0.0,0.0,0.0,0.0,-0.5946,-0.7097,-0.8534,-0.94,-1.0156,-1.0915,-1.1195,-1.1404,-1.1247,-0.9099,0.0,0.0,0.0,0.0,0.0,0.0,-0.9537,-1.374,-1.5557,-1.6109,-1.5603,-1.6464,-1.7196,-1.7831,-1.7702,-1.7423,-1.7001,-1.591,-1.4935,-1.4075,-1.2356,0.0,0.0,0.0,0.0,0.0,0.0,0.0,0.0,0.0,0.0,0.0,0.0,0.0,0.0,0.0,0.0,0.0,0.0,0.0,0.0,0.2024,0.0,0.0,0.0,0.0,0.0,0.0,0.0,0.0,0.0,0.0,0.3596,0.3667,0.3471,0.3263,0.0,0.0,0.0,0.0,0.1241,0.0471,-0.0476,-0.1279,-0.1759,-0.3232,-0.4234,-0.3748,0.0,0.0,-0.4101,-0.4498,-0.4542,-0.4767,-0.4423,-0.3515,-0.0861,-0.1359,-0.2024,-0.2023,-0.3203,-0.4218,-0.4556,-0.4556,-0.4553,-1.018,0.0,0.0,0.0,0.0,-0.6689,-0.6951,-0.707,-0.7396,-0.7267,-0.6911,-0.6663,0.0,0.0,0.0,0.0,0.0,0.0,-0.7108,-0.8295,-0.8914,-0.9741,-1.0767,-1.1347,-1.1901,-1.2529,-1.2442,-1.266,-1.3172,-1.248,-1.1164,-0.9104,0.0,0.0,0.0,0.0,-1.1996,-1.4872,-1.6145,-1.6786,-1.67,-1.7092,-1.7674,-1.8484,-1.8433,-1.8116,-1.7518,-1.6911,-1.6115,-1.4969,-1.3423,0.0,0.0,0.0,0.0,0.0,0.0,0.0,0.0,0.0,0.0,0.0,0.0,0.0,0.0,0.0,0.0,0.0,0.0,0.0,0.0537,0.0665,0.0659,0.0,0.0,0.0,0.0,0.0,0.0,0.0,0.0,0.0,-0.0147,0.0741,0.1349,0.0,0.0,0.0627,-0.0,-0.0477,-0.0965,-0.1301,0.0,0.0,0.0,-0.3991,-0.4176,-0.4042,-0.394,-0.4018,-0.4285,-0.4489,-0.4693,-0.4921,-0.493,-0.4737,-0.4525,-0.3924,-0.3705,-0.3701,-0.4406,-0.4758,-0.4934,-0.5286,-0.5462,-1.424,-1.1741,-1.1647,-1.0951,-1.0072,-1.0285,-1.045,-1.0573,-1.0711,-1.0587,-1.0218,-0.981,-0.9347,-0.8533,-0.832,0.0,0.0,0.0,-0.9869,-1.082,-1.1366,-1.1996,-1.2969,-1.3276,-1.3692,-1.4077,-1.3919,-1.4112,-1.4645,-1.4677,-1.3802,-1.2225,0.0,0.0,-0.8716,-1.1508,-1.4159,-1.6212,-1.6985,-1.7379,-1.7544,-1.7817,-1.8271,-1.8665,-1.8541,-1.8314,-1.7855,-1.7223,-1.6566,-1.576,-1.4272,-1.2931,0.0,0.0,0.0,0.0,0.0,0.0,0.0,0.0,0.0,0.0,0.0,-0.1724,0.0,0.0,0.0,0.0,-0.0656,-0.0403,-0.0409,-0.0677,0.0,0.0,0.0,0.0,0.0,0.0,0.0,-0.2932,-0.3102,-0.339,-0.358,-0.2669,-0.1739,-0.1427,-0.1606,-0.1948,-0.2283,0.0,-0.2998,-0.3199,-0.4236,-0.4947,-0.5173,-0.5006,-0.5021,-0.4553,-0.4626,-0.4695,-0.4935,-0.5134,-0.5521,-0.5937,-0.614,-0.6148,-0.6544,-0.6134,-0.5707,-0.5465,-0.5628,-0.5991,-0.5991,-0.6172,-0.6353,-1.6284,-1.5784,-1.4809,-1.3888,-1.3204,-1.3213,-1.3356,-1.3627,-1.3265,-1.3012,-1.2631,-1.225,-1.1767,-1.1106,-1.0934,0.0,0.0,-1.1604,-1.2162,-1.275,-1.3185,-1.3892,-1.4754,-1.4919,-1.5155,-1.5447,-1.5437,-1.5447,-1.5611,-1.5739,-1.5624,-1.5262,-1.3216,-1.1953,-1.1642,-1.3834,-1.5961,-1.7673,-1.7759,-1.784,-1.8149,-1.8586,-1.8699,-1.8512,-1.8237,-1.7909,-1.7819,-1.6798,-1.6273,-1.6244,-1.4928,-1.3703,-1.2452,0.0,0.0,0.0,0.0,0.0,0.0,0.0,0.0,0.0,0.0,0.0,0.0,0.0,0.0,0.0,-0.1704,0.0,-0.1216,-0.2032,0.0,0.0,0.0,-0.3539,-0.3725,-0.4361,-0.533,-0.6369,0.0,0.0,0.0,0.0,-0.5384,-0.4505,-0.4329,-0.451,-0.4726,-0.4777,-0.4996,-0.5048,-0.5624,-0.5861,-0.5912,-0.6281,-0.612,-0.5457,-0.5337,-0.5552,-0.5932,-0.6308,-0.6889,-0.733,-0.7524,-0.7551,-0.7623,-0.7876,-0.7681,-0.71,-0.7065,-0.7432,-0.7253,-0.7442,-0.7446,-1.7521,-1.7256,-1.6992,-1.6257,-1.5306,-1.5473,-1.5639,-1.5919,-1.551,-1.5243,-1.5243,-1.4575,-1.3811,-1.3104,-1.3172,-1.293,-1.2708,-1.3104,-1.3361,-1.3578,-1.3764,-1.4078,-1.4547,-1.4583,-1.468,-1.4952,-1.5404,-1.5477,-1.5597,-1.5904,-1.5939,-1.5697,-1.5087,-1.4349,-1.3646,-1.5525,-1.6915,-1.7664,-1.8049,-1.825,-1.8129,-1.8313,-1.8293,-1.8057,-1.7917,-1.7586,-1.6778,-1.6302,-1.5791,-1.5357,-1.4446,-1.3493,-1.2633,-1.1401,0.0,0.0,0.0,0.0,0.0,0.0,0.0,0.0,0.0,-0.2003,-0.2039,0.0,-0.2067,0.0,-0.255,-0.2887,-0.2815,-0.3274,0.0,0.0,-0.4194,-0.4255,-0.4562,-0.5147,-0.5723,-0.6068,-0.6297,-0.6635,-0.6669,-0.6682,-0.6647,-0.6507,-0.5943,-0.557,-0.5934,-0.6162,-0.6408,-0.6652,-0.6861,-0.7077,-0.6961,-0.7157,-0.7,-0.6514,-0.6354,-0.6377,-0.6046,-0.6432,-0.7024,-0.7664,-0.8064,-0.8476,-0.8935,-0.8974,-0.8966,-0.8714,-0.8317,-0.7742,-0.7738,-0.7735,-0.7738,-1.7868,-1.7453,-1.7453,-1.7099,-1.6429,-1.6593,-1.6799,-1.6912,-1.637,-1.6099,-1.6099,-1.5555,-1.5091,-1.4567,-1.4727,-1.4468,-1.4026,-1.4162,-1.4266,-1.4311,-1.4319,-1.4363,-1.4588,-1.4727,-1.478,-1.4885,-1.5035,-1.537,-1.5593,-1.5793,-1.5878,-1.5719,-1.5895,-1.5687,-1.5231,-1.5727,-1.6267,-1.6748,-1.7612,-1.8026,-1.783,-1.7955,-1.8018,-1.7724,-1.7248,-1.6818,-1.6144,-1.5634,-1.5119,-1.4737,-1.4053,-1.3287,-1.2696,-1.1425,-0.9883,0.0,0.0,0.0,0.0,0.0,0.0,0.0,0.0,0.0,0.0,0.0,-0.2653,0.0,-0.318,0.0,-0.3774,-0.4121,-0.4596,-0.5179,-0.5292,-0.5385,-0.572,-0.6171,-0.6626,-0.6731,-0.7227,-0.7548,-0.7656,-0.7787,-0.7904,-0.7986,-0.7628,-0.7064,-0.6858,-0.6883,-0.7117,-0.7742,-0.7756,-0.7781,-0.7853,-0.7712,-0.7561,-0.7223,-0.7259,-0.7291,-0.7327,-0.7529,-0.7931,-0.8354,-0.8753,-0.8958,-0.9399,-0.9444,-0.9465,-0.9473,-0.9111,-0.8708,-0.8641,-0.8626,-0.8626,-1.783,-1.7277,-1.7277,-1.7128,-1.7015,-1.7097,-1.7141,-1.7151,-1.646,-1.6187,-1.606,-1.5805,-1.5678,-1.5678,-1.5706,-1.5578,-1.5156,-1.5156,-1.4979,-1.4859,-1.4719,-1.4814,-1.498,-1.498,-1.498,-1.498,-1.4685,-1.4962,-1.5542,-1.539,-1.5533,-1.5685,-1.5979,-1.6046,-1.5999,-1.5155,-1.5017,-1.5719,-1.6875,-1.7498,-1.7529,-1.7498,-1.7488,-1.7325,-1.6356,-1.5709,-1.5681,-1.48,-1.4275,-1.4249,-1.3617,-1.3014,-1.2435,-1.1094,-0.9984,0.0,-0.7566,0.0,0.0,0.0,0.0,0.0,0.0,0.0,0.0,-0.3345,-0.3577,-0.3815,-0.372,-0.393,-0.4479,-0.4993,-0.5364,-0.5894,-0.6343,-0.6626,-0.6877,-0.7286,-0.7596,-0.7838,-0.8213,-0.8481,-0.8701,-0.8758,-0.8799,-0.8873,-0.8768,-0.8598,-0.7806,-0.7607,-0.7821,-0.8267,-0.8473,-0.8508,-0.8584,-0.8277,-0.7935,-0.7945,-0.7984,-0.804,-0.8423,-0.8619,-0.8822,-0.9228,-0.9228,-0.9432,-0.944,-0.951,-0.936,-0.9364,-0.9416,-0.9424,-0.9316,-0.9465,-0.9448,-1.7736,-1.7327,-1.7327,-1.7207,-1.7248,-1.6907,-1.7037,-1.7187,-1.6757,-1.6477,-1.6215,-1.6235,-1.6311,-1.632,-1.649,-1.6421,-1.5976,-1.5976,-1.5849,-1.5448,-1.5164,-1.5044,-1.5078,-1.4629,-1.4473,-1.4482,-1.4473,-1.462,-1.5069,-1.5371,-1.5665,-1.6095,-1.5474,-1.5232,-1.5202,0.0,0.0,0.0,-1.692,-1.7145,-1.7302,-1.7145,-1.6779,-1.6192,-1.5652,0.0,-1.425,-1.3654,-1.321,-1.2688,-1.2527,0.0,0.0,0.0,0.0,0.0,0.0,0.0,0.0,0.0,0.0,0.0,-0.526,-0.4673,-0.4013,-0.4244,-0.4791,-0.5209,-0.5233,-0.5446,-0.5887,-0.6121,-0.6353,-0.6912,-0.7062,-0.7383,-0.787,-0.8141,-0.8269,-0.8453,-0.8656,-0.8705,-0.8828,-0.8909,-0.8958,-0.8983,-0.906,-0.8916,-0.8712,-0.8708,-0.8719,-0.8932,-0.8988,-0.9064,-0.9148,-0.9172,-0.8799,-0.8607,-0.8615,-0.8438,-0.8246,-0.8438,-0.866,-0.891,-0.932,-0.9542,-0.9608,-0.9244,-0.9047,-0.9055,-0.8661,-0.8683,-0.9524,-0.9677,-0.9653,-1.7439,0.0,-1.7017,-1.6875,0.0,-1.6603,-1.6603,-1.6744,-1.6593,-1.6377,-1.6349,-1.6547,-1.6642,-1.6651,-1.6755,-1.6655,-1.6204,-1.6204,-1.6057,-1.5762,-1.5467,-1.5328,-1.5032,-1.4884,-1.458,-1.4432,-1.4432,-1.458,-1.5032,-1.5189,-1.5328,-1.5624,-1.5771,-1.5727,-1.5337,-1.4725,-1.477,-1.5605,-1.6195,-1.6545,-1.6638,-1.6545,-1.6204,-1.5901,0.0,0.0,0.0,0.0,0.0,0.0,0.0,0.0,0.0,0.0,0.0,-0.9736,-0.8949,-0.8434,-0.7916,-0.7331,-0.6989,-0.6735,-0.6362,-0.6026,-0.5402,-0.5455,-0.5566,-0.6045,-0.6062,-0.6295,-0.6798,-0.6855,-0.7106,-0.7432,-0.7559,-0.7686,-0.7806,-0.79,-0.7997,-0.8102,-0.8132,-0.8162,-0.8244,-0.8289,-0.8319,-0.8323,-0.839,-0.8443,-0.8443,-0.8829,-0.9224,-0.9265,-0.931,-0.9359,-0.9399,-0.9448,-0.9477,-0.9083,-0.9119,-0.9142,-0.8753,-0.875,-0.8765,-0.8806,-0.8813,-0.8828,-0.8858,-0.8672,-0.8471,-0.8471,-0.827,-0.8294,-0.8974,-0.8933,-0.9086,-1.7017,-1.6593,-1.6632,-1.651,-1.6235,-1.6282,-1.6292,-1.6292,0.0,0.0,0.0,-1.6764,-1.6859,-1.6859,-1.6897,-1.6758,-1.6462,-1.6462,-1.6314,-1.6017,-1.586,-1.5572,-1.5283,-1.5134,-1.4828,-1.4521,-1.4529,-1.4679,-1.4976,-1.4976,-1.4976,-1.5134,-1.6062,-1.6247,-1.5509,-1.5201,-1.4819,-1.4687,-1.5368,-1.5833,-1.5902,-1.5876,-1.5859,-1.5707,-1.4604,-1.3898,-1.3898,-1.2879,-1.23,-1.216,-1.203,-1.198,-1.1837,-1.1108,-1.0596,-1.0456,-0.9695,-0.9205,-0.9142,-0.8333,-0.7804,-0.7727,-0.7326,-0.7118,-0.6896,-0.6586,-0.6527,-0.673,-0.6759,-0.6855,-0.7394,-0.7278,-0.7377,-0.7585,-0.7681,-0.7585,-0.7313,-0.7378,-0.7442,-0.751,-0.7524,-0.7548,-0.7602,-0.7616,-0.7626,-0.7643,-0.7691,-0.7749,-0.7766,-0.854,-0.8946,-0.9017,-0.9036,-0.9044,-0.9072,-0.9119,-0.9166,-0.9173,-0.9228,-0.9476,-0.9279,-0.9078,-0.8877,-0.8665,-0.827,-0.8266,-0.8065,-0.8069,-0.8065,-0.7864,-0.7867,-0.7884,-0.7934,-0.7921,-0.8099,-1.6593,-1.6339,-1.6511,-1.6443,-1.6453,-1.6642,-1.6717,-1.6708,-1.6519,-1.6566,-1.6774,-1.6972,-1.7057,-1.7067,-1.7256,-1.7341,-1.7189,-1.7189,-1.7189,0.0,-1.6429,-1.6124,-1.5972,-1.5353,-1.5048,-1.4895,-1.4887,-1.4887,-1.5048,-1.504,-1.5201,-1.5497,-1.5345,-1.5267,-1.5098,-1.4959,-1.5187,-1.5309,-1.5204,-1.5375,-1.6005,-1.6026,-1.5638,-1.5302,-1.4789,-1.4295,-1.3537,-1.3208,-1.2823,-1.2086,-1.223,-1.2162,-1.1717,-1.1378,-1.0992,-1.0697,-1.0191,-0.9955,-0.9499,-0.9123,-0.8545,-0.7919,-0.7774,-0.7733,-0.779,-0.7684,-0.7609,-0.7725,-0.7466,-0.7383,-0.7499,-0.7281,-0.7051,-0.7149,-0.7228,-0.7323,-0.7452,-0.7483,-0.7521,-0.7589,-0.7606,-0.7606,-0.7433,-0.7626,-0.7459,-0.7701,-0.7549,-0.7783,-0.7685,-0.7871,-0.8064,-0.8123,-0.8144,-0.8169,-0.8407,-0.8238,-0.8446,-0.8252,-0.8457,-0.8471,-0.8471,-0.827,-0.827,-0.827,-0.8069,-0.8069,-0.8065,-0.7666,-0.7465,-0.7465,-0.7065,-0.6872,-0.6887,-0.6913,-0.7164,-1.6387,-1.6349,-1.6443,-1.6547,-1.666,-1.6462,-1.6573,-1.6666,-1.6277,-1.6434,-1.6982,-1.718,-1.7275,-1.7284,-1.7379,-1.7273,-1.7121,-1.7111,-1.7023,-1.6816,-1.6507,-1.6259,-1.619,-1.573,-1.536,-1.5122,-1.5114,-1.5057,-1.4976,-1.4968,-1.5122,-1.5283,-1.5212,-1.5195,-1.5042,-1.5382,-1.5638,-1.5811,-1.5556,-1.5499,-1.5822,-1.5748,-1.5548,-1.5382,-1.4664,-1.4222,-1.3752,-1.3144,-1.2602,-1.2298,-1.2447,-1.2373,-1.1908,-1.1723,-1.133,-1.0855,-1.065,-1.0394,-1.0072,-0.9524,-0.893,-0.8107,-0.7942,-0.7925,-0.8052,-0.7876,-0.7769,-0.7733,-0.7484,-0.7413,-0.7356,-0.7119,-0.7051,-0.6794,-0.6835,-0.6892,-0.6792,-0.681,-0.6825,-0.6853,-0.6859,-0.6871,-0.6911,-0.6914,-0.6939,-0.7003,-0.7043,-0.711,-0.7205,-0.7193,-0.7383,-0.7811,-0.8018,-0.8028,-0.8062,-0.8065,-0.8065,-0.8065,-0.8065,-0.8065,-0.8065,-0.7867,-0.7666,-0.7666,-0.7465,-0.7267,-0.7267,-0.7065,-0.6864,-0.6864,-0.6662,-0.6463,-0.6472,-0.6531,-0.6808,-1.6131,-1.6127,-1.6374,-1.6561,-1.6647,-1.6341,-1.6292,-1.6428,-1.6126,-1.6277,-1.6898,-1.7056,-1.7121,-1.7121,-1.7121,-1.6968,-1.6662,-1.6699,-1.6653,-1.6476,-1.6372,-1.632,-1.6123,-1.5981,-1.5748,-1.5317,-1.5301,-1.5228,-1.5106,-1.509,-1.4935,-1.4951,-1.508,-1.5074,-1.5249,-1.5593,-1.5844,-1.565,-1.5546,-1.5473,-1.5473,-1.5473,-1.5473,-1.5297,-1.4533,-1.4139,-1.398,-1.3239,-1.2862,-1.2712,-1.2661,-1.2562,-1.225,-1.1863,-1.1451,-1.1161,-1.0919,-1.065,-1.0346,-0.9761,-0.8968,-0.829,-0.8121,-0.8125,-0.8117,-0.8085,-0.7933,-0.754,-0.7465,-0.7406,-0.6998,-0.6919,-0.6832,-0.6562,-0.6585,-0.6421,-0.6087,-0.6098,-0.6098,-0.6098,-0.6109,-0.6136,-0.6177,-0.6202,-0.6234,-0.6292,-0.6352,-0.6409,-0.6452,-0.6463,-0.6864,-0.7465,-0.7666,-0.7663,-0.7666,-0.7666,-0.7666,-0.7666,-0.7666,-0.7666,-0.7666,-0.7264,-0.7062,-0.7062,-0.6864,-0.6662,-0.6461,-0.6461,-0.6461,-0.6461,-0.6463,-0.6472,-0.651,-0.6367,-0.664,-1.5364,-1.5274,-1.5903,-1.6283,-1.6277,-1.6142,-1.6151,-1.6168,-1.6177,-1.6177,-1.6168,-1.6348,-1.6357,-1.6357,-1.6357,-1.6357,-1.6221,-1.6379,-1.6467,-1.6355,-1.6196,-1.6123,-1.5998,-1.568,-1.5504,-1.5488,-1.5488,-1.5313,-1.5272,-1.4963,-1.482,-1.5003,-1.4525,-1.4784,-1.578,-1.5634,-1.5373,-1.4848,-1.4841,-1.4998,-1.5162,-1.5334,-1.517,-1.4833,-1.4653,-1.4489,-1.4138,-1.3988,-1.3809,-1.3322,-1.2821,-1.2675,-1.251,-1.186,-1.1421,-1.153,-1.1047,-1.0588,-0.9826,-0.9334,-0.8818,-0.8309,-0.8301,-0.8301,-0.8309,-0.8375,-0.8213,-0.7686,-0.7251,-0.7008,-0.6543,-0.6293,-0.6179,-0.6196,-0.6244,-0.6093,-0.6093,-0.6098,-0.6098,-0.6098,-0.6145,-0.6183,-0.6202,-0.6051,-0.6297,-0.6156,-0.6206,-0.6243,-0.6256,-0.6259,-0.6259,-0.6662,-0.6662,-0.6662,-0.6662,-0.6662,-0.6864,-0.6662,-0.6662,-0.6864,-0.6864,-0.6662,-0.6662,-0.6662,-0.6662,-0.6461,-0.6463,-0.6463,-0.6463,-0.6463,-0.6472,-0.6493,-0.6586,-0.6218,-0.6244,-1.5274,-1.5246,-1.5363,-1.5693,-1.6177,-1.5744,-1.5429,-1.5437,-1.4976,-1.4661,-1.4661,-1.4661,-1.5283,-1.6203,-1.6203,-1.605,-1.5906,-1.6095,-1.5929,-1.5565,-1.5425,-1.54,-1.5325,-1.5171,-1.4962,-1.4869,-1.4869,-1.4815,-1.4723,-1.4548,-1.4441,-1.4532,-1.4378,-1.446,-1.4437,-1.4795,-1.4653,-1.4024,-1.3858,-1.4038,-1.421,-1.4713,-1.4878,-1.4713,-1.439,-1.4225,-1.4066,-1.3901,-1.3403,-1.3072,-1.2817,-1.2527,-1.2023,-1.1757,-1.1487,-1.1367,-1.0859,-1.0189,-0.9366,-0.9025,-0.8852,-0.8334,-0.8334,-0.8354,-0.8415,-0.8144,-0.7859,-0.7577,-0.7272,-0.6971,-0.6302,-0.6201,-0.6052,-0.6027,-0.6063,-0.6085,-0.6052,-0.6079,-0.5919,-0.5764,-0.5789,-0.5641,-0.5502,-0.5358,-0.5395,-0.542,-0.5443,-0.5452,-0.5452,-0.5452,-0.5452,-0.5452,-0.5856,-0.6259,-0.6461,-0.6463,-0.6463,-0.6463,-0.6463,-0.6463,-0.6463,-0.6463,-0.6463,-0.6463,-0.6461,-0.6461,-0.6463,-0.6463,-0.6463,-0.6474,-0.6096,-0.6132,-0.6208,-0.5625,-0.5454,-1.4854,-1.4694,-1.462,-1.4935,-1.5429,-1.4968,-1.4661,-1.4507,-1.4045,-1.359,-1.359,-1.3583,-1.4199,-1.5122,-1.5437,-1.5308,-1.522,-1.5392,-1.5256,-1.4784,-1.4962,-1.4929,-1.4706,-1.4713,-1.4653,-1.4564,-1.4549,-1.4482,-1.4216,-1.4202,-1.4106,-1.4037,-1.4052,-1.361,-1.3184,-1.388,-1.3887,-1.3032,-1.3032,-1.3039,-1.3052,-1.3721,-1.4052,-1.4052,-1.3894,-1.3735,-1.3569,-1.3271,-1.2958,-1.2631,-1.2596,-1.2331,-1.1652,-1.1567,-1.1463,-1.0977,-1.0488,-0.9807,-0.9105,-0.8931,-0.8756,-0.8407,-0.8233,-0.8261,-0.8329,-0.7874,-0.761,-0.7154,-0.7204,-0.687,-0.6196,-0.6052,-0.6049,-0.5816,-0.585,-0.5866,-0.5646,-0.5695,-0.5567,-0.5218,-0.5252,-0.5102,-0.4782,-0.4823,-0.4843,-0.4845,-0.4847,-0.4847,-0.4847,-0.4847,-0.4847,-0.4847,-0.5251,-0.5652,-0.6259,-0.6461,-0.6461,-0.6463,-0.6463,-0.6463,-0.6463,-0.6463,-0.6259,-0.6259,-0.6259,-0.606,-0.5861,-0.5861,-0.6101,-0.5925,-0.5754,-0.559,-0.565,-0.5048,-0.4861,-1.3499,-1.2964,-1.3118,-1.3597,-1.3737,-1.3744,-1.3744,-1.3737,-1.3583,-1.3428,-1.312,-1.3127,-1.2965,-1.2811,-1.359,-1.3981,-1.414,-1.429,-1.4288,-1.446,-1.4624,-1.4706,-1.4713,-1.4713,-1.4706,-1.4518,-1.4354,-1.4354,-1.4024,-1.4031,-1.388,-1.3383,-1.3045,-1.2548,-1.2388,-1.3078,-1.2919,-1.2056,-1.2056,-1.2235,-1.2235,-1.2235,-1.2567,-1.2733,-1.2733,-1.2567,-1.2247,-1.2191,-1.2258,-1.2264,-1.2051,-1.1784,-1.1784,-1.1279,-1.0993,-1.0559,-0.9782,-0.9299,-0.9295,-0.8757,-0.8583,-0.8587,-0.8037,-0.7874,-0.7885,-0.7588,-0.7101,-0.6565,-0.6626,-0.6502,-0.5989,-0.5818,-0.5808,-0.5389,-0.5234,-0.5073,-0.4698,-0.4774,-0.4633,-0.4657,-0.4718,-0.4581,-0.4634,-0.4845,-0.4645,-0.4645,-0.4645,-0.4645,-0.4645,-0.4645,-0.4645,-0.4645,-0.4847,-0.5049,-0.5652,-0.5856,-0.6259,-0.6259,-0.6057,-0.6259,-0.6463,-0.6461,-0.6057,-0.5858,-0.5863,-0.5464,-0.506,-0.5092,-0.5145,-0.5187,-0.5241,-0.507,-0.5058,-0.4668,-0.426,-1.2605,-1.1596,-1.2251,-1.2775,-1.2958,-1.2656,-1.2501,-1.2501,-1.2192,-1.2037,-1.2037,-1.1882,-1.1882,-1.1727,-1.2037,-1.2583,-1.3211,-1.3359,-1.3346,-1.318,-1.3329,-1.3231,-1.3058,-1.3058,-1.3065,-1.3058,-1.3065,-1.2899,-1.2899,-1.274,-1.2906,-1.274,-1.2567,-1.2063,-1.1896,-1.2241,-1.2241,-1.1902,-1.1558,-1.1558,-1.2069,-1.2069,-1.2069,-1.1902,-1.2235,-1.2235,-1.2069,-1.2197,-1.2107,-1.1769,-1.179,-1.1558,-1.1047,-1.0585,-1.0288,-0.9796,-0.9477,-0.9143,-0.8786,-0.8425,-0.8067,-0.8067,-0.771,-0.7373,-0.7418,-0.7087,-0.6756,-0.6614,-0.6086,-0.5734,-0.5534,-0.5374,-0.5203,-0.4823,-0.4668,-0.4693,-0.4524,-0.4586,-0.4459,-0.4299,-0.397,-0.3822,-0.3832,-0.3836,-0.3836,-0.3836,-0.3836,-0.3836,-0.3836,-0.3836,-0.3836,-0.3836,-0.4038,-0.4442,-0.4442,-0.5049,-0.5452,-0.5452,-0.5452,-0.5452,-0.5452,-0.5452,-0.5251,-0.5255,-0.5262,-0.5083,-0.4683,-0.4722,-0.4773,-0.4802,-0.4644,-0.4469,-0.4439,-0.4045,-0.384,-1.1537,-1.0847,-1.1454,-1.19,-1.203,-1.1727,-1.1417,-1.1417,-1.1107,-1.0796,-1.0641,-1.0641,-1.0641,-1.0486,-1.0486,-1.0867,-1.1628,-1.2243,-1.2404,-1.2421,-1.2523,-1.2401,-1.2069,-1.2069,-1.2069,-1.2069,-1.2069,-1.2069,-1.2069,-1.2069,-1.2241,-1.2407,-1.2069,-1.1736,-1.1564,-1.157,-1.157,-1.1397,-1.0721,-1.0721,-1.1403,-1.1237,-1.107,-1.0904,-1.107,-1.1426,-1.1634,-1.1594,-1.151,-1.1395,-1.1226,-1.0978,-1.046,-0.9992,-0.9674,-0.9317,-0.896,-0.8782,-0.8425,-0.7889,-0.771,-0.771,-0.7173,-0.7018,-0.7064,-0.6344,-0.6183,-0.6033,-0.5495,-0.493,-0.473,-0.4744,-0.4587,-0.4238,-0.4275,-0.4125,-0.4153,-0.4036,-0.3907,-0.3762,-0.3404,-0.3228,-0.3231,-0.3231,-0.3231,-0.3231,-0.3231,-0.3231,-0.3231,-0.3231,-0.3231,-0.3231,-0.3433,-0.3636,-0.3838,-0.4242,-0.4645,-0.4847,-0.4847,-0.4847,-0.4645,-0.4645,-0.4647,-0.4651,-0.4464,-0.449,-0.4522,-0.4349,-0.4378,-0.4401,-0.4249,-0.4087,-0.3855,-0.3845,-0.3419,-1.0589,-1.0571,-1.086,-1.0998,-1.1101,-1.0641,-1.0641,-1.0486,-1.0175,-0.9864,-0.9553,-0.9402,-0.9402,-0.8934,-0.909,-0.8988,-0.957,-1.0804,-1.1637,-1.1854,-1.189,-1.1902,-1.1902,-1.1736,-1.1736,-1.1736,-1.1902,-1.1902,-1.1902,-1.1736,-1.1902,-1.1902,-1.1403,-1.1237,-1.1403,-1.0904,-1.0737,-1.057,-0.9893,-0.9731,-1.007,-0.9903,-0.9574,-0.9574,-0.9579,-0.9968,-1.0916,-1.0688,-1.0615,-1.0549,-1.0313,-1.0026,-1.0016,-0.9496,-0.9322,-0.9139,-0.8425,-0.7889,-0.7885,-0.7531,-0.7173,-0.7173,-0.6812,-0.6458,-0.6287,-0.557,-0.5034,-0.5039,-0.4679,-0.4132,-0.3775,-0.3782,-0.3619,-0.3645,-0.3692,-0.3555,-0.3239,-0.3107,-0.3165,-0.3213,-0.303,-0.3232,-0.3234,-0.303,-0.303,-0.303,-0.3032,-0.3032,-0.303,-0.2828,-0.3032,-0.3032,-0.303,-0.303,-0.303,-0.3234,-0.3838,-0.4242,-0.4444,-0.4444,-0.4444,-0.4444,-0.4242,-0.4043,-0.4059,-0.3878,-0.3924,-0.3748,-0.3788,-0.3816,-0.3656,-0.3457,-0.3442,-0.3425,-0.3209,-0.9025,-0.9081,-0.9269,-0.9521,-0.9558,-0.9402,-0.9402,-0.9397,-0.9246,-0.909,-0.8934,-0.8934,-0.8934,-0.8778,-0.8778,-0.8831,-0.9089,-0.9682,-0.9978,-1.0112,-1.02,-1.0237,-1.0237,-1.0237,-1.0237,-1.0237,-1.0237,-1.0237,-1.0237,-1.0237,-1.0242,-1.0237,-1.007,-1.007,-1.007,-1.0414,-1.0414,-0.9903,-0.9569,-0.9569,-0.9569,-0.9407,-0.9407,-0.9412,-0.9473,-0.9734,-1.0002,-1.0042,-0.9937,-1.0049,-0.9973,-0.9852,-0.95,-0.8782,-0.8425,-0.8246,-0.771,-0.7352,-0.7352,-0.6991,-0.6633,-0.6633,-0.5918,-0.5739,-0.5741,-0.5022,-0.4487,-0.4307,-0.3949,-0.3768,-0.3592,-0.3253,-0.3097,-0.3129,-0.316,-0.3205,-0.308,-0.3138,-0.2788,-0.2216,-0.202,-0.202,-0.202,-0.202,-0.202,-0.202,-0.202,-0.202,-0.202,-0.202,-0.202,-0.202,-0.202,-0.202,-0.202,-0.2222,-0.2626,-0.3232,-0.3434,-0.3636,-0.3636,-0.3636,-0.3636,-0.3439,-0.345,-0.327,-0.3309,-0.313,-0.3157,-0.339,-0.3195,-0.3204,-0.3423,-0.3209,-0.2993,-0.7972,-0.7871,-0.8184,-0.8279,-0.8306,-0.8306,-0.831,-0.831,-0.831,-0.831,-0.831,-0.831,-0.8154,-0.8154,-0.8154,-0.8028,-0.8089,-0.802,-0.8114,-0.8384,-0.9179,-0.9402,-0.9407,-0.9407,-0.9407,-0.9407,-0.9407,-0.9407,-0.9407,-0.9407,-0.9407,-0.9407,-0.9407,-0.9407,-0.9407,-0.9913,-0.9913,-0.9407,-0.9068,-0.9068,-0.9068,-0.8901,-0.8901,-0.8914,-0.9,-0.8924,-0.9016,-0.9056,-0.9297,-0.9568,-0.9464,-0.9134,-0.8782,-0.8067,-0.771,-0.7531,-0.7173,-0.6994,-0.6815,-0.6276,-0.5918,-0.5736,-0.5201,-0.5025,-0.5025,-0.4487,-0.3953,-0.3789,-0.3611,-0.3435,-0.327,-0.3103,-0.295,-0.2991,-0.3011,-0.2864,-0.2728,-0.2975,-0.3007,-0.222,-0.1616,-0.1212,-0.101,-0.101,-0.101,-0.101,-0.101,-0.101,-0.101,-0.101,-0.101,-0.101,-0.101,-0.101,-0.101,-0.1212,-0.1616,-0.202,-0.2424,-0.2424,-0.2626,-0.2626,-0.2626,-0.2425,-0.2432,-0.2443,-0.2468,-0.2481,-0.2498,-0.2723,-0.2742,-0.2962,-0.2972,-0.2985,-0.2773,-0.7166,-0.7252,-0.7346,-0.7427,-0.7337,-0.7349,-0.7509,-0.7357,-0.7369,-0.7369,-0.7369,-0.7525,-0.7217,-0.6904,-0.706,-0.6908,-0.6445,-0.6677,-0.6752,-0.717,-0.8119,-0.9049,-0.9068,-0.9068,-0.9068,-0.9235,-0.924,-0.9235,-0.9235,-0.9235,-0.9407,-0.924,-0.9235,-0.924,-0.924,-0.924,-0.924,-0.9072,-0.8399,-0.8399,-0.8571,-0.8232,-0.8064,-0.8068,-0.8162,-0.7913,-0.7811,-0.7899,-0.8333,-0.8943,-0.8421,-0.8067,-0.7885,-0.7352,-0.7173,-0.6994,-0.6633,-0.6276,-0.6097,-0.5559,-0.5022,-0.5022,-0.4673,-0.4491,-0.4677,-0.415,-0.3621,-0.3646,-0.3283,-0.2928,-0.2949,-0.2962,-0.2991,-0.3044,-0.3066,-0.2717,-0.1985,-0.241,-0.242,-0.2423,-0.1212,-0.0,-0.0,-0.0,0.0404,0.0202,0.0202,-0.0,-0.0,-0.0,-0.0,-0.0,-0.0,-0.0,-0.0,-0.0202,-0.0404,-0.0404,-0.0808,-0.1212,-0.0,-0.0,-0.0,-0.1415,-0.0,-0.0,-0.0,-0.0,-0.0,-0.1665,-0.1883,-0.231,-0.0,-0.0,-0.0,-0.5948,-0.5972,-0.6351,-0.6398,-0.6427,-0.6477,-0.6505,-0.6512,-0.6562,-0.6736,-0.6584,-0.6587,-0.6587,-0.6431,-0.6431,-0.6427,-0.6292,-0.6349,-0.639,-0.6438,-0.6902,-0.7504,-0.7885,-0.7897,-0.8064,-0.8399,-0.8399,-0.8395,-0.8399,-0.8399,-0.8399,-0.8399,-0.8399,-0.8399,-0.8399,-0.8399,-0.8232,-0.8064,-0.8068,-0.7733,-0.7398,-0.7398,-0.723,-0.7073,-0.7191,-0.7266,-0.7132,-0.7251,-0.7506,-0.7706,-0.7531,-0.7352,-0.7352,-0.6812,-0.6454,-0.6099,-0.5739,-0.5201,-0.5025,-0.4666,-0.4485,-0.4489,-0.3975,-0.3994,-0.4361,-0.3657,-0.3306,-0.3134,-0.3134,-0.2953,-0.2964,-0.2984,-0.3032,-0.3104,-0.2937,-0.277,-0.2405,-0.1614,-0.0808,-0.0808,-0.0202,-0.0,-0.0,0.1212,0.202,0.202,0.1616,0.1212,0.1212,0.1212,0.1212,0.1212,0.1212,0.1212,0.1212,0.101,0.101,0.101,0.0808,0.0404,-0.0,-0.0,-0.0,-0.0404,-0.0,-0.0,-0.0,-0.0,-0.0,-0.0,-0.0,-0.0,-0.0,-0.0,-0.0,-0.4583,-0.4607,-0.4943,-0.5124,-0.5301,-0.5492,-0.5816,-0.5982,-0.6196,-0.6227,-0.6234,-0.6264,-0.6275,-0.6118,-0.6118,-0.5962,-0.5811,-0.5846,-0.5881,-0.5931,-0.6057,-0.6487,-0.7045,-0.7063,-0.7227,-0.7562,-0.7562,-0.7562,-0.7562,-0.7562,-0.7562,-0.7562,-0.7562,-0.7562,-0.7562,-0.7729,-0.7566,-0.723,-0.723,-0.7063,-0.6727,-0.6899,-0.6899,-0.6758,-0.6867,-0.6792,-0.6514,-0.6062,-0.6279,-0.6815,-0.6815,-0.6637,-0.6458,-0.5918,-0.538,-0.5025,-0.4843,-0.4666,-0.4307,-0.4128,-0.3947,-0.3954,-0.3624,-0.3459,-0.3651,-0.3313,-0.2964,-0.2979,-0.298,-0.2987,-0.3005,-0.3037,-0.3092,-0.2952,-0.2392,-0.1808,-0.1818,-0.0808,0.0404,0.101,0.1414,0.101,0.0808,0.1818,0.2626,0.283,0.2626,0.2424,0.2222,0.2222,0.2222,0.2222,0.2222,0.2222,0.2222,0.202,0.1818,0.202,0.1818,0.1616,-0.0,-0.0,-0.0,-0.0,-0.0,-0.0,-0.0,-0.0,-0.0,-0.0,-0.0,-0.0,-0.0,-0.0,-0.0,-0.3378,-0.3413,-0.3561,-0.3882,-0.4216,-0.453,-0.4985,-0.5449,-0.5663,-0.6002,-0.6012,-0.6068,-0.5926,-0.5642,-0.5627,-0.5483,-0.5022,-0.5184,-0.5221,-0.5125,-0.5375,-0.5625,-0.6196,-0.6553,-0.6724,-0.6895,-0.6727,-0.6727,-0.6895,-0.6727,-0.6727,-0.6895,-0.6727,-0.6727,-0.6895,-0.6895,-0.6895,-0.656,-0.6053,-0.6053,-0.6053,-0.6053,-0.6053,-0.6074,-0.6185,-0.6138,-0.5517,-0.5025,-0.5204,-0.6815,-0.6099,-0.5562,-0.5383,-0.4666,-0.4307,-0.4307,-0.4307,-0.4128,-0.4128,-0.3769,-0.3593,-0.3424,-0.3088,-0.2923,-0.312,-0.2964,-0.299,-0.301,-0.3011,-0.2835,-0.3054,-0.2911,-0.2161,-0.1788,-0.0401,0.0202,0.0202,0.0202,0.101,0.2626,0.3032,0.2626,0.2222,0.1818,0.2222,0.3032,0.303,0.2828,0.2828,0.2828,0.2828,0.2828,0.303,0.3032,0.3032,0.3032,0.303,0.2828,0.2828,0.2424,0.1414,-0.0,-0.0,-0.0,-0.0,-0.0,-0.0,-0.0,-0.0,-0.0,-0.0,-0.0,-0.0,-0.0,-0.0,-0.2629,-0.2636,-0.3222,-0.352,-0.3682,-0.3864,-0.4178,-0.4479,-0.4686,-0.4864,-0.5021,-0.5185,-0.5066,-0.5108,-0.5114,-0.4978,-0.4857,-0.4865,-0.5055,-0.5109,-0.4813,-0.473,-0.5303,-0.5858,-0.6389,-0.656,-0.6727,-0.6727,-0.656,-0.656,-0.6727,-0.656,-0.6392,-0.6727,-0.656,-0.6053,-0.5717,-0.5549,-0.4878,-0.4707,-0.4707,-0.4539,-0.4542,-0.4726,-0.4815,-0.4742,-0.4644,-0.4487,-0.4487,-0.4666,-0.4666,-0.4666,-0.4666,-0.4307,-0.4128,-0.3769,-0.3769,-0.359,-0.3231,-0.3234,-0.3063,-0.3085,-0.3114,-0.2962,-0.2988,-0.3011,-0.3031,-0.2853,-0.2472,-0.2289,-0.2314,-0.1365,-0.0395,0.0996,0.1808,0.202,0.1616,0.202,0.2222,0.2222,0.2828,0.3032,0.2828,0.2828,0.3032,0.3234,0.3232,0.3231,0.3231,0.3231,0.3231,0.3232,0.3232,0.3232,0.3232,0.3232,0.3232,0.3232,0.3232,0.3232,0.2221,0.1616,0.1212,-0.0,-0.0,-0.0,-0.0,-0.0,-0.0,-0.0,-0.0,-0.0,-0.0,-0.0,-0.0,-0.2042,-0.2333,-0.2771,-0.3063,-0.3212,-0.3233,-0.3537,-0.384,-0.3882,-0.4054,-0.4211,-0.4226,-0.4257,-0.4283,-0.4307,-0.4335,-0.4357,-0.4385,-0.4424,-0.4471,-0.4342,-0.4234,-0.4294,-0.4846,-0.5214,-0.5382,-0.5382,-0.5382,-0.5382,-0.5549,-0.5382,-0.5382,-0.5549,-0.5382,-0.5382,-0.5043,-0.4707,-0.4707,-0.4372,-0.4036,-0.4036,-0.3868,-0.3897,-0.4101,-0.4168,-0.424,-0.4299,-0.3771,-0.3592,-0.3592,-0.3592,-0.3771,-0.3949,-0.3769,-0.3592,-0.3411,-0.3231,-0.3231,-0.2874,-0.2876,-0.2886,-0.2916,-0.2946,-0.2975,-0.2817,-0.2654,-0.2669,-0.2862,-0.2482,-0.1917,-0.0389,0.059,0.1985,0.2202,0.3021,0.2828,0.2626,0.283,0.3032,0.2626,0.283,0.303,0.3232,0.3232,0.3232,0.3232,0.3232,0.3231,0.3231,0.3231,0.3231,0.3231,0.3231,0.3231,0.3231,0.3231,0.3231,0.3231,0.3231,0.3231,0.2827,0.2423,0.2221,-0.0,-0.0,-0.0,-0.0,-0.0,-0.0,-0.0,-0.0,-0.0,-0.0,-0.0,-0.0,-0.1452,-0.2035,-0.2177,-0.2467,-0.2763,-0.2763,-0.3059,-0.3216,-0.3401,-0.3425,-0.3574,-0.3608,-0.3776,-0.3793,-0.3825,-0.3692,-0.3721,-0.3903,-0.3948,-0.3978,-0.4023,-0.3907,-0.3956,-0.3997,-0.386,-0.3866,-0.4204,-0.4204,-0.4204,-0.4036,-0.4372,-0.4036,-0.4206,-0.4374,-0.4206,-0.4036,-0.4036,-0.4204,-0.3868,-0.37,-0.37,-0.3701,-0.3739,-0.3635,-0.3507,-0.3547,-0.3403,-0.3053,-0.2694,-0.2694,-0.2694,-0.3053,-0.3411,-0.3053,-0.2694,-0.2694,-0.2694,-0.2515,-0.2515,-0.2517,-0.2528,-0.2739,-0.2763,-0.2794,-0.2635,-0.1897,-0.1333,-0.1527,-0.1339,-0.0578,0.2352,0.277,0.2598,0.2417,0.2828,0.3032,0.3234,0.3234,0.3232,0.3232,0.303,0.3232,0.3231,0.3231,0.3231,0.323,0.323,0.323,0.323,0.323,0.323,0.323,0.323,0.323,0.323,0.323,0.323,0.323,0.323,0.323,0.323,0.3029,0.2626,0.2836,-0.0,0.143,0.1029,-0.0,-0.0,-0.0,-0.0,-0.0,-0.0,-0.0,-0.0,-0.0284,-0.043,-0.1703,-0.2274,-0.2439,-0.2441,-0.2455,-0.2483,-0.251,-0.2823,-0.3272,-0.3429,-0.3606,-0.378,-0.3944,-0.3839,-0.358,-0.3448,-0.3617,-0.3634,-0.3674,-0.3719,-0.3598,-0.3144,-0.2837,-0.3191,-0.3532,-0.37,-0.3868,-0.4036,-0.3868,-0.4038,-0.4206,-0.4208,-0.404,-0.4208,-0.3701,-0.3533,-0.3197,-0.2859,-0.2859,-0.304,-0.2554,-0.2085,-0.1759,-0.1778,-0.1791,-0.1795,-0.1617,-0.1617,-0.1617,-0.2154,-0.2513,-0.1976,-0.1616,-0.1436,-0.1436,-0.1257,-0.1436,-0.1617,-0.1634,-0.1654,-0.1482,-0.2057,-0.2271,-0.1333,-0.0,0.1147,0.0961,0.1164,0.1765,0.2777,0.3201,0.3023,0.303,0.3234,0.3434,0.3635,0.3636,0.3434,0.3433,0.3231,0.3433,0.3433,0.3231,0.3231,0.323,0.323,0.323,0.323,0.323,0.323,0.323,0.323,0.323,0.323,0.323,0.323,0.323,0.323,0.323,0.323,0.3234,0.3037,0.3056,0.2669,0.2278,0.1881,0.1685,0.1483,0.1488,0.1492,0.1492,0.1492,0.1492,-0.0,-0.0142,-0.085,-0.1417,-0.17,-0.1699,-0.1713,-0.1735,-0.1757,-0.2217,-0.2678,-0.2844,-0.2999,-0.3007,-0.2722,-0.2603,-0.2482,-0.2508,-0.2511,-0.2519,-0.2545,-0.2575,-0.2604,-0.2141,-0.1998,-0.2013,-0.2355,-0.2861,-0.3365,-0.3363,-0.3363,-0.3363,-0.3533,-0.3365,-0.2861,-0.2524,-0.2524,-0.2524,-0.2187,-0.202,-0.2023,-0.2377,-0.1896,-0.0696,0.0353,0.0536,0.0179,-0.0,-0.0,-0.0,-0.0,-0.018,-0.0359,-0.0359,0.018,0.0539,0.0718,0.0539,0.018,-0.0,0.0182,0.0185,-0.0,-0.0188,-0.038,0.0381,0.1526,0.2488,0.2904,0.2345,0.2553,0.2986,0.3215,0.3227,0.3434,0.3635,0.3635,0.4038,0.4038,0.4038,0.4242,0.404,0.3635,0.3635,0.3433,0.3433,0.3231,0.323,0.323,0.323,0.323,0.323,0.3231,0.3231,0.3433,0.3433,0.3433,0.3433,0.3433,0.3433,0.3433,0.3433,0.3231,0.3234,0.3261,0.3505,0.3117,0.2725,0.2537,0.2554,0.2556,0.2345,0.2558,0.2558,0.2558,0.0422,0.0421,0.0424,-0.0,-0.0702,-0.0701,-0.0706,-0.0714,-0.0868,-0.1173,-0.1784,-0.1801,-0.1805,-0.1653,-0.1208,-0.0762,-0.0772,-0.078,-0.0783,-0.0787,-0.0795,-0.0804,-0.0814,-0.0823,-0.0666,-0.0672,-0.1352,-0.1686,-0.2188,-0.2355,-0.2355,-0.2524,-0.2524,-0.2356,-0.202,-0.1009,-0.0842,-0.0505,-0.0673,-0.0842,-0.1017,-0.1376,-0.1219,0.0349,0.1955,0.2334,0.1616,0.1616,0.1616,0.1616,0.1617,0.1617,0.1617,0.1617,0.2156,0.2694,0.2874,0.2335,0.1981,0.1632,0.1647,0.1666,0.1682,0.1698,0.1711,0.1716,0.229,0.3069,0.33,0.3342,0.3555,0.3601,0.3628,0.3635,0.4038,0.424,0.4242,0.4645,0.4845,0.4845,0.5049,0.4847,0.4442,0.3836,0.3635,0.3433,0.3433,0.323,0.323,0.323,0.323,0.3231,0.3231,0.3433,0.3635,0.3836,0.3836,0.3836,0.3836,0.3836,0.3836,0.3635,0.3635,0.3639,0.3895,0.3938,0.3759,0.3363,0.318,0.2983,0.3198,0.3198,0.3198,0.2985,0.2985,0.204,0.1962,0.1943,0.1528,0.0841,0.0842,0.0842,0.0705,0.0428,0.0436,0.0148,-0.0149,-0.0302,-0.0153,0.0456,0.0916,0.0923,0.093,0.078,0.0786,0.0794,0.0804,0.0977,0.0988,0.0832,0.0673,-0.051,-0.1187,-0.1181,-0.1178,-0.1346,-0.1515,-0.202,-0.2527,-0.1515,0.0337,0.219,0.2021,0.1346,0.1014,0.1024,0.0864,0.1047,0.1411,0.2139,0.2874,0.2694,0.2694,0.2694,0.2694,0.2694,0.2694,0.2694,0.2694,0.2694,0.2874,0.2874,0.2875,0.2701,0.2725,0.2754,0.2782,0.2808,0.2832,0.2853,0.2865,0.3258,0.367,0.3905,0.3939,0.4367,0.4415,0.464,0.4645,0.4643,0.4645,0.4847,0.5251,0.5452,0.5654,0.5654,0.5452,0.5049,0.4442,0.4038,0.3836,0.3635,0.3433,0.3433,0.3433,0.3635,0.3635,0.3836,0.3836,0.4038,0.4038,0.4242,0.4444,0.4444,0.4444,0.4242,0.424,0.4444,0.4462,0.4522,0.4354,0.3956,0.3777,0.3396,0.3624,0.3837,0.3624,0.3411,0.3411,0.3624,0.2639,0.2195,0.2355,0.2094,0.1823,0.1684,0.1684,0.1688,0.1565,0.1446,0.1473,0.1495,0.1366,0.1382,0.184,0.1843,0.1853,0.1863,0.2032,0.1882,0.1899,0.1919,0.1948,0.2129,0.2149,0.1848,0.1358,0.1189,0.1014,0.0846,0.0847,0.0168,-0.0168,-0.0337,-0.0673,0.101,0.202,0.2356,0.2358,0.22,0.2224,0.2249,0.2273,0.2297,0.268,0.305,0.3231,0.3231,0.3411,0.359,0.3771,0.3771,0.3769,0.3769,0.3769,0.3769,0.3769,0.36,0.3443,0.3658,0.3692,0.373,0.3764,0.3607,0.3624,0.3834,0.4041,0.4252,0.4318,0.4557,0.4782,0.4821,0.4839,0.4847,0.5251,0.5248,0.5452,0.5856,0.6057,0.6259,0.6259,0.6057,0.5654,0.5251,0.4845,0.4442,0.424,0.424,0.424,0.4242,0.4242,0.4242,0.4444,0.4444,0.4444,0.4645,0.4645,0.4645,0.4645,0.4645,0.4645,0.4645,0.5049,0.4859,0.47,0.4532,0.4354,0.4197,0.4249,0.426,0.4476,0.4263,0.405,0.4263,0.448,0.3095,0.2538,0.2619,0.2651,0.2515,0.239,0.2391,0.2387,0.2259,0.2146,0.2191,0.239,0.2436,0.2455,0.2308,0.2313,0.247,0.2493,0.2507,0.2511,0.2521,0.2547,0.2419,0.2602,0.2632,0.2683,0.2381,0.2383,0.255,0.255,0.2039,0.1683,0.1514,0.1514,0.1514,0.185,0.2188,0.2524,0.2702,0.2722,0.2923,0.2953,0.3161,0.3191,0.3216,0.3411,0.3768,0.3768,0.3949,0.4128,0.4128,0.4128,0.4128,0.4128,0.4128,0.4128,0.4307,0.4326,0.4185,0.4228,0.4455,0.4496,0.4355,0.4194,0.4406,0.4819,0.5054,0.4879,0.4928,0.4974,0.52,0.5233,0.5446,0.5452,0.5654,0.5853,0.6055,0.6458,0.6662,0.6662,0.6662,0.6662,0.6259,0.6057,0.5654,0.5049,0.4847,0.4847,0.4847,0.4847,0.4847,0.4645,0.4847,0.5049,0.5049,0.5049,0.5049,0.5049,0.5049,0.5251,0.5251,0.5452,0.5452,0.5473,0.5094,0.5344,0.5395,0.5253,0.5101,0.4896,0.4689,0.4902,0.4902,0.5115,0.5117,0.3695,0.3373,0.3515,0.3439,0.3172,0.2968,0.2835,0.2663,0.2359,0.2248,0.2307,0.2379,0.2421,0.2436,0.2461,0.2473,0.2472,0.2472,0.2648,0.2665,0.2518,0.2694,0.2726,0.2756,0.2784,0.2824,0.2878,0.2733,0.2733,0.307,0.2718,0.2528,0.2356,0.2524,0.2524,0.2524,0.2691,0.2866,0.2884,0.3087,0.3294,0.3505,0.3719,0.4109,0.4124,0.4307,0.4307,0.4307,0.4307,0.4487,0.4487,0.4487,0.4487,0.4666,0.4666,0.4666,0.5025,0.5231,0.5098,0.4783,0.4444,0.4473,0.4526,0.4981,0.5202,0.5799,0.6048,0.5732,0.5769,0.5999,0.623,0.6461,0.6259,0.6461,0.6662,0.6659,0.6861,0.7062,0.7264,0.7267,0.7065,0.6864,0.6662,0.6461,0.6259,0.5654,0.5452,0.5251,0.5251,0.5251,0.5049,0.5049,0.545,0.5652,0.5652,0.5654,0.5856,0.5856,0.5856,0.6057,0.6259,0.6259,0.6057,0.6093,0.5925,0.618,0.6439,0.5876,0.5503,0.5317,0.5115,0.5541,0.5541,0.5541,0.5541,0.3841,0.3779,0.3911,0.3624,0.33,0.3223,0.2957,0.2808,0.2673,0.2549,0.2294,0.2363,0.2406,0.2431,0.2783,0.2806,0.2964,0.3276,0.3286,0.3292,0.3303,0.3322,0.3358,0.3396,0.3437,0.3317,0.338,0.3404,0.3555,0.3576,0.3566,0.3544,0.303,0.3029,0.3029,0.3365,0.3363,0.3542,0.3573,0.3784,0.3825,0.4042,0.4083,0.4303,0.4307,0.4485,0.4664,0.4664,0.4845,0.5025,0.5204,0.5204,0.5204,0.5383,0.5562,0.5562,0.5918,0.6131,0.6192,0.571,0.5394,0.5473,0.5535,0.5779,0.6395,0.7034,0.7292,0.7159,0.7,0.7035,0.7251,0.7465,0.7465,0.7465,0.7465,0.7465,0.7666,0.7867,0.7867,0.7867,0.7468,0.7267,0.6864,0.6662,0.6461,0.6259,0.6057,0.5856,0.5654,0.5654,0.5654,0.5452,0.5856,0.6057,0.6057,0.6259,0.6463,0.6463,0.6463,0.6463,0.6463,0.6463,0.6267,0.651,0.6556,0.6608,0.6449,0.6285,0.6118,0.595,0.5964,0.6179,0.6179,0.5967,0.5967,0.4015,0.3959,0.4038,0.3786,0.3528,0.3458,0.3361,0.3104,0.3117,0.2844,0.2566,0.2621,0.2672,0.287,0.3086,0.3286,0.3447,0.3607,0.3766,0.3768,0.3774,0.3788,0.3827,0.3872,0.3758,0.3805,0.3866,0.3895,0.3899,0.4248,0.4242,0.3891,0.3537,0.3365,0.3532,0.3868,0.4036,0.4046,0.4095,0.4306,0.4351,0.4408,0.4624,0.4664,0.4845,0.5025,0.538,0.5559,0.5739,0.592,0.6099,0.6099,0.6279,0.6454,0.6633,0.6815,0.7001,0.7211,0.7104,0.6835,0.6363,0.6263,0.6142,0.6574,0.7407,0.8085,0.8353,0.7997,0.8041,0.8065,0.8065,0.7864,0.7864,0.7867,0.7867,0.7867,0.827,0.827,0.827,0.827,0.8069,0.766,0.7009,0.6806,0.6623,0.6422,0.6225,0.6238,0.6259,0.6259,0.6259,0.6259,0.6259,0.6461,0.6463,0.6463,0.6463,0.6463,0.6463,0.6463,0.6463,0.6463,0.6485,0.6529,0.6575,0.6624,0.6887,0.6943,0.6774,0.6809,0.6815,0.6818,0.6605,0.6392,0.6605,0.4134,0.3948,0.3956,0.406,0.4094,0.3939,0.3899,0.3817,0.352,0.3369,0.3239,0.3286,0.3344,0.3425,0.3509,0.3727,0.3756,0.392,0.3925,0.3925,0.4081,0.3929,0.3963,0.4014,0.4234,0.4091,0.4332,0.4405,0.4259,0.4569,0.4403,0.4409,0.4218,0.4036,0.4036,0.4036,0.4036,0.405,0.4299,0.4507,0.4893,0.5142,0.5365,0.5557,0.5741,0.592,0.6276,0.6276,0.6458,0.6815,0.6815,0.6815,0.6994,0.6994,0.7173,0.7173,0.7352,0.7394,0.7292,0.7425,0.734,0.704,0.6728,0.6979,0.8228,0.891,0.9193,0.8632,0.8263,0.827,0.8266,0.8266,0.8266,0.8266,0.8471,0.8471,0.8672,0.8873,0.8873,0.8843,0.865,0.8442,0.7566,0.6934,0.6765,0.6578,0.6384,0.6406,0.6436,0.6447,0.6442,0.6463,0.6463,0.6463,0.6463,0.6463,0.6463,0.6463,0.6662,0.6662,0.6671,0.6881,0.671,0.6551,0.6817,0.7295,0.7351,0.7619,0.7435,0.7456,0.703,0.703,0.6818,0.703,0.7243,0.4096,0.3951,0.3951,0.4006,0.4109,0.4094,0.392,0.3707,0.3452,0.3336,0.3371,0.3412,0.3443,0.3514,0.3929,0.4169,0.419,0.4544,0.4552,0.4552,0.4552,0.4552,0.4584,0.4651,0.4712,0.491,0.4987,0.5053,0.5069,0.5053,0.5222,0.5398,0.5398,0.5216,0.4878,0.4712,0.489,0.4937,0.5176,0.5404,0.5978,0.605,0.6097,0.6637,0.6637,0.6815,0.6994,0.6994,0.7173,0.7352,0.7352,0.7352,0.7352,0.7531,0.771,0.771,0.7892,0.814,0.8255,0.8389,0.8101,0.7612,0.7301,0.7565,0.8622,0.93,0.9384,0.9252,0.907,0.9074,0.9275,0.9275,0.9275,0.9275,0.9275,0.9275,0.948,0.9476,0.9468,0.9205,0.8986,0.8551,0.7695,0.7241,0.7058,0.6886,0.6892,0.6544,0.6581,0.6598,0.6406,0.6447,0.6463,0.6463,0.6461,0.6662,0.6864,0.6864,0.6864,0.7062,0.7074,0.73,0.7362,0.7423,0.7698,0.7974,0.8025,0.8282,0.808,0.8096,0.8093,0.7881,0.7671,0.7884,0.8096,0.4196,0.3948,0.3951,0.397,0.4147,0.4134,0.4108,0.3927,0.3849,0.3746,0.3771,0.3827,0.4006,0.4204,0.4468,0.476,0.4932,0.528,0.5483,0.5486,0.5489,0.5489,0.5531,0.5614,0.568,0.5727,0.5811,0.5891,0.5894,0.5891,0.6059,0.6227,0.656,0.6053,0.5717,0.5726,0.5918,0.5978,0.6046,0.6286,0.6526,0.6767,0.6812,0.6994,0.7173,0.7173,0.7352,0.7531,0.7531,0.7531,0.771,0.771,0.7713,0.7892,0.8067,0.825,0.8469,0.8726,0.8848,0.8954,0.8669,0.8185,0.8071,0.8343,0.8814,0.9296,0.9583,0.9648,0.9673,0.9681,0.9681,0.9681,0.9681,0.9681,0.9673,0.9673,0.9665,0.9661,0.9612,0.9352,0.9091,0.8652,0.821,0.7759,0.7529,0.7359,0.7185,0.7052,0.6919,0.6751,0.6774,0.6814,0.7056,0.7065,0.7264,0.7264,0.7264,0.7062,0.7264,0.7468,0.7711,0.7744,0.8023,0.8304,0.8361,0.8419,0.8696,0.8946,0.9159,0.9155,0.9367,0.9155,0.8734,0.8734,0.8734,0.4558,0.394,0.3951,0.4074,0.4345,0.4348,0.4237,0.4395,0.4447,0.4439,0.4409,0.4521,0.4701,0.5164,0.529,0.5572,0.5832,0.6012,0.6062,0.6101,0.6115,0.6115,0.6158,0.6251,0.6149,0.638,0.6463,0.6372,0.6556,0.656,0.6727,0.6727,0.6895,0.6724,0.6727,0.6748,0.6789,0.6689,0.6762,0.701,0.7265,0.7317,0.7349,0.7531,0.7535,0.771,0.7889,0.7889,0.8071,0.825,0.8429,0.8607,0.8607,0.8607,0.8607,0.8628,0.8681,0.8754,0.886,0.895,0.9044,0.8751,0.8829,0.9112,0.9387,0.9461,0.9546,0.9624,0.9665,0.9673,0.9681,0.9681,0.9681,0.9673,0.9665,0.9657,0.964,0.9608,0.9546,0.9481,0.9412,0.8962,0.8514,0.8255,0.8042,0.8049,0.7893,0.7945,0.7824,0.7511,0.754,0.7579,0.7621,0.7861,0.7864,0.7867,0.7666,0.7465,0.7871,0.8082,0.8133,0.8396,0.8678,0.8958,0.8598,0.8864,0.9768,1.0004,1.0216,1.0428,1.0428,1.0216,0.958,0.9367,0.9367,0.4644,0.4249,0.4297,0.4589,0.49,0.4913,0.5069,0.5208,0.5195,0.5182,0.5227,0.5315,0.537,0.5517,0.57,0.5833,0.6074,0.6145,0.621,0.6247,0.6424,0.6271,0.6309,0.6532,0.6441,0.6516,0.6598,0.685,0.6885,0.7059,0.7227,0.723,0.7562,0.7729,0.7757,0.7792,0.7529,0.7432,0.7334,0.7582,0.7821,0.7874,0.7892,0.8071,0.8071,0.825,0.825,0.8429,0.8429,0.8607,0.8607,0.8607,0.8607,0.8607,0.8607,0.8607,0.8648,0.8701,0.884,0.8897,0.8979,0.9105,0.9175,0.9224,0.931,0.9403,0.9493,0.9575,0.9653,0.9677,0.9681,0.9681,0.9669,0.9653,0.9632,0.9599,0.9575,0.951,0.9448,0.9367,0.9301,0.9265,0.8813,0.8802,0.8592,0.858,0.8596,0.8653,0.8722,0.8431,0.8116,0.8155,0.8211,0.8464,0.8266,0.8065,0.8065,0.8069,0.8475,0.8903,0.8967,0.9243,0.9335,0.9612,0.9667,1.0357,1.1051,1.1276,1.1064,1.1276,1.1487,1.1064,1.064,1.0428,1.0428,0.4753,0.4343,0.478,0.4991,0.5347,0.5569,0.5705,0.5833,0.5566,0.5454,0.5505,0.5607,0.5789,0.5965,0.6112,0.6234,0.6458,0.669,0.6769,0.6829,0.6729,0.6896,0.6769,0.6982,0.7229,0.7309,0.7557,0.7987,0.771,0.7897,0.8232,0.8232,0.8566,0.8592,0.864,0.8548,0.8469,0.8197,0.7922,0.8168,0.8215,0.825,0.8429,0.8607,0.8607,0.8607,0.8607,0.8607,0.8607,0.8607,0.8607,0.8607,0.8607,0.8607,0.8607,0.8607,0.8615,0.889,0.9198,0.9237,0.9351,0.9651,0.9711,0.9742,0.9632,0.9726,0.964,0.9542,0.962,0.9681,0.9681,0.9677,0.9653,0.9628,0.9579,0.953,0.9473,0.9408,0.933,0.9244,0.9199,0.9171,0.9146,0.9146,0.9142,0.9332,0.9349,0.9581,0.9469,0.9176,0.8875,0.8746,0.881,0.9074,0.8873,0.8869,0.907,0.9472,0.9878,1.0121,0.9999,1.0061,1.0338,1.0639,1.0949,1.1419,1.1882,1.1901,1.1699,1.1911,1.2122,1.1911,1.1699,1.1487,1.1492,0.4746,0.4454,0.5032,0.553,0.5789,0.607,0.6304,0.6451,0.5851,0.5625,0.5656,0.5778,0.6122,0.6429,0.6532,0.6763,0.7001,0.7243,0.7333,0.7395,0.7644,0.7681,0.7706,0.808,0.815,0.8585,0.8852,0.8774,0.9207,0.9072,0.9072,0.9407,0.924,0.9263,0.9333,0.9112,0.8852,0.8918,0.8644,0.8538,0.8587,0.8607,0.8607,0.8607,0.8607,0.8607,0.8607,0.8607,0.8607,0.8607,0.8607,0.8607,0.8786,0.8786,0.8786,0.8786,0.8964,0.9251,0.9547,0.9605,1.0092,1.039,1.0659,1.0479,1.0353,1.0095,1.0024,0.9904,1.0184,1.0236,1.0245,1.0227,1.0201,1.0141,1.0076,1.0028,0.9976,0.9906,0.9824,0.9759,0.9742,0.9711,0.9711,0.9711,0.9711,0.9901,1.0131,1.0167,1.0248,0.9958,0.9845,0.9542,0.9811,0.9874,1.0079,1.0279,1.048,1.0881,1.1082,1.0932,1.0816,1.1074,1.153,1.1639,1.1744,1.1801,1.2055,1.2295,1.2324,1.2334,1.2545,1.2757,1.2762,1.2555,1.2161,0.4954,0.4993,0.5556,0.5962,0.6058,0.6255,0.6345,0.6451,0.6606,0.6525,0.6328,0.6426,0.6661,0.7023,0.6954,0.7181,0.7564,0.7664,0.7764,0.8008,0.8256,0.8306,0.8466,0.8503,0.873,0.8814,0.9088,0.9404,0.9535,0.9569,0.9407,0.9407,0.9407,0.9603,0.9651,0.9445,0.9389,0.9623,0.9564,0.9095,0.8778,0.8607,0.8607,0.8607,0.8607,0.8607,0.8607,0.8607,0.8607,0.8607,0.8607,0.8786,0.9143,0.9143,0.9317,0.9496,0.95,0.9789,1.0091,1.017,1.0454,1.0578,1.0848,1.0659,1.0721,1.068,1.0597,1.0666,1.0725,1.0771,1.0794,1.0573,1.0528,1.0442,1.0365,1.0325,1.028,1.0395,1.0317,1.0298,1.0284,1.028,1.028,1.028,1.0469,1.0502,1.0568,1.0628,1.0911,1.0811,1.0867,1.0757,1.0822,1.0877,1.1082,1.1082,1.1282,1.1282,1.1483,1.1349,1.142,1.1662,1.1905,1.2209,1.231,1.235,1.2619,1.3122,1.3148,1.3132,1.3132,1.3537,1.3613,1.3434,1.3062,0.5178,0.5326,0.5774,0.6068,0.6178,0.6235,0.646,0.6702,0.6853,0.7066,0.719,0.7265,0.7358,0.7616,0.7553,0.7588,0.7828,0.8099,0.8173,0.8417,0.8548,0.8608,0.8778,0.8934,0.9174,0.9258,0.9582,0.9907,0.9878,1.007,1.007,0.9903,0.9908,0.9928,0.9978,0.9968,0.9908,1.014,1.0303,0.9838,0.9322,0.9143,0.8786,0.8786,0.8607,0.8607,0.8964,0.8964,0.9143,0.9143,0.9322,0.9322,0.9496,0.9674,0.9674,0.9852,1.0054,1.0121,1.0451,1.0732,1.0996,1.1141,1.1416,1.1605,1.1626,1.1392,1.1115,1.1192,1.0904,1.096,1.0932,1.0909,1.0815,1.0722,1.068,1.0642,1.0586,1.0521,1.0483,1.0479,1.0469,1.0469,1.0469,1.0469,1.0659,1.1057,1.1131,1.1442,1.1548,1.186,1.1921,1.1778,1.1843,1.1678,1.1683,1.1683,1.1884,1.1884,1.1884,1.2114,1.2165,1.2216,1.2283,1.2753,1.2811,1.2848,1.3129,1.3636,1.385,1.3598,1.3834,1.429,1.419,1.4309,1.4187,0.5428,0.5349,0.5746,0.6031,0.6298,0.6327,0.6558,0.6965,0.7121,0.7364,0.7807,0.7965,0.8106,0.8093,0.8155,0.815,0.8217,0.8532,0.86,0.8678,0.8842,0.9061,0.9246,0.9407,0.9499,0.9775,1.0093,1.041,1.0565,1.057,1.057,1.0737,1.0759,1.0786,1.0736,1.0859,1.061,1.0703,1.0822,1.0733,1.0213,0.9674,0.9317,0.8964,0.8786,0.8964,0.9322,0.9678,0.9857,0.9857,0.9852,1.003,1.003,1.003,1.0387,1.0565,1.0565,1.1045,1.1378,1.1625,1.1955,1.2096,1.2334,1.2367,1.2389,1.2275,1.201,1.1712,1.1432,1.1471,1.1442,1.1397,1.1294,1.121,1.1175,1.1151,1.1282,1.1232,1.1227,1.1227,1.1232,1.1232,1.1232,1.1042,1.1247,1.1641,1.191,1.2224,1.2547,1.2875,1.2979,1.2814,1.2857,1.2679,1.2484,1.2484,1.2684,1.2684,1.2684,1.2884,1.2901,1.2955,1.2999,1.3233,1.3492,1.3559,1.3609,1.3894,1.4082,1.4077,1.4341,1.4624,1.4773,1.4909,1.5307,0.5495,0.5754,0.5986,0.6214,0.6571,0.6649,0.7017,0.7379,0.7794,0.8048,0.8352,0.8552,0.8661,0.8584,0.815,0.83,0.8474,0.8805,0.889,0.8945,0.9449,0.9682,0.9708,0.9719,1.0008,1.0291,1.0411,1.0536,1.0683,1.0721,1.0737,1.0737,1.0737,1.0759,1.0797,1.0774,1.0934,1.1031,1.1154,1.1083,1.0743,1.0209,0.9852,0.9674,0.9491,0.9674,0.9852,1.0213,1.0213,1.003,1.0209,1.0387,1.0565,1.0743,1.1099,1.1455,1.1632,1.1945,1.2267,1.2523,1.2864,1.3069,1.3116,1.3116,1.3151,1.321,1.2915,1.2746,1.2648,1.2487,1.2466,1.2621,1.2532,1.2841,1.2784,1.2784,1.275,1.2744,1.2744,1.275,1.2762,1.2762,1.2762,1.2779,1.2801,1.3043,1.3158,1.3479,1.3602,1.3725,1.4042,1.386,1.3678,1.3684,1.3484,1.3678,1.3878,1.3684,1.349,1.3484,1.3484,1.349,1.373,1.3765,1.4018,1.4285,1.4339,1.4357,1.4608,1.462,1.4669,1.4753,1.5118,1.5524,1.5949]},{"header":{"parameterUnit":"m.s-1","parameterCategory":1,"la1":31.0,"la2":29.5877,"lo1":-88.7671,"lo2":-86.6584,"dy":0.0162,"dx":0.0185,"nx":115,"ny":88,"refTime":"2023-10-19T18:00:00:Z","depth":0,"parameterNumber":3,"parameterNumberName":"V-component_of_WINDS"},"data":[0.0,0.0,0.0,0.0,0.0,0.0,0.0,0.0,0.0,0.0,0.0,0.0,0.0,0.0,0.0,0.0,0.0,0.0,0.0,0.0,0.0,0.0,0.0,0.0,0.0,0.0,0.0,0.0,0.0,0.0,0.0,0.0,0.0,0.0,0.0,0.0,0.0,0.0,0.0,0.0,0.0,0.0,0.0,0.0,0.0,0.0,0.0,0.0,0.0,0.0,0.0,0.0,0.0,0.0,0.0,0.0,0.0,0.0,0.0,0.0,0.0,0.0,0.0,0.0,0.0,0.0,0.0,0.0,0.0,0.0,0.0,0.0,0.0,0.0,0.0,0.0,0.0,0.0,0.0,0.0,0.0,0.0,0.0,0.0,0.0,0.0,0.0,0.0,0.0,0.0,0.0,0.0,0.0,0.0,0.0,0.0,0.0,0.0,0.0,0.0,0.0,0.0,0.0,0.0,0.0,0.0,0.0,0.0,0.0,0.0,0.0,0.0,0.0,0.0,0.0,0.0,0.0,0.0,0.0,0.0,0.0,0.0,0.0,0.0,0.0,0.0,0.0,0.0,0.0,0.0,0.0,0.0,0.0,0.0,0.0,0.0,0.0,0.0,0.0,0.0,0.0,0.0,0.0,0.0,0.0,0.0,0.0,0.0,0.0,0.0,0.0,0.0,0.0,0.0,0.0,0.0,0.0,0.0,0.0,0.0,0.0,0.0,0.0,0.0,0.0,0.0,0.0,0.0,0.0,0.0,0.0,0.0,0.0,0.0,0.0,0.0,0.0,0.0,0.0,0.0,0.0,0.0,0.0,0.0,0.0,0.0,0.0,0.0,0.0,0.0,0.0,0.0,0.0,0.0,0.0,0.0,0.0,0.0,0.0,0.0,0.0,0.0,0.0,0.0,0.0,0.0,0.0,0.0,0.0,0.0,0.0,0.0,0.0,0.0,0.0,0.0,0.0,0.0,0.0,0.0,0.0,0.0,0.0,0.0,0.0,0.0,0.0,0.0,0.0,0.0,0.0,0.0,0.0,0.0,0.0,0.0,0.0,0.0,0.0,0.0,0.0,0.0,0.0,0.0,0.0,0.0,0.0,0.0,0.0,0.0,0.0,0.0,0.0,0.0,0.0,0.0,0.0,0.0,0.0,0.0,0.0,0.0,0.0,0.0,0.0,0.0,0.0,0.0,0.0,0.0,0.0,0.0,0.0,0.0,0.0,0.0,0.0,0.0,0.0,0.0,0.0,0.0,0.0,0.0,0.0,0.0,0.0,0.0,0.0,0.0,0.0,0.0,0.0,0.0,0.0,0.0,0.0,0.0,0.0,0.0,0.0,0.0,0.0,0.0,0.0,0.0,0.0,0.0,0.0,0.0,0.0,0.0,0.0,0.0,0.0,0.0,0.0,0.0,0.0,0.0,0.0,0.0,0.0,0.0,0.0,0.0,0.0,0.0,0.0,0.0,0.0,0.0,0.0,0.0,0.0,0.0,0.0,0.0,0.0,0.0,0.0,0.0,0.0,0.0,0.0,0.0,0.0,0.0,0.0,0.0,0.0,0.0,0.0,0.0,0.0,0.0,0.0,0.0,0.0,0.0,0.0,0.0,0.0,0.0,0.0,0.0,0.0,0.0,0.0,0.0,0.0,0.0,0.0,0.0,0.0,0.0,0.0,0.0,0.0,0.0,0.0,0.0,0.0,0.0,0.0,0.0,0.0,0.0,0.0,0.0,0.0,0.0,0.0,0.0,0.0,0.0,0.0,0.0,0.0,0.0,0.0,0.0,0.0,0.0,0.0,0.0,0.0,0.0,0.0,0.0,0.0,0.0,0.0,0.0,0.0,0.0,0.0,0.0,0.0,0.0,0.0,0.0,0.0,0.0,0.0,0.0,0.0,0.0,0.0,0.0,0.0,0.0,0.0,0.0,0.0,0.0,0.0,0.0,0.0,0.0,0.0,0.0,0.0,0.0,0.0,0.0,0.0,0.0,0.0,0.0,0.0,0.0,0.0,0.0,0.0,0.0,0.0,0.0,0.0,0.0,0.0,0.0,0.0,0.0,0.0,0.0,0.0,0.0,0.0,0.0,0.0,0.0,0.0,0.0,0.0,0.0,0.0,0.0,0.0,0.0,0.0,0.0,0.0,0.0,0.0,0.0,0.0,0.0,0.0,0.0,0.0,0.0,0.0,0.0,0.0,0.0,0.0,0.0,0.0,0.0,0.0,0.0,0.0,0.0,0.0,0.0,0.0,0.0,0.0,0.0,0.0,0.0,0.0,0.0,0.0,0.0,0.0,0.0,0.0,0.0,0.0,0.0,0.0,0.0,0.0,0.0,0.0,0.0,0.0,0.0,0.0,0.0,0.0,0.0,0.0,0.0,0.0,0.0,0.0,0.0,0.0,0.0,0.0,0.0,0.0,0.0,0.0,0.0,0.0,0.0,0.0,0.0,0.0,0.0,0.0,0.0,0.0,0.0,0.0,0.0,0.0,0.0,0.0,0.0,0.0,0.0,0.0,0.0,0.0,0.0,0.0,0.0,0.0,0.0,0.0,0.0,0.0,0.0,0.0,0.0,0.0,0.0,0.0,0.0,0.0,0.0,0.0,0.0,0.0,0.0,0.0,0.0,0.0,0.0,0.0,0.0,0.0,0.0,0.0,0.0,0.0,0.0,0.0,0.0,0.0,0.0,0.0,0.0,0.0,0.0,0.0,0.0,0.0,0.0,0.0,0.0,0.0,0.0,0.0,0.0,0.0,0.0,0.0,0.0,0.0,0.0,0.0,0.0,0.0,0.0,0.0,0.0,0.0,0.0,0.0,0.0,0.0,0.0,0.0,0.0,0.0,0.0,0.0,0.0,0.0,0.0,0.0,0.0,0.0,0.0,0.0,0.0,0.0,0.0,0.0,0.0,0.0,0.0,0.0,0.0,0.0,0.0,0.0,0.0,0.0,0.0,0.0,0.0,0.0,0.0,0.0,0.0,0.0,0.0,0.0,0.0,0.0,0.0,0.0,0.0,0.0,0.0,0.0,0.0,0.0,0.0,0.0,0.0,0.0,0.0,0.0,0.0,0.0,0.0,0.0,0.0,0.0,0.0,0.0,0.0,0.0,0.0,0.0,0.0,0.0,0.0,0.0,0.0,0.0,0.0,0.0,0.0,0.0,0.0,0.0,0.0,0.0,0.0,0.0,0.0,0.0,0.0,0.0,0.0,0.0,0.0,0.0,0.0,0.0,0.0,0.0,0.0,0.0,0.0,0.0,0.0,0.0,0.0,0.0,0.0,0.0,0.0,0.0,0.0,0.0,0.0,0.0,0.0,0.0,0.0,0.0,0.0,0.0,0.0,0.0,0.0,0.0,0.0,0.0,0.0,0.0,0.0,0.0,0.0,0.0,0.0,0.0,0.0,0.0,0.0,0.0,0.0,0.0,0.0,0.0,0.0,0.0,0.0,0.0,0.0,0.0,0.0,0.0,0.0,0.0,0.0,0.0,0.0,0.0,0.0,0.0,0.0,0.0,0.0,0.0,0.0,0.0,0.0,0.0,0.0,0.0,0.0,0.0,0.0,0.0,0.0,0.0,0.0,0.0,0.0,0.0,0.0,0.0,0.0,0.0,0.0,0.0,0.0,0.0,0.0,0.0,0.0,0.0,0.0,0.0,0.0,0.0,0.0,0.0,0.0,0.0,0.0,0.0,0.0,0.0,0.0,0.0,0.0,0.0,0.0,0.0,0.0,0.0,0.0,0.0,0.0,0.0,0.0,0.0,0.0,0.0,0.0,0.0,0.0,0.0,0.0,0.0,0.0,0.0,0.0,0.0,0.0,0.0,0.0,0.0,0.0,0.0,0.0,0.0,0.0,0.0,0.0,0.0,0.0,0.0,0.0,0.0,0.0,0.0,0.0,0.0,0.0,0.0,0.0,0.0,0.0,0.0,0.0,0.0,0.0,0.0,0.0,0.0,0.0,0.0,0.0,0.0,0.0,0.0,0.0,0.0,0.0,0.0,0.0,0.0,0.0,0.0,0.0,0.0,0.0,0.0,0.0,0.0,0.0,0.0,0.0,0.0,0.0,0.0,0.0,0.0,0.0,0.0,0.0,0.0,0.0,0.0,0.0,0.0,0.0,0.0,0.0,0.0,0.0,0.0,0.0,0.0,0.0,0.0,0.0,0.0,0.0,0.0,0.0,0.0,0.0,0.0,0.0,0.0,0.0,0.0,0.0,0.0,0.0,0.0,0.0,0.0,0.0,0.0,0.0,0.0,0.0,0.0,0.0,0.0,0.0,-4.9708,0.0,0.0,0.0,0.0,0.0,0.0,0.0,0.0,0.0,0.0,0.0,0.0,0.0,0.0,0.0,0.0,0.0,0.0,0.0,0.0,0.0,0.0,0.0,0.0,0.0,0.0,0.0,0.0,0.0,0.0,0.0,0.0,0.0,0.0,0.0,0.0,0.0,0.0,0.0,0.0,0.0,0.0,0.0,0.0,0.0,0.0,0.0,0.0,0.0,0.0,0.0,0.0,0.0,0.0,0.0,0.0,0.0,0.0,0.0,0.0,0.0,0.0,0.0,0.0,0.0,0.0,0.0,0.0,0.0,0.0,0.0,0.0,0.0,0.0,0.0,0.0,0.0,0.0,0.0,0.0,0.0,0.0,0.0,0.0,0.0,0.0,0.0,0.0,0.0,0.0,0.0,0.0,0.0,0.0,0.0,0.0,0.0,0.0,0.0,0.0,0.0,0.0,0.0,0.0,0.0,0.0,0.0,0.0,0.0,0.0,-4.9742,-4.9742,-4.9801,-4.986,-4.986,0.0,0.0,0.0,0.0,0.0,0.0,0.0,0.0,0.0,0.0,0.0,0.0,0.0,0.0,0.0,0.0,0.0,0.0,0.0,0.0,0.0,0.0,0.0,0.0,0.0,0.0,0.0,0.0,0.0,0.0,0.0,0.0,0.0,0.0,0.0,0.0,0.0,0.0,0.0,0.0,0.0,0.0,0.0,0.0,0.0,0.0,0.0,0.0,0.0,0.0,0.0,0.0,0.0,0.0,0.0,0.0,0.0,0.0,0.0,0.0,0.0,0.0,0.0,0.0,0.0,0.0,0.0,0.0,0.0,0.0,0.0,0.0,0.0,0.0,0.0,0.0,0.0,0.0,0.0,0.0,0.0,0.0,0.0,0.0,0.0,0.0,0.0,0.0,0.0,0.0,0.0,0.0,0.0,0.0,0.0,0.0,0.0,0.0,0.0,0.0,0.0,0.0,0.0,0.0,0.0,0.0,0.0,0.0,0.0,0.0,0.0,0.0,-5.0011,-5.0011,-5.0011,0.0,0.0,0.0,0.0,0.0,0.0,0.0,0.0,0.0,0.0,0.0,0.0,0.0,0.0,0.0,0.0,0.0,0.0,0.0,0.0,0.0,0.0,0.0,0.0,0.0,0.0,0.0,0.0,0.0,0.0,0.0,0.0,0.0,0.0,0.0,0.0,0.0,0.0,0.0,0.0,0.0,0.0,0.0,0.0,0.0,0.0,0.0,0.0,0.0,0.0,0.0,0.0,0.0,0.0,0.0,0.0,0.0,0.0,0.0,0.0,0.0,0.0,0.0,0.0,0.0,0.0,0.0,0.0,0.0,0.0,0.0,0.0,0.0,0.0,0.0,0.0,0.0,0.0,0.0,0.0,0.0,0.0,0.0,0.0,0.0,0.0,0.0,0.0,0.0,0.0,0.0,0.0,0.0,0.0,0.0,0.0,0.0,0.0,0.0,0.0,0.0,0.0,0.0,0.0,0.0,0.0,0.0,0.0,0.0,0.0,-5.0011,-5.0011,-5.0011,0.0,-5.0011,0.0,0.0,0.0,0.0,0.0,0.0,0.0,0.0,0.0,0.0,0.0,0.0,0.0,0.0,0.0,0.0,0.0,0.0,0.0,0.0,0.0,0.0,0.0,0.0,0.0,0.0,0.0,0.0,0.0,0.0,0.0,0.0,0.0,0.0,0.0,0.0,0.0,0.0,0.0,0.0,0.0,0.0,0.0,0.0,0.0,0.0,0.0,0.0,0.0,0.0,0.0,0.0,0.0,0.0,0.0,0.0,0.0,0.0,0.0,0.0,0.0,0.0,0.0,0.0,0.0,0.0,0.0,0.0,0.0,0.0,0.0,0.0,0.0,0.0,0.0,0.0,0.0,0.0,0.0,0.0,0.0,0.0,0.0,0.0,0.0,0.0,0.0,0.0,0.0,0.0,0.0,0.0,0.0,0.0,0.0,0.0,0.0,0.0,0.0,0.0,0.0,0.0,0.0,0.0,0.0,0.0,0.0,0.0,0.0,0.0,-5.0011,-5.0011,-5.0011,-5.0011,0.0,0.0,0.0,0.0,0.0,0.0,0.0,0.0,0.0,0.0,0.0,0.0,0.0,0.0,0.0,0.0,0.0,0.0,0.0,0.0,0.0,0.0,0.0,0.0,0.0,0.0,0.0,0.0,0.0,0.0,0.0,0.0,0.0,0.0,0.0,0.0,0.0,0.0,0.0,0.0,0.0,0.0,0.0,0.0,0.0,0.0,0.0,0.0,0.0,0.0,0.0,0.0,0.0,0.0,0.0,0.0,0.0,0.0,0.0,0.0,0.0,0.0,0.0,0.0,0.0,0.0,0.0,0.0,0.0,0.0,0.0,0.0,0.0,0.0,0.0,0.0,0.0,0.0,0.0,0.0,0.0,0.0,0.0,0.0,0.0,0.0,0.0,0.0,0.0,0.0,0.0,0.0,0.0,0.0,0.0,0.0,0.0,0.0,0.0,0.0,0.0,0.0,0.0,0.0,0.0,0.0,0.0,0.0,0.0,0.0,-5.0011,-5.0011,-5.0011,-5.0011,-4.9907,-4.9666,0.0,0.0,0.0,0.0,0.0,0.0,0.0,0.0,0.0,0.0,0.0,0.0,0.0,0.0,0.0,0.0,0.0,0.0,0.0,0.0,0.0,0.0,0.0,0.0,0.0,0.0,0.0,0.0,0.0,0.0,0.0,0.0,0.0,0.0,0.0,0.0,0.0,0.0,0.0,0.0,0.0,0.0,0.0,0.0,0.0,0.0,0.0,0.0,0.0,0.0,0.0,0.0,0.0,0.0,0.0,0.0,0.0,0.0,0.0,0.0,0.0,0.0,0.0,0.0,0.0,0.0,0.0,0.0,0.0,0.0,0.0,0.0,0.0,0.0,0.0,0.0,0.0,0.0,0.0,0.0,0.0,0.0,0.0,0.0,0.0,0.0,0.0,0.0,0.0,0.0,0.0,0.0,0.0,0.0,0.0,0.0,0.0,0.0,0.0,0.0,0.0,0.0,0.0,0.0,0.0,0.0,0.0,0.0,-5.0011,-5.0011,-5.0011,-5.0011,-5.0011,-4.9666,0.0,0.0,0.0,0.0,0.0,0.0,0.0,0.0,0.0,0.0,0.0,0.0,0.0,0.0,0.0,0.0,0.0,0.0,0.0,0.0,0.0,0.0,0.0,0.0,0.0,0.0,0.0,0.0,0.0,0.0,0.0,0.0,0.0,0.0,0.0,0.0,0.0,0.0,0.0,0.0,0.0,0.0,0.0,0.0,0.0,0.0,0.0,0.0,0.0,0.0,0.0,0.0,0.0,0.0,0.0,0.0,0.0,0.0,0.0,0.0,0.0,0.0,0.0,0.0,0.0,0.0,0.0,0.0,0.0,0.0,0.0,0.0,0.0,0.0,0.0,0.0,0.0,0.0,0.0,0.0,0.0,0.0,0.0,0.0,0.0,0.0,0.0,0.0,0.0,0.0,0.0,0.0,0.0,0.0,0.0,0.0,0.0,0.0,0.0,0.0,0.0,0.0,0.0,0.0,0.0,0.0,0.0,0.0,0.0,-5.0011,-5.0011,-5.0011,-5.0011,-5.0011,-4.9631,0.0,0.0,0.0,0.0,0.0,0.0,0.0,0.0,0.0,0.0,0.0,0.0,0.0,0.0,0.0,0.0,0.0,0.0,0.0,0.0,0.0,0.0,0.0,0.0,0.0,0.0,0.0,0.0,0.0,0.0,0.0,0.0,0.0,0.0,0.0,0.0,0.0,0.0,0.0,0.0,0.0,0.0,0.0,0.0,0.0,0.0,0.0,0.0,0.0,0.0,0.0,0.0,0.0,0.0,0.0,0.0,0.0,0.0,0.0,0.0,0.0,0.0,0.0,0.0,0.0,0.0,0.0,0.0,0.0,0.0,0.0,0.0,0.0,0.0,0.0,0.0,0.0,0.0,0.0,0.0,0.0,0.0,0.0,0.0,0.0,0.0,0.0,0.0,0.0,0.0,0.0,0.0,0.0,0.0,0.0,0.0,0.0,0.0,0.0,0.0,0.0,0.0,0.0,0.0,0.0,0.0,0.0,0.0,0.0,-5.0011,0.0,-5.0011,0.0,-4.9769,-4.9252,0.0,0.0,0.0,0.0,0.0,0.0,0.0,0.0,0.0,0.0,0.0,0.0,0.0,0.0,0.0,0.0,0.0,0.0,0.0,0.0,0.0,0.0,0.0,0.0,0.0,0.0,0.0,0.0,0.0,0.0,0.0,0.0,0.0,0.0,0.0,0.0,0.0,0.0,0.0,0.0,0.0,0.0,0.0,0.0,0.0,0.0,0.0,0.0,0.0,0.0,0.0,0.0,0.0,0.0,0.0,0.0,0.0,0.0,0.0,0.0,0.0,0.0,0.0,0.0,0.0,0.0,0.0,0.0,0.0,0.0,0.0,0.0,0.0,0.0,0.0,0.0,0.0,0.0,0.0,0.0,0.0,0.0,0.0,0.0,0.0,0.0,0.0,0.0,0.0,0.0,0.0,0.0,0.0,0.0,0.0,0.0,0.0,0.0,0.0,0.0,0.0,0.0,0.0,0.0,0.0,0.0,0.0,0.0,-4.9942,-4.9976,-4.9942,-4.9873,-4.9942,-4.9217,-4.8459,0.0,0.0,0.0,0.0,0.0,0.0,0.0,0.0,0.0,0.0,0.0,0.0,0.0,0.0,0.0,0.0,0.0,0.0,0.0,0.0,0.0,0.0,0.0,0.0,0.0,0.0,0.0,0.0,0.0,0.0,0.0,0.0,0.0,0.0,0.0,0.0,0.0,0.0,0.0,0.0,0.0,0.0,0.0,0.0,0.0,0.0,0.0,0.0,0.0,0.0,0.0,0.0,0.0,0.0,0.0,0.0,0.0,0.0,0.0,0.0,0.0,0.0,0.0,0.0,0.0,0.0,0.0,0.0,0.0,0.0,0.0,0.0,0.0,0.0,0.0,0.0,0.0,0.0,0.0,0.0,0.0,0.0,0.0,0.0,0.0,0.0,0.0,0.0,0.0,0.0,0.0,0.0,0.0,0.0,0.0,0.0,0.0,0.0,0.0,0.0,0.0,0.0,0.0,0.0,0.0,0.0,0.0,0.0,0.0,-4.8424,-4.8424,-4.8424,-4.8424,-4.8183,-4.77,0.0,0.0,0.0,0.0,0.0,0.0,0.0,0.0,0.0,0.0,0.0,0.0,0.0,0.0,0.0,0.0,0.0,0.0,0.0,0.0,0.0,0.0,0.0,0.0,0.0,0.0,0.0,0.0,0.0,0.0,0.0,0.0,0.0,0.0,0.0,0.0,0.0,0.0,0.0,0.0,0.0,0.0,0.0,0.0,0.0,0.0,0.0,0.0,0.0,0.0,0.0,0.0,0.0,0.0,0.0,0.0,0.0,0.0,0.0,0.0,0.0,0.0,0.0,0.0,0.0,0.0,0.0,0.0,0.0,0.0,0.0,0.0,0.0,0.0,0.0,0.0,0.0,0.0,0.0,0.0,0.0,0.0,0.0,0.0,0.0,0.0,0.0,0.0,0.0,0.0,0.0,0.0,0.0,0.0,0.0,0.0,0.0,0.0,0.0,0.0,0.0,0.0,0.0,0.0,0.0,0.0,0.0,0.0,0.0,-4.6169,-4.6892,-4.7424,-4.77,-4.7458,-4.7079,-4.6631,0.0,0.0,0.0,0.0,0.0,0.0,0.0,0.0,0.0,0.0,0.0,0.0,0.0,0.0,0.0,0.0,0.0,0.0,0.0,0.0,0.0,0.0,0.0,0.0,0.0,0.0,0.0,0.0,0.0,0.0,0.0,0.0,0.0,0.0,0.0,0.0,0.0,0.0,0.0,0.0,0.0,0.0,0.0,0.0,0.0,0.0,0.0,0.0,0.0,0.0,0.0,0.0,0.0,0.0,0.0,0.0,0.0,0.0,0.0,0.0,0.0,0.0,0.0,0.0,0.0,0.0,0.0,0.0,0.0,0.0,0.0,0.0,0.0,0.0,0.0,0.0,0.0,0.0,0.0,0.0,0.0,0.0,0.0,0.0,0.0,0.0,0.0,0.0,0.0,0.0,0.0,0.0,0.0,0.0,0.0,0.0,0.0,0.0,0.0,0.0,0.0,0.0,0.0,0.0,0.0,0.0,0.0,0.0,-4.3541,-4.5407,-4.6665,-4.7355,-4.6803,-4.6493,0.0,0.0,0.0,0.0,0.0,0.0,0.0,0.0,0.0,0.0,0.0,0.0,0.0,0.0,0.0,0.0,0.0,0.0,0.0,0.0,0.0,0.0,0.0,0.0,0.0,0.0,0.0,0.0,0.0,0.0,0.0,0.0,0.0,0.0,0.0,0.0,0.0,0.0,0.0,0.0,0.0,0.0,0.0,0.0,0.0,0.0,0.0,0.0,0.0,0.0,0.0,0.0,0.0,0.0,0.0,0.0,0.0,0.0,0.0,0.0,0.0,0.0,0.0,0.0,0.0,0.0,0.0,0.0,0.0,0.0,0.0,0.0,0.0,0.0,0.0,0.0,0.0,0.0,0.0,0.0,0.0,0.0,0.0,0.0,0.0,0.0,0.0,0.0,0.0,0.0,0.0,0.0,0.0,0.0,0.0,0.0,0.0,0.0,0.0,0.0,0.0,0.0,0.0,0.0,0.0,0.0,0.0,0.0,0.0,-4.3637,-4.3659,-4.3944,-4.459,-4.4905,-4.5113,0.0,0.0,0.0,0.0,0.0,0.0,0.0,0.0,0.0,0.0,0.0,0.0,0.0,0.0,0.0,0.0,0.0,0.0,0.0,0.0,0.0,0.0,0.0,0.0,0.0,0.0,0.0,0.0,0.0,0.0,0.0,0.0,0.0,0.0,0.0,0.0,0.0,0.0,0.0,0.0,0.0,0.0,0.0,0.0,0.0,0.0,0.0,0.0,0.0,0.0,0.0,0.0,0.0,0.0,0.0,0.0,0.0,0.0,0.0,0.0,0.0,0.0,0.0,0.0,0.0,0.0,0.0,0.0,0.0,0.0,0.0,0.0,0.0,0.0,0.0,0.0,0.0,0.0,0.0,0.0,0.0,0.0,0.0,0.0,0.0,0.0,0.0,0.0,0.0,0.0,0.0,0.0,0.0,0.0,0.0,0.0,0.0,0.0,0.0,0.0,0.0,0.0,0.0,0.0,0.0,0.0,0.0,0.0,-4.3491,-4.3019,-4.2517,-4.2482,-4.2903,-4.3742,-4.4376,0.0,0.0,0.0,0.0,0.0,0.0,0.0,0.0,0.0,0.0,0.0,0.0,0.0,0.0,0.0,0.0,0.0,0.0,0.0,0.0,0.0,0.0,0.0,0.0,0.0,0.0,0.0,0.0,0.0,0.0,0.0,0.0,0.0,0.0,0.0,0.0,0.0,0.0,0.0,0.0,0.0,0.0,0.0,0.0,0.0,0.0,0.0,0.0,0.0,0.0,0.0,0.0,0.0,0.0,0.0,0.0,0.0,0.0,0.0,0.0,0.0,0.0,0.0,0.0,0.0,0.0,0.0,0.0,0.0,0.0,0.0,0.0,0.0,0.0,0.0,0.0,0.0,0.0,0.0,0.0,0.0,0.0,0.0,0.0,0.0,0.0,0.0,0.0,0.0,0.0,0.0,0.0,0.0,0.0,0.0,0.0,0.0,0.0,0.0,0.0,0.0,0.0,0.0,0.0,0.0,0.0,0.0,0.0,-4.3376,-4.2065,-4.1995,-4.1966,-4.2056,-4.3065,-4.4003,0.0,0.0,0.0,0.0,0.0,0.0,0.0,0.0,0.0,0.0,0.0,0.0,0.0,0.0,0.0,0.0,0.0,0.0,0.0,0.0,0.0,0.0,0.0,0.0,0.0,0.0,0.0,0.0,0.0,0.0,0.0,0.0,0.0,0.0,0.0,0.0,0.0,0.0,0.0,0.0,0.0,0.0,0.0,0.0,0.0,0.0,0.0,0.0,0.0,0.0,0.0,0.0,0.0,0.0,0.0,0.0,0.0,0.0,0.0,0.0,0.0,0.0,0.0,0.0,0.0,0.0,0.0,0.0,0.0,0.0,0.0,0.0,0.0,0.0,0.0,0.0,0.0,0.0,0.0,0.0,0.0,0.0,0.0,0.0,0.0,0.0,0.0,0.0,0.0,0.0,0.0,0.0,0.0,0.0,0.0,0.0,0.0,0.0,0.0,0.0,0.0,0.0,0.0,0.0,0.0,0.0,0.0,0.0,-4.3149,-4.2374,-4.2414,-4.2167,-4.1674,-4.2732,-4.3491,0.0,0.0,0.0,0.0,0.0,0.0,0.0,0.0,0.0,0.0,0.0,0.0,0.0,0.0,0.0,0.0,0.0,0.0,0.0,0.0,0.0,0.0,0.0,0.0,0.0,0.0,0.0,0.0,0.0,0.0,0.0,0.0,0.0,0.0,0.0,0.0,0.0,0.0,0.0,0.0,0.0,0.0,0.0,0.0,0.0,0.0,0.0,0.0,-6.2562,0.0,0.0,0.0,0.0,0.0,0.0,0.0,0.0,0.0,0.0,0.0,0.0,0.0,0.0,0.0,0.0,0.0,0.0,0.0,0.0,0.0,0.0,0.0,0.0,0.0,0.0,0.0,0.0,0.0,0.0,0.0,0.0,0.0,0.0,0.0,0.0,0.0,0.0,0.0,0.0,0.0,0.0,0.0,0.0,0.0,0.0,0.0,0.0,0.0,0.0,0.0,0.0,0.0,0.0,0.0,0.0,0.0,0.0,0.0,-4.3317,-4.2693,-4.2446,-4.2232,-4.1904,-4.2196,-4.274,0.0,0.0,0.0,0.0,0.0,0.0,0.0,0.0,0.0,0.0,0.0,0.0,0.0,0.0,0.0,0.0,0.0,0.0,0.0,0.0,0.0,0.0,0.0,0.0,0.0,0.0,0.0,0.0,0.0,0.0,0.0,0.0,0.0,0.0,0.0,0.0,0.0,0.0,0.0,0.0,0.0,0.0,0.0,0.0,0.0,0.0,0.0,0.0,0.0,0.0,0.0,0.0,0.0,0.0,0.0,0.0,0.0,0.0,0.0,0.0,0.0,0.0,0.0,0.0,0.0,0.0,0.0,0.0,0.0,0.0,0.0,0.0,0.0,0.0,0.0,0.0,0.0,0.0,0.0,0.0,0.0,0.0,0.0,0.0,0.0,0.0,0.0,0.0,0.0,0.0,0.0,0.0,0.0,0.0,0.0,0.0,0.0,0.0,0.0,0.0,0.0,0.0,0.0,0.0,0.0,0.0,0.0,-4.3832,-4.3505,-4.2959,-4.2477,-4.2169,-4.2068,-4.192,-4.2284,-4.3198,0.0,0.0,0.0,0.0,0.0,0.0,0.0,0.0,0.0,0.0,0.0,0.0,0.0,0.0,0.0,0.0,0.0,0.0,0.0,0.0,0.0,0.0,0.0,0.0,0.0,0.0,0.0,0.0,0.0,0.0,0.0,0.0,0.0,0.0,0.0,0.0,0.0,0.0,-5.9061,-5.8862,0.0,0.0,0.0,0.0,0.0,0.0,0.0,0.0,-6.1135,0.0,0.0,0.0,0.0,0.0,0.0,0.0,0.0,0.0,0.0,0.0,0.0,0.0,0.0,0.0,0.0,0.0,0.0,0.0,0.0,0.0,0.0,0.0,0.0,0.0,0.0,0.0,0.0,0.0,0.0,0.0,0.0,0.0,0.0,0.0,0.0,0.0,0.0,0.0,0.0,0.0,0.0,0.0,0.0,0.0,0.0,0.0,0.0,0.0,0.0,0.0,0.0,0.0,0.0,0.0,0.0,-4.4119,-4.3786,-4.3272,-4.2606,-4.2693,-4.2192,-4.1079,-4.2517,-4.3183,-4.2967,0.0,0.0,0.0,0.0,0.0,0.0,0.0,0.0,0.0,0.0,0.0,0.0,0.0,0.0,0.0,0.0,0.0,0.0,0.0,0.0,0.0,0.0,0.0,0.0,0.0,0.0,0.0,0.0,0.0,0.0,0.0,0.0,0.0,0.0,0.0,0.0,0.0,0.0,0.0,-5.9061,-5.902,0.0,0.0,0.0,0.0,0.0,0.0,0.0,0.0,-6.0746,0.0,0.0,0.0,0.0,0.0,0.0,0.0,0.0,0.0,0.0,0.0,0.0,0.0,0.0,0.0,0.0,0.0,0.0,0.0,0.0,0.0,0.0,0.0,0.0,0.0,0.0,0.0,0.0,0.0,0.0,0.0,0.0,0.0,0.0,0.0,0.0,0.0,0.0,0.0,0.0,0.0,0.0,0.0,0.0,0.0,0.0,0.0,0.0,0.0,0.0,0.0,0.0,0.0,0.0,0.0,-4.3297,-4.3174,-4.2857,-4.224,-4.2081,-4.1666,-4.1123,-4.2141,-4.2811,0.0,0.0,0.0,0.0,0.0,0.0,0.0,0.0,0.0,0.0,0.0,0.0,0.0,0.0,0.0,0.0,0.0,0.0,0.0,0.0,0.0,0.0,0.0,0.0,0.0,0.0,0.0,0.0,0.0,0.0,0.0,0.0,0.0,0.0,0.0,0.0,0.0,0.0,0.0,0.0,-5.9215,-5.91,-5.91,0.0,0.0,0.0,0.0,0.0,0.0,-6.0002,-6.0523,0.0,0.0,0.0,0.0,0.0,0.0,0.0,0.0,0.0,0.0,0.0,0.0,0.0,0.0,0.0,0.0,0.0,0.0,0.0,0.0,0.0,0.0,0.0,0.0,0.0,0.0,0.0,0.0,0.0,0.0,0.0,0.0,0.0,0.0,0.0,0.0,0.0,0.0,0.0,0.0,0.0,0.0,0.0,0.0,0.0,0.0,0.0,0.0,0.0,0.0,0.0,0.0,0.0,0.0,0.0,-4.2602,-4.2648,-4.2418,-4.1868,-4.1411,-4.1323,-4.1508,-4.1916,-4.2594,0.0,0.0,0.0,0.0,0.0,0.0,0.0,0.0,0.0,0.0,0.0,0.0,0.0,0.0,0.0,0.0,0.0,0.0,0.0,0.0,0.0,0.0,0.0,0.0,0.0,0.0,0.0,0.0,0.0,0.0,0.0,0.0,0.0,0.0,0.0,0.0,0.0,0.0,0.0,0.0,0.0,-5.929,-5.929,-5.929,0.0,0.0,0.0,0.0,-5.9681,-5.9842,0.0,0.0,0.0,0.0,0.0,0.0,0.0,0.0,0.0,0.0,0.0,0.0,0.0,0.0,0.0,0.0,0.0,0.0,0.0,0.0,0.0,0.0,0.0,0.0,0.0,0.0,0.0,0.0,0.0,0.0,0.0,0.0,0.0,0.0,0.0,0.0,0.0,0.0,0.0,0.0,0.0,0.0,0.0,0.0,0.0,0.0,0.0,0.0,0.0,0.0,0.0,0.0,0.0,0.0,0.0,0.0,-4.2974,-4.2584,-4.2048,-4.1514,-4.159,-4.1732,-4.1945,-4.2816,-4.3698,0.0,0.0,0.0,0.0,0.0,0.0,0.0,0.0,0.0,0.0,0.0,0.0,0.0,0.0,0.0,0.0,0.0,0.0,0.0,0.0,0.0,0.0,0.0,0.0,0.0,0.0,0.0,0.0,0.0,0.0,0.0,0.0,0.0,0.0,0.0,0.0,0.0,0.0,0.0,0.0,0.0,-5.9711,-5.9647,-5.9647,-5.9681,0.0,0.0,0.0,-6.0091,-6.0255,0.0,0.0,0.0,0.0,0.0,0.0,0.0,0.0,0.0,0.0,0.0,0.0,0.0,0.0,0.0,0.0,0.0,0.0,0.0,0.0,0.0,0.0,0.0,0.0,0.0,0.0,0.0,0.0,0.0,0.0,0.0,0.0,0.0,0.0,0.0,0.0,0.0,0.0,0.0,0.0,0.0,0.0,0.0,0.0,0.0,0.0,0.0,0.0,0.0,0.0,0.0,0.0,0.0,0.0,0.0,-4.3064,-4.2757,-4.2232,-4.1629,-4.1003,-4.1571,-4.1972,-4.2116,-4.3437,-4.4351,0.0,0.0,0.0,0.0,0.0,0.0,0.0,0.0,0.0,0.0,0.0,0.0,0.0,0.0,0.0,0.0,0.0,0.0,0.0,0.0,0.0,0.0,0.0,0.0,0.0,0.0,0.0,0.0,0.0,0.0,0.0,0.0,0.0,0.0,0.0,0.0,0.0,0.0,0.0,0.0,0.0,0.0,-6.0653,-6.0753,0.0,0.0,0.0,-6.19,-6.194,0.0,0.0,0.0,0.0,0.0,0.0,0.0,0.0,0.0,0.0,0.0,0.0,0.0,0.0,0.0,0.0,0.0,0.0,0.0,0.0,0.0,0.0,0.0,0.0,0.0,0.0,0.0,0.0,0.0,0.0,0.0,0.0,0.0,0.0,0.0,0.0,0.0,0.0,0.0,0.0,0.0,0.0,0.0,0.0,0.0,0.0,0.0,0.0,0.0,0.0,0.0,0.0,0.0,0.0,0.0,0.0,0.0,-4.3025,-4.2408,-4.1838,-4.1362,-4.2052,-4.2534,-4.2802,-4.4202,0.0,0.0,0.0,0.0,0.0,0.0,0.0,0.0,0.0,0.0,0.0,0.0,0.0,0.0,0.0,0.0,0.0,0.0,0.0,0.0,0.0,0.0,0.0,0.0,0.0,0.0,0.0,-5.1464,0.0,0.0,0.0,0.0,0.0,0.0,0.0,0.0,0.0,0.0,0.0,0.0,0.0,0.0,-6.0665,-6.1478,-6.1677,-6.2054,0.0,0.0,-6.3406,-6.3454,-6.3593,-6.3684,0.0,0.0,0.0,0.0,0.0,0.0,0.0,0.0,0.0,0.0,0.0,0.0,0.0,0.0,0.0,0.0,0.0,0.0,0.0,0.0,0.0,0.0,0.0,0.0,0.0,0.0,0.0,0.0,0.0,0.0,0.0,0.0,0.0,0.0,0.0,0.0,0.0,0.0,0.0,0.0,0.0,0.0,0.0,0.0,0.0,0.0,0.0,0.0,0.0,0.0,0.0,0.0,0.0,0.0,0.0,-4.4343,-4.359,-4.3191,-4.3227,-4.3281,-4.3638,-4.4335,-4.5177,-4.5637,0.0,0.0,0.0,0.0,0.0,0.0,0.0,0.0,0.0,0.0,0.0,0.0,0.0,0.0,0.0,0.0,0.0,0.0,0.0,0.0,0.0,0.0,0.0,0.0,0.0,0.0,0.0,0.0,0.0,0.0,0.0,0.0,0.0,0.0,0.0,0.0,0.0,0.0,0.0,0.0,0.0,-6.1041,-6.1761,-6.2012,-6.2375,0.0,0.0,-6.3687,-6.3773,-6.3895,-6.3962,-6.4001,0.0,0.0,0.0,0.0,0.0,0.0,0.0,0.0,0.0,0.0,0.0,0.0,0.0,0.0,0.0,0.0,0.0,0.0,0.0,0.0,0.0,0.0,0.0,0.0,0.0,0.0,0.0,0.0,0.0,0.0,0.0,0.0,0.0,0.0,0.0,0.0,0.0,0.0,0.0,0.0,0.0,0.0,0.0,0.0,0.0,0.0,0.0,0.0,0.0,0.0,0.0,0.0,0.0,-4.6087,-4.613,-4.4844,-4.4409,-4.4922,-4.4822,-4.5114,-4.5855,-4.6512,-4.6873,0.0,0.0,0.0,0.0,0.0,0.0,0.0,0.0,0.0,0.0,0.0,0.0,0.0,0.0,0.0,0.0,0.0,0.0,0.0,0.0,0.0,0.0,0.0,0.0,0.0,0.0,0.0,0.0,-5.4525,-5.4898,-5.5379,0.0,0.0,0.0,0.0,0.0,0.0,0.0,0.0,0.0,0.0,-6.2081,-6.2832,-6.3515,0.0,0.0,-6.5413,-6.5528,-6.557,-6.5633,-6.5678,-6.566,-6.4987,0.0,0.0,0.0,0.0,0.0,0.0,0.0,0.0,0.0,0.0,0.0,0.0,0.0,0.0,0.0,0.0,0.0,0.0,0.0,0.0,0.0,0.0,0.0,0.0,0.0,0.0,0.0,0.0,0.0,0.0,0.0,0.0,0.0,0.0,0.0,0.0,0.0,0.0,0.0,0.0,0.0,0.0,0.0,0.0,0.0,0.0,0.0,0.0,0.0,0.0,0.0,0.0,-4.7591,-4.761,-4.6391,-4.6127,-4.686,-4.6698,-4.6882,-4.7552,-4.8237,-4.8465,0.0,0.0,0.0,0.0,0.0,0.0,0.0,0.0,0.0,0.0,0.0,0.0,0.0,0.0,0.0,0.0,0.0,0.0,0.0,0.0,0.0,0.0,0.0,0.0,0.0,0.0,0.0,0.0,-5.5234,-5.5404,-5.6001,0.0,0.0,0.0,0.0,0.0,0.0,0.0,0.0,0.0,0.0,-6.2874,-6.392,-6.4704,-6.5561,-6.6708,-6.6932,-6.7046,-6.7119,-6.7335,-6.7415,-6.7162,0.0,0.0,0.0,0.0,0.0,0.0,0.0,0.0,0.0,0.0,0.0,0.0,0.0,0.0,0.0,0.0,0.0,0.0,0.0,0.0,0.0,0.0,0.0,0.0,0.0,0.0,0.0,0.0,0.0,0.0,0.0,0.0,0.0,0.0,0.0,0.0,0.0,0.0,0.0,0.0,0.0,0.0,0.0,0.0,0.0,0.0,0.0,0.0,0.0,0.0,0.0,0.0,0.0,0.0,-4.8509,-4.8299,-4.8524,-4.9152,-4.8945,-4.911,-4.9673,-5.0363,-5.0387,-4.9663,0.0,0.0,0.0,0.0,0.0,0.0,0.0,0.0,0.0,0.0,0.0,0.0,0.0,0.0,0.0,0.0,0.0,0.0,0.0,0.0,0.0,0.0,0.0,0.0,0.0,0.0,-5.6191,-5.6212,-5.6136,0.0,0.0,0.0,0.0,0.0,0.0,0.0,0.0,0.0,0.0,-6.2041,-6.3245,-6.4916,-6.5259,-6.601,-6.7642,-6.7938,-6.7979,-6.8046,-6.8757,-6.9058,0.0,0.0,0.0,0.0,0.0,0.0,0.0,0.0,0.0,0.0,0.0,0.0,0.0,0.0,0.0,0.0,0.0,0.0,0.0,0.0,0.0,0.0,0.0,0.0,0.0,0.0,0.0,0.0,-5.0009,0.0,0.0,0.0,0.0,0.0,0.0,0.0,0.0,0.0,0.0,0.0,-5.1834,-5.2663,0.0,0.0,0.0,0.0,0.0,0.0,0.0,0.0,0.0,0.0,0.0,0.0,-4.9897,-5.0808,-5.0099,-5.0545,-5.2158,-5.1402,-5.1555,-5.2704,-5.2949,-5.2949,-5.2849,0.0,0.0,0.0,0.0,0.0,0.0,0.0,0.0,0.0,0.0,0.0,0.0,0.0,0.0,0.0,0.0,0.0,0.0,0.0,0.0,0.0,0.0,0.0,0.0,0.0,-5.7602,0.0,0.0,0.0,0.0,0.0,0.0,0.0,0.0,0.0,0.0,0.0,-6.1367,-6.2196,-6.4037,-6.5528,-6.6112,-6.7225,-6.8182,0.0,0.0,0.0,0.0,0.0,0.0,0.0,0.0,0.0,0.0,0.0,0.0,0.0,0.0,-7.3155,-7.1729,-7.0743,-7.0152,-7.0158,0.0,0.0,0.0,0.0,0.0,0.0,0.0,0.0,0.0,0.0,0.0,0.0,0.0,0.0,0.0,0.0,-5.1899,0.0,0.0,0.0,0.0,0.0,0.0,0.0,0.0,-5.2338,-5.287,-5.3117,-5.4181,-5.4653,0.0,-5.4898,-5.5055,0.0,0.0,0.0,0.0,0.0,0.0,0.0,0.0,-5.1308,-5.2679,-5.1954,-5.2477,-5.4305,-5.3591,-5.374,-5.4984,-5.5248,-5.562,-5.6131,-5.6134,-5.5814,0.0,0.0,0.0,0.0,0.0,0.0,0.0,0.0,0.0,0.0,0.0,0.0,0.0,0.0,0.0,0.0,0.0,0.0,0.0,0.0,0.0,0.0,0.0,-5.8499,0.0,0.0,0.0,0.0,0.0,0.0,0.0,0.0,0.0,-6.1266,-6.2172,-6.3331,-6.451,-6.6117,-6.7305,-6.7602,0.0,0.0,0.0,0.0,0.0,0.0,0.0,-7.1542,-7.2674,-7.2635,-7.3068,-7.479,-7.5763,-7.6814,-7.818,0.0,0.0,-7.5429,-7.4296,-7.3711,-7.3711,-7.3704,-7.3693,-7.369,-7.371,-7.3693,0.0,0.0,0.0,0.0,0.0,0.0,0.0,0.0,-5.1473,-5.1167,0.0,-5.2166,0.0,0.0,0.0,0.0,0.0,0.0,0.0,0.0,-5.3223,-5.391,-5.465,-5.6172,-5.6874,-5.6812,-5.7594,-5.7991,-5.7862,-5.5113,0.0,0.0,0.0,0.0,0.0,0.0,-5.2738,-5.4103,-5.3812,-5.4383,-5.5789,-5.5581,-5.5809,-5.6552,-5.7452,-5.8353,-5.929,-5.8864,-5.8273,-5.7522,-5.6317,0.0,0.0,0.0,0.0,0.0,0.0,0.0,0.0,0.0,0.0,0.0,0.0,0.0,0.0,0.0,0.0,0.0,0.0,0.0,0.0,-5.7972,0.0,0.0,0.0,0.0,0.0,0.0,0.0,0.0,0.0,0.0,-6.3335,-6.4583,-6.6237,-6.7929,0.0,0.0,0.0,0.0,-7.1122,-7.1912,-7.2733,-7.327,-7.3299,-7.4031,-7.4567,-7.4632,0.0,0.0,-7.8252,-7.9208,-7.9988,-8.0836,-8.1012,-8.0509,-7.8901,-7.7879,-7.7278,-7.7239,-7.7238,-7.7268,-7.7248,-7.7248,-7.7209,-5.4924,0.0,0.0,0.0,0.0,-5.4474,-5.4638,-5.4622,-5.4343,-5.4281,-5.4328,-5.5264,0.0,0.0,0.0,0.0,0.0,0.0,-5.3987,-5.4687,-5.5499,-5.5955,-5.6045,-5.7046,-5.7851,-5.8318,-5.8536,-5.8929,-5.9417,-5.8088,-5.6127,-5.3686,0.0,0.0,0.0,0.0,-5.3556,-5.5503,-5.539,-5.6219,-5.8239,-5.8166,-5.8726,-5.999,-6.0292,-6.0673,-6.1093,-6.098,-6.067,-6.0037,-5.932,0.0,0.0,0.0,0.0,0.0,0.0,0.0,0.0,0.0,0.0,0.0,0.0,0.0,0.0,0.0,0.0,0.0,0.0,0.0,-6.1482,-6.0973,-6.0426,0.0,0.0,0.0,0.0,0.0,0.0,0.0,0.0,0.0,-6.7578,-6.7965,-6.8698,0.0,0.0,-7.1872,-7.207,-7.285,-7.3704,-7.4559,0.0,0.0,0.0,-7.6145,-7.6487,-7.7121,-7.8456,-8.0016,-8.1763,-8.2221,-8.264,-8.3449,-8.3605,-8.342,-8.2884,-8.1702,-8.0813,-8.0735,-8.07,-8.068,-8.0669,-8.0647,-8.0635,-5.6071,-5.4651,-5.539,-5.5691,-5.5698,-5.6176,-5.6383,-5.636,-5.6414,-5.6437,-5.6505,-5.7093,-5.6616,-5.5441,-5.5671,0.0,0.0,0.0,-5.5972,-5.699,-5.7799,-5.831,-5.8501,-5.9273,-5.99,-6.0373,-6.0289,-6.0525,-6.1001,-6.0551,-5.9193,-5.6905,0.0,0.0,-5.4265,-5.4142,-5.5246,-5.7484,-5.7342,-5.8203,-6.019,-6.0151,-6.0708,-6.2018,-6.2096,-6.2326,-6.2784,-6.2636,-6.2369,-6.2053,-6.121,-6.0189,0.0,0.0,0.0,0.0,0.0,0.0,0.0,0.0,0.0,0.0,0.0,-5.6419,0.0,0.0,0.0,0.0,-6.0113,-6.1522,-6.242,-6.2027,0.0,0.0,0.0,0.0,0.0,0.0,0.0,-6.3956,-6.7663,-7.0583,-7.1277,-7.1943,-7.244,-7.2681,-7.3615,-7.4388,-7.4731,0.0,-7.6308,-7.7121,-7.758,-7.8085,-7.8932,-7.9021,-7.9255,-8.0183,-8.147,-8.2679,-8.3683,-8.3944,-8.4233,-8.491,-8.513,-8.5247,-8.5531,-8.5052,-8.426,-8.3376,-8.3091,-8.3065,-8.3065,-8.3052,-8.3038,-5.7261,-5.7401,-5.7781,-5.7848,-5.7768,-5.7806,-5.7853,-5.787,-5.8034,-5.8092,-5.8176,-5.8257,-5.7838,-5.7134,-5.6252,0.0,0.0,-5.7035,-5.7837,-5.9349,-6.0094,-6.0776,-6.1457,-6.214,-6.2525,-6.2534,-6.2496,-6.2534,-6.2614,-6.2542,-6.2088,-6.1212,-5.8406,-5.6843,-5.6588,-5.6535,-5.7554,-5.9664,-5.9475,-6.0226,-6.1764,-6.1756,-6.213,-6.3,-6.3081,-6.3499,-6.4254,-6.3802,-6.3495,-6.3381,-6.2178,-6.1179,-6.0529,0.0,0.0,0.0,0.0,0.0,0.0,0.0,0.0,0.0,0.0,0.0,0.0,0.0,0.0,0.0,-6.0054,0.0,-6.1902,-6.2076,0.0,0.0,0.0,-6.4825,-6.5597,-6.6537,-6.772,-6.9317,0.0,0.0,0.0,0.0,-7.6999,-7.6391,-7.6244,-7.6469,-7.7277,-7.8096,-7.8865,-7.9684,-8.0428,-8.1273,-8.1974,-8.2104,-8.2351,-8.3259,-8.4245,-8.4701,-8.4832,-8.4883,-8.5151,-8.5938,-8.5999,-8.6311,-8.7128,-8.7811,-8.7789,-8.5448,-8.5019,-8.4949,-8.5043,-8.5065,-8.5104,-6.0604,-6.068,-6.0754,-6.0146,-5.9185,-5.9828,-6.0471,-6.1004,-6.1069,-6.1136,-6.1136,-6.1299,-6.1035,-6.0352,-5.9417,-5.955,-6.0436,-6.0352,-6.0895,-6.1887,-6.2086,-6.2216,-6.2389,-6.2541,-6.2959,-6.3498,-6.355,-6.3854,-6.4348,-6.3789,-6.3338,-6.2955,-6.1657,-6.0349,-5.9109,-5.8967,-5.9477,-6.0603,-6.0449,-6.1122,-6.2705,-6.3343,-6.3796,-6.4026,-6.4065,-6.3954,-6.3727,-6.3608,-6.3334,-6.2758,-6.2573,-6.2146,-6.1409,-5.9344,0.0,0.0,0.0,0.0,0.0,0.0,0.0,0.0,0.0,-5.7348,-5.8402,0.0,-5.9183,0.0,-6.147,-6.2981,-6.447,-6.5191,0.0,0.0,-6.6195,-6.717,-6.7346,-6.9262,-7.0745,-7.1148,-7.3833,-7.5843,-7.6232,-7.8348,-7.9998,-8.044,-7.9975,-7.9649,-7.9858,-8.0546,-8.1428,-8.2231,-8.2567,-8.298,-8.3774,-8.3914,-8.4241,-8.5142,-8.5506,-8.5818,-8.6468,-8.6558,-8.6826,-8.7595,-8.7755,-8.803,-8.8731,-8.9119,-8.9042,-8.8478,-8.8398,-8.849,-8.8451,-8.8412,-8.8451,-6.1805,-6.1883,-6.1883,-6.1657,-6.1314,-6.1391,-6.1618,-6.2033,-6.2178,-6.2249,-6.2249,-6.2387,-6.226,-6.1863,-6.1343,-6.1444,-6.1987,-6.1957,-6.2414,-6.3245,-6.3283,-6.3473,-6.3823,-6.3791,-6.4019,-6.4476,-6.4481,-6.4643,-6.4951,-6.4541,-6.4279,-6.4237,-6.3751,-6.2917,-6.1662,-6.0812,-6.071,-6.143,-6.2447,-6.3385,-6.4292,-6.4744,-6.497,-6.501,-6.437,-6.3878,-6.3568,-6.3293,-6.2976,-6.2585,-6.2742,-6.251,-6.1715,-6.0175,-5.9061,0.0,0.0,0.0,0.0,0.0,0.0,0.0,0.0,0.0,0.0,0.0,-6.0762,0.0,-6.3318,0.0,-6.6455,-6.7374,-6.7852,-6.7693,-6.9173,-7.038,-7.0706,-7.2354,-7.3883,-7.505,-7.6809,-7.8387,-7.9515,-8.0876,-8.2081,-8.2937,-8.3009,-8.2824,-8.2528,-8.2839,-8.3447,-8.4254,-8.441,-8.4682,-8.546,-8.5983,-8.6427,-8.6927,-8.7355,-8.7744,-8.8172,-8.8273,-8.8434,-8.8787,-8.8867,-8.8964,-8.9429,-8.9856,-9.0051,-9.0128,-9.048,-9.0441,-8.9741,-8.9585,-8.9585,-6.2181,-6.2297,-6.2297,-6.2824,-6.3502,-6.2711,-6.2335,-6.2372,-6.2518,-6.2589,-6.2662,-6.2807,-6.288,-6.288,-6.2993,-6.3065,-6.3128,-6.3128,-6.3612,-6.4362,-6.4394,-6.4813,-6.5536,-6.5536,-6.5536,-6.5536,-6.5563,-6.546,-6.5365,-6.5361,-6.5327,-6.5331,-6.53,-6.4961,-6.4168,-6.2525,-6.1956,-6.2466,-6.467,-6.588,-6.5993,-6.588,-6.5842,-6.5804,-6.4401,-6.3596,-6.3482,-6.2851,-6.2452,-6.2337,-6.2718,-6.2567,-6.1808,-6.1349,-6.047,0.0,-5.8458,0.0,0.0,0.0,0.0,0.0,0.0,0.0,0.0,-6.1276,-6.2984,-6.4692,-6.5519,-6.6642,-6.833,-6.9234,-7.0107,-7.0927,-7.2496,-7.3883,-7.4841,-7.5665,-7.7127,-7.9576,-7.9813,-8.0688,-8.2786,-8.333,-8.3718,-8.4418,-8.5214,-8.5388,-8.4954,-8.4816,-8.511,-8.5853,-8.6029,-8.6379,-8.7156,-8.7971,-8.8473,-8.859,-8.9017,-8.964,-8.9526,-8.9508,-8.9566,-8.9683,-8.9683,-8.974,-8.9818,-9.0478,-9.0965,-9.1004,-9.1509,-9.1587,-9.0537,-9.0051,-8.9895,-6.3953,-6.4106,-6.4106,-6.4219,-6.437,-6.4218,-6.4143,-6.4143,-6.4217,-6.4289,-6.4436,-6.5116,-6.5419,-6.5457,-6.6139,-6.6478,-6.6546,-6.6546,-6.6657,-6.6912,-6.7017,-6.7164,-6.7316,-6.7375,-6.7369,-6.7407,-6.7369,-6.7337,-6.7278,-6.725,-6.7182,-6.704,-6.7026,-6.6641,-6.5846,0.0,0.0,0.0,-6.5425,-6.6295,-6.69,-6.6295,-6.6067,-6.6173,-6.4575,0.0,-6.2978,-6.2231,-6.1488,-6.0999,-6.2268,0.0,0.0,0.0,0.0,0.0,0.0,0.0,0.0,0.0,0.0,0.0,-6.5022,-6.4793,-6.3349,-6.4744,-6.6429,-6.8082,-6.8394,-6.92,-7.0849,-7.1771,-7.2613,-7.3464,-7.5059,-7.6676,-7.8159,-7.9113,-8.0357,-8.2144,-8.2359,-8.2825,-8.399,-8.4767,-8.5233,-8.5467,-8.6205,-8.6652,-8.6515,-8.6477,-8.6593,-8.6807,-8.7351,-8.8089,-8.8905,-8.9139,-8.9333,-8.9391,-8.9469,-8.9682,-8.9739,-8.9682,-8.9935,-9.0461,-9.0576,-9.0789,-9.141,-9.1801,-9.186,-9.1938,-9.2054,-9.2288,-9.2558,-9.2071,-9.1838,-6.4521,0.0,-6.4633,-6.467,0.0,-6.4781,-6.4781,-6.4745,-6.4743,-6.508,-6.5571,-6.6367,-6.6746,-6.6783,-6.72,-6.7426,-6.7496,-6.7496,-6.7531,-6.7601,-6.7669,-6.774,-6.7807,-6.7839,-6.7865,-6.7897,-6.7897,-6.7865,-6.7807,-6.7812,-6.774,-6.7673,-6.7639,-6.7448,-6.7098,-6.7114,-6.6624,-6.5631,-6.6815,-6.7614,-6.7994,-6.7614,-6.7496,-6.7528,0.0,0.0,0.0,0.0,0.0,0.0,0.0,0.0,0.0,0.0,0.0,-6.4188,-6.4696,-6.5159,-6.5657,-6.6943,-6.7922,-6.838,-6.9239,-6.8877,-6.6774,-6.7436,-6.8799,-7.0875,-7.107,-7.1952,-7.3985,-7.4607,-7.5526,-7.7182,-7.8504,-7.9826,-8.107,-8.2042,-8.3053,-8.4142,-8.4453,-8.4764,-8.5619,-8.6086,-8.6397,-8.6436,-8.7136,-8.768,-8.768,-8.7681,-8.7759,-8.8147,-8.8574,-8.9041,-8.9429,-8.9895,-9.0167,-9.0208,-9.0557,-9.0791,-9.0907,-9.0869,-9.1024,-9.1452,-9.153,-9.1685,-9.1996,-9.2171,-9.219,-9.219,-9.2208,-9.248,-9.3202,-9.2774,-9.2249,-6.4633,-6.4743,-6.4895,-6.5006,-6.5116,-6.5305,-6.5343,-6.5343,0.0,0.0,0.0,-6.7238,-6.7617,-6.7617,-6.7769,-6.7844,-6.7916,-6.7916,-6.7952,-6.8022,-6.8019,-6.8126,-6.8231,-6.8264,-6.8291,-6.8317,-6.8356,-6.8324,-6.8259,-6.8259,-6.8259,-6.8264,-6.8212,-6.8329,-6.8541,-6.8569,-6.8253,-6.7643,-6.8612,-6.9268,-6.9573,-6.9459,-6.9382,-6.9417,-6.7261,-6.6093,-6.6093,-6.4747,-6.4024,-6.4051,-6.491,-6.5436,-6.5462,-6.6381,-6.69,-6.6962,-6.7905,-6.8761,-6.944,-7.0407,-7.1253,-7.2008,-7.2757,-7.2267,-7.0013,-7.0003,-7.1029,-7.3246,-7.3557,-7.4607,-7.6793,-7.7354,-7.8404,-8.062,-8.1631,-8.2543,-8.3587,-8.4326,-8.5065,-8.5844,-8.5999,-8.6272,-8.6894,-8.705,-8.7167,-8.7361,-8.7906,-8.8568,-8.8762,-8.8691,-8.8847,-8.9547,-8.9741,-8.9819,-9.0091,-9.0557,-9.1024,-9.1102,-9.1646,-9.2092,-9.2151,-9.2171,-9.2191,-9.2093,-9.2208,-9.2169,-9.2187,-9.2226,-9.2187,-9.2204,-9.2243,-9.2438,-9.3021,-9.2866,-9.2576,-6.4743,-6.4929,-6.5611,-6.595,-6.5988,-6.6746,-6.7049,-6.7011,-6.6253,-6.6442,-6.7276,-6.8072,-6.8413,-6.8451,-6.9209,-6.955,-6.9588,-6.9588,-6.9588,0.0,-6.9771,-6.9842,-6.9877,-6.9976,-7.0042,-7.0075,-7.0037,-7.0037,-7.0042,-7.0004,-7.0009,-6.9904,-6.9938,-7.0315,-7.103,-7.1139,-7.145,-7.2024,-7.0768,-7.0811,-7.2192,-7.1547,-7.1273,-7.1226,-6.9578,-6.8724,-6.8838,-6.7947,-6.7543,-6.7679,-6.8487,-6.8975,-6.9091,-6.9861,-7.0397,-7.0521,-7.1385,-7.1971,-7.2151,-7.2987,-7.3568,-7.3795,-7.3967,-7.3579,-7.2591,-7.3113,-7.3945,-7.5072,-7.5805,-7.6676,-7.7882,-7.9236,-8.059,-8.1719,-8.2614,-8.3704,-8.5182,-8.5532,-8.5961,-8.6739,-8.6933,-8.6933,-8.7144,-8.7167,-8.7456,-8.8023,-8.8507,-8.8957,-9.0102,-8.9969,-8.9912,-9.0574,-9.0807,-9.108,-9.1489,-9.1858,-9.1917,-9.2013,-9.2034,-9.219,-9.219,-9.2208,-9.2208,-9.2208,-9.2226,-9.2226,-9.2187,-9.226,-9.2276,-9.2276,-9.2347,-9.2479,-9.2674,-9.3025,-9.3632,-6.5118,-6.5571,-6.595,-6.6367,-6.6821,-6.7273,-6.7728,-6.8108,-6.78,-6.7802,-6.811,-6.8906,-6.9285,-6.9323,-6.9702,-6.9929,-6.9967,-6.9929,-7.0232,-7.0723,-7.0796,-7.1134,-7.155,-7.1693,-7.1494,-7.1145,-7.1107,-7.0839,-7.0457,-7.0419,-7.0386,-7.0391,-7.0806,-7.1489,-7.2319,-7.2367,-7.2792,-7.3594,-7.241,-7.2143,-7.2872,-7.2529,-7.2372,-7.2367,-7.1281,-7.0693,-7.0746,-7.0067,-6.969,-6.9744,-7.0591,-7.1079,-7.1159,-7.1981,-7.2558,-7.2631,-7.3451,-7.396,-7.4005,-7.4865,-7.545,-7.5543,-7.556,-7.5405,-7.5038,-7.4939,-7.55,-7.6799,-7.7726,-7.8792,-8.0053,-8.1369,-8.2668,-8.3983,-8.4489,-8.519,-8.6295,-8.6529,-8.6724,-8.7074,-8.7152,-8.7308,-8.7814,-8.7853,-8.8165,-8.8982,-8.9489,-9.0345,-9.1553,-9.1397,-9.1264,-9.1581,-9.1642,-9.1759,-9.2148,-9.2187,-9.2187,-9.2187,-9.2187,-9.2187,-9.2187,-9.2243,-9.226,-9.226,-9.2276,-9.2331,-9.2331,-9.2347,-9.2362,-9.2362,-9.2377,-9.243,-9.2547,-9.3405,-9.4403,-6.5303,-6.5907,-6.6289,-6.7047,-6.8032,-6.8066,-6.8519,-6.9089,-6.916,-6.9125,-6.9056,-6.9701,-6.9967,-6.9967,-6.9967,-7.0004,-7.0077,-7.0229,-7.0722,-7.1365,-7.1629,-7.2122,-7.2726,-7.2838,-7.2529,-7.2062,-7.1985,-7.1642,-7.1068,-7.0992,-7.1025,-7.1101,-7.1713,-7.2472,-7.3314,-7.3361,-7.3747,-7.4427,-7.393,-7.3586,-7.3586,-7.3586,-7.3586,-7.3543,-7.3061,-7.274,-7.2771,-7.2313,-7.2024,-7.2091,-7.2734,-7.3108,-7.3201,-7.3858,-7.4397,-7.4678,-7.5306,-7.5779,-7.6018,-7.6725,-7.7215,-7.7252,-7.727,-7.7308,-7.7231,-7.692,-7.7093,-7.831,-7.9337,-8.0598,-8.2046,-8.3268,-8.445,-8.5765,-8.6076,-8.6402,-8.7053,-8.7209,-8.7209,-8.7209,-8.7365,-8.7754,-8.8339,-8.8689,-8.9157,-8.9975,-9.0833,-9.1651,-9.2274,-9.243,-9.2362,-9.2276,-9.226,-9.2221,-9.226,-9.226,-9.226,-9.226,-9.226,-9.226,-9.226,-9.2293,-9.2308,-9.2308,-9.2362,-9.2377,-9.2391,-9.2391,-9.2391,-9.2391,-9.243,-9.2547,-9.3093,-9.4003,-9.4963,-6.5247,-6.5508,-6.6885,-6.8481,-6.9807,-6.9918,-6.9957,-7.0033,-7.0071,-7.0071,-7.0033,-7.0111,-7.0149,-7.0149,-7.0149,-7.0149,-7.0261,-7.0946,-7.1327,-7.1553,-7.231,-7.2726,-7.2914,-7.2983,-7.2941,-7.2864,-7.2864,-7.2821,-7.263,-7.2734,-7.2843,-7.2926,-7.3022,-7.3488,-7.424,-7.435,-7.4724,-7.5507,-7.5469,-7.5398,-7.5365,-7.537,-7.5403,-7.543,-7.5386,-7.5418,-7.5365,-7.5472,-7.5426,-7.5553,-7.56,-7.5743,-7.5771,-7.5954,-7.6417,-7.7151,-7.7379,-7.7798,-7.8607,-7.8863,-7.8923,-7.9057,-7.8979,-7.8979,-7.9057,-7.9678,-7.9813,-7.9826,-8.0847,-8.2162,-8.3141,-8.4688,-8.5676,-8.5909,-8.6572,-8.7131,-8.7131,-8.7209,-8.7209,-8.7209,-8.7871,-8.8417,-8.8689,-8.9326,-9.0053,-9.0885,-9.1626,-9.2171,-9.2366,-9.2405,-9.2405,-9.2377,-9.2377,-9.2377,-9.2377,-9.2377,-9.2362,-9.2377,-9.2377,-9.2362,-9.2362,-9.2377,-9.2377,-9.2377,-9.2377,-9.2391,-9.243,-9.243,-9.243,-9.243,-9.2547,-9.2859,-9.4184,-9.4874,-9.5264,-6.5508,-6.6036,-6.7212,-6.8659,-7.0071,-7.0289,-7.0319,-7.0358,-7.0457,-7.0483,-7.0483,-7.0483,-7.0391,-7.0185,-7.0185,-7.022,-7.0293,-7.1131,-7.1849,-7.2448,-7.3357,-7.404,-7.4494,-7.4566,-7.4369,-7.391,-7.391,-7.3642,-7.3182,-7.3137,-7.3437,-7.3897,-7.3967,-7.4389,-7.5149,-7.5239,-7.5386,-7.5664,-7.5695,-7.5741,-7.5749,-7.5692,-7.566,-7.5692,-7.5794,-7.5826,-7.5895,-7.5925,-7.6015,-7.6072,-7.6591,-7.6916,-7.6996,-7.7512,-7.8026,-7.8399,-7.851,-7.8718,-7.9135,-7.9214,-7.9233,-7.929,-7.929,-7.9484,-8.0067,-8.088,-8.1615,-8.2465,-8.312,-8.389,-8.4805,-8.5987,-8.6546,-8.6196,-8.6702,-8.7014,-8.6546,-8.6936,-8.7378,-8.7936,-8.8326,-8.904,-8.9949,-9.0858,-9.1481,-9.191,-9.23,-9.2456,-9.2456,-9.2456,-9.2456,-9.2456,-9.2432,-9.2405,-9.2391,-9.243,-9.243,-9.243,-9.243,-9.243,-9.243,-9.243,-9.243,-9.243,-9.2391,-9.2391,-9.243,-9.243,-9.243,-9.2586,-9.3003,-9.3549,-9.4718,-9.5381,-9.6056,-6.5645,-6.6281,-6.7337,-6.8788,-7.0319,-7.0419,-7.0483,-7.0515,-7.0609,-7.0737,-7.0737,-7.0699,-7.0578,-7.0386,-7.0358,-7.0506,-7.0844,-7.1646,-7.2554,-7.3488,-7.4369,-7.5053,-7.5654,-7.5692,-7.5386,-7.4926,-7.4849,-7.4504,-7.3998,-7.3921,-7.4298,-7.4827,-7.4904,-7.5264,-7.5736,-7.581,-7.5848,-7.5841,-7.5841,-7.588,-7.5957,-7.5879,-7.5818,-7.5818,-7.5887,-7.5955,-7.5985,-7.6236,-7.6409,-7.6503,-7.734,-7.7857,-7.7962,-7.8567,-7.9056,-7.9361,-7.9664,-7.9869,-7.9912,-7.9932,-7.9951,-7.9989,-8.0007,-8.0279,-8.094,-8.177,-8.2815,-8.3875,-8.4459,-8.4918,-8.5909,-8.6546,-8.6507,-8.5858,-8.6364,-8.6598,-8.6143,-8.6884,-8.7871,-8.8479,-8.9064,-8.9855,-9.1242,-9.2022,-9.2412,-9.2451,-9.249,-9.249,-9.249,-9.249,-9.249,-9.249,-9.2468,-9.2405,-9.2405,-9.2391,-9.2391,-9.243,-9.243,-9.243,-9.243,-9.243,-9.2405,-9.2405,-9.2405,-9.2458,-9.251,-9.251,-9.3081,-9.3523,-9.4082,-9.4796,-9.581,-9.6313,-9.6792,-6.5618,-6.5925,-6.7487,-6.9144,-7.0669,-7.0708,-7.0708,-7.0669,-7.0699,-7.0729,-7.0787,-7.0825,-7.0815,-7.0843,-7.0737,-7.1099,-7.1904,-7.2671,-7.3507,-7.4389,-7.5232,-7.5654,-7.5692,-7.5692,-7.5654,-7.5571,-7.5602,-7.5602,-7.5664,-7.5703,-7.581,-7.5899,-7.5918,-7.6002,-7.6068,-7.6111,-7.6178,-7.6121,-7.6121,-7.6172,-7.6172,-7.6172,-7.6118,-7.609,-7.609,-7.6118,-7.6249,-7.697,-7.7394,-7.7433,-7.8297,-7.8851,-7.8851,-7.9003,-7.9478,-8.0206,-8.1131,-8.162,-8.1581,-8.1602,-8.1659,-8.1698,-8.1597,-8.177,-8.1887,-8.2582,-8.3252,-8.3414,-8.4193,-8.4986,-8.565,-8.5897,-8.5741,-8.5064,-8.5582,-8.6022,-8.6044,-8.7448,-8.8394,-8.8862,-9.0032,-9.1213,-9.2266,-9.2451,-9.25,-9.25,-9.25,-9.25,-9.25,-9.25,-9.25,-9.25,-9.249,-9.2479,-9.2405,-9.2432,-9.2405,-9.2405,-9.2419,-9.2405,-9.243,-9.2391,-9.2419,-9.2471,-9.2549,-9.2651,-9.2674,-9.3259,-9.4234,-9.5015,-9.599,-9.6742,-9.6508,-9.7192,-9.7563,-6.6392,-6.7487,-6.8602,-6.9778,-7.0777,-7.0871,-7.0898,-7.0898,-7.0952,-7.0979,-7.0979,-7.1005,-7.1005,-7.103,-7.0979,-7.136,-7.216,-7.2967,-7.3803,-7.4745,-7.5592,-7.6005,-7.5995,-7.5995,-7.6034,-7.5995,-7.6034,-7.6062,-7.6062,-7.6129,-7.6101,-7.6129,-7.6118,-7.616,-7.6186,-7.621,-7.621,-7.6225,-7.6199,-7.6199,-7.6198,-7.6198,-7.6198,-7.6225,-7.6172,-7.6172,-7.6198,-7.7009,-7.7537,-7.7589,-7.8889,-7.9713,-7.9864,-8.04,-8.0871,-8.1247,-8.16,-8.1834,-8.1873,-8.1872,-8.1908,-8.1908,-8.1943,-8.2209,-8.2715,-8.3097,-8.3516,-8.4037,-8.439,-8.465,-8.4428,-8.483,-8.5075,-8.4941,-8.5497,-8.5966,-8.6327,-8.7497,-8.8794,-8.9506,-9.0929,-9.2147,-9.2381,-9.2498,-9.2498,-9.2498,-9.2498,-9.2498,-9.2498,-9.2498,-9.2498,-9.2498,-9.249,-9.2471,-9.2471,-9.2479,-9.2456,-9.2456,-9.2456,-9.2456,-9.2456,-9.2456,-9.2468,-9.2546,-9.2663,-9.3103,-9.3242,-9.4022,-9.5036,-9.5621,-9.6685,-9.7476,-9.6812,-9.7533,-9.7737,-6.7141,-6.8482,-6.9373,-7.017,-7.094,-7.103,-7.1081,-7.1081,-7.113,-7.1178,-7.1201,-7.1201,-7.1201,-7.1224,-7.1224,-7.1641,-7.2392,-7.3162,-7.4125,-7.5231,-7.5848,-7.6145,-7.6198,-7.6198,-7.6198,-7.6198,-7.6198,-7.6198,-7.6198,-7.6198,-7.621,-7.6184,-7.6198,-7.625,-7.6237,-7.6276,-7.6276,-7.6262,-7.6281,-7.6281,-7.6301,-7.6326,-7.635,-7.6374,-7.635,-7.6455,-7.6701,-7.7576,-7.8181,-7.8592,-7.9879,-8.0662,-8.081,-8.1381,-8.1734,-8.1775,-8.1815,-8.1835,-8.1872,-8.1926,-8.1943,-8.1943,-8.1991,-8.2279,-8.2824,-8.2922,-8.3208,-8.365,-8.3843,-8.3605,-8.3303,-8.3537,-8.4015,-8.4386,-8.5127,-8.5877,-8.6463,-8.8032,-8.9485,-9.0703,-9.1734,-9.2443,-9.2522,-9.2522,-9.2522,-9.2522,-9.2522,-9.2522,-9.2522,-9.2522,-9.2522,-9.2522,-9.2514,-9.2546,-9.2537,-9.252,-9.25,-9.249,-9.249,-9.249,-9.25,-9.25,-9.2539,-9.2617,-9.294,-9.3486,-9.4149,-9.4861,-9.5485,-9.5993,-9.7329,-9.8548,-9.8127,-9.7854,-9.7909,-6.7811,-6.8683,-6.9548,-7.0435,-7.1091,-7.1201,-7.1201,-7.1224,-7.1269,-7.1313,-7.1355,-7.1415,-7.1415,-7.1475,-7.1455,-7.1901,-7.2693,-7.3388,-7.4526,-7.5916,-7.6147,-7.6225,-7.6225,-7.625,-7.625,-7.625,-7.6225,-7.6225,-7.6225,-7.625,-7.6225,-7.6225,-7.6301,-7.6326,-7.6301,-7.6374,-7.6397,-7.6421,-7.6433,-7.6493,-7.6488,-7.651,-7.6591,-7.6591,-7.663,-7.7014,-7.7674,-7.8534,-7.9292,-8.0129,-8.1065,-8.1652,-8.1575,-8.1755,-8.1814,-8.1796,-8.1872,-8.1926,-8.1887,-8.1959,-8.1991,-8.1991,-8.1983,-8.2051,-8.2182,-8.2233,-8.2307,-8.2385,-8.2406,-8.2279,-8.2335,-8.2491,-8.289,-8.3475,-8.4568,-8.5707,-8.7283,-8.8969,-9.0648,-9.2014,-9.2567,-9.2561,-9.26,-9.2567,-9.2567,-9.2567,-9.2606,-9.2606,-9.2567,-9.2574,-9.2606,-9.2606,-9.2567,-9.2567,-9.2567,-9.26,-9.2537,-9.252,-9.251,-9.251,-9.251,-9.251,-9.252,-9.2607,-9.2958,-9.3513,-9.4606,-9.5395,-9.641,-9.7112,-9.8526,-9.9002,-9.8572,-9.8065,-9.8033,-6.8549,-6.8975,-7.0408,-7.1123,-7.1394,-7.1415,-7.1415,-7.1376,-7.1435,-7.1455,-7.1475,-7.1475,-7.1475,-7.1494,-7.1494,-7.1921,-7.2715,-7.3545,-7.453,-7.5537,-7.6195,-7.6466,-7.6466,-7.6466,-7.6466,-7.6466,-7.6466,-7.6466,-7.6466,-7.6466,-7.6505,-7.6466,-7.6488,-7.6488,-7.6488,-7.6521,-7.6521,-7.651,-7.6553,-7.6553,-7.6553,-7.6612,-7.6612,-7.6651,-7.7155,-7.787,-7.8624,-7.8934,-7.9498,-8.039,-8.1226,-8.1713,-8.1794,-8.1835,-8.1872,-8.189,-8.1943,-8.1975,-8.1975,-8.1968,-8.1998,-8.1998,-8.2052,-8.2065,-8.2104,-8.2112,-8.2182,-8.2192,-8.221,-8.2179,-8.2265,-8.2787,-8.3458,-8.4317,-8.5176,-8.6386,-8.8188,-8.9867,-9.1246,-9.2317,-9.2595,-9.2595,-9.2595,-9.2595,-9.2595,-9.2595,-9.2595,-9.2595,-9.2595,-9.2595,-9.2595,-9.2595,-9.2595,-9.2595,-9.2595,-9.259,-9.258,-9.2561,-9.2553,-9.2546,-9.2546,-9.2546,-9.2546,-9.267,-9.2983,-9.3654,-9.4747,-9.5613,-9.6432,-9.7089,-9.7604,-9.7877,-9.8026,-9.8033,-9.7962,-6.864,-6.9084,-7.0464,-7.1278,-7.1511,-7.1511,-7.155,-7.155,-7.155,-7.155,-7.155,-7.155,-7.1568,-7.1568,-7.1568,-7.1857,-7.2401,-7.3234,-7.4088,-7.5041,-7.6128,-7.6573,-7.6612,-7.6612,-7.6612,-7.6612,-7.6612,-7.6612,-7.6612,-7.6612,-7.6612,-7.6612,-7.6612,-7.6612,-7.6612,-7.6588,-7.6588,-7.6612,-7.6614,-7.6614,-7.6614,-7.6633,-7.6633,-7.675,-7.7487,-7.8321,-7.9136,-7.9486,-8.0048,-8.0842,-8.1483,-8.1757,-8.1835,-8.1908,-8.1943,-8.1959,-8.1991,-8.2007,-8.2022,-8.2026,-8.2052,-8.2026,-8.2101,-8.2151,-8.2151,-8.2182,-8.2288,-8.2647,-8.2694,-8.2819,-8.3217,-8.3614,-8.448,-8.5651,-8.6236,-8.7492,-8.9294,-9.0889,-9.1865,-9.2473,-9.2603,-9.2609,-9.2611,-9.2611,-9.2611,-9.2611,-9.2611,-9.2611,-9.2611,-9.2611,-9.2611,-9.2611,-9.2611,-9.2611,-9.2611,-9.2609,-9.2603,-9.2595,-9.2585,-9.2585,-9.258,-9.258,-9.258,-9.2624,-9.2859,-9.3288,-9.4264,-9.4733,-9.5397,-9.5977,-9.6641,-9.6947,-9.7259,-9.7689,-9.7734,-6.8179,-6.8995,-6.9888,-7.0665,-7.1303,-7.142,-7.1442,-7.1497,-7.1614,-7.1614,-7.1614,-7.1598,-7.1669,-7.1699,-7.1684,-7.1738,-7.186,-7.2662,-7.3479,-7.446,-7.5659,-7.6458,-7.6614,-7.6614,-7.6614,-7.6594,-7.6632,-7.6594,-7.6594,-7.6594,-7.6612,-7.6632,-7.6594,-7.6632,-7.6632,-7.6632,-7.6632,-7.6652,-7.669,-7.669,-7.671,-7.6708,-7.6726,-7.6764,-7.7658,-7.8587,-7.9304,-8.0198,-8.0978,-8.166,-8.1833,-8.1908,-8.1887,-8.1975,-8.1991,-8.2007,-8.1998,-8.2026,-8.2039,-8.2077,-8.2112,-8.2112,-8.2289,-8.226,-8.2367,-8.263,-8.2929,-8.3514,-8.3568,-8.3855,-8.4441,-8.4831,-8.5651,-8.7173,-8.7798,-8.8943,-9.0955,-9.2039,-9.2429,-9.2546,-9.2609,-9.2578,-9.2578,-9.2578,-9.2577,-9.2578,-9.2578,-9.2578,-9.2578,-9.2578,-9.2578,-9.2578,-9.2578,-9.2578,-9.2578,-9.2578,-9.2577,-9.2577,-9.2574,-9.2609,-9.2578,-9.2578,-9.2578,-9.2645,-9.2734,-9.3164,-9.3594,-9.4062,-9.4648,-9.5376,-9.588,-9.6222,-9.6797,-9.7383,-9.7656,-6.7982,-6.8255,-6.9123,-6.9628,-6.994,-7.0484,-7.0795,-7.0873,-7.1418,-7.1598,-7.1651,-7.169,-7.169,-7.1704,-7.1704,-7.1665,-7.1913,-7.2574,-7.3041,-7.3586,-7.5113,-7.6194,-7.6626,-7.6743,-7.6726,-7.669,-7.669,-7.6651,-7.669,-7.669,-7.669,-7.669,-7.669,-7.669,-7.669,-7.669,-7.6708,-7.6726,-7.6764,-7.6799,-7.6832,-7.6832,-7.6848,-7.698,-7.8264,-7.9081,-7.9524,-8.0847,-8.1687,-8.1904,-8.1959,-8.1975,-8.1975,-8.1983,-8.2012,-8.2078,-8.2065,-8.2101,-8.2151,-8.2172,-8.2143,-8.2221,-8.2756,-8.3146,-8.3206,-8.3748,-8.4154,-8.4473,-8.4473,-8.4558,-8.487,-8.5456,-8.6822,-8.8891,-8.9717,-9.0661,-9.1843,-9.2447,-9.2574,-9.2574,-9.2578,-9.2578,-9.2578,-9.2609,-9.2595,-9.2595,-9.2603,-9.2609,-9.2609,-9.2609,-9.2609,-9.2609,-9.2609,-9.2609,-9.2609,-9.2611,-9.2572,-9.2611,-9.2574,-9.2577,-9.2578,-9.2578,-9.2578,-9.2616,-9.2617,-9.2969,-9.3164,-9.3515,-9.4179,-9.4883,-9.5742,-9.6406,-9.707,-9.7656,-9.7656,-6.7657,-6.8008,-6.8533,-6.895,-6.929,-6.9784,-6.9993,-7.0136,-7.0823,-7.1173,-7.1251,-7.1601,-7.1718,-7.1732,-7.1732,-7.1745,-7.1835,-7.2264,-7.2692,-7.3315,-7.4872,-7.6052,-7.6669,-7.6864,-7.6809,-7.6777,-7.6777,-7.6777,-7.6777,-7.6777,-7.6777,-7.6777,-7.6777,-7.6777,-7.6777,-7.676,-7.6816,-7.6848,-7.6848,-7.6864,-7.6894,-7.6918,-7.6918,-7.7244,-7.8489,-7.9633,-8.0518,-8.1572,-8.2065,-8.2022,-8.2022,-8.2036,-8.2051,-8.2052,-8.2089,-8.2151,-8.2123,-8.2172,-8.2192,-8.2201,-8.2171,-8.2327,-8.3007,-8.3405,-8.3631,-8.431,-8.487,-8.5299,-8.5338,-8.5534,-8.6041,-8.6978,-8.854,-9.0186,-9.1336,-9.2052,-9.256,-9.2574,-9.2577,-9.2611,-9.2606,-9.2611,-9.2574,-9.2599,-9.258,-9.2613,-9.258,-9.2585,-9.259,-9.259,-9.259,-9.259,-9.259,-9.259,-9.259,-9.2595,-9.2599,-9.2595,-9.2599,-9.2603,-9.2578,-9.2578,-9.2578,-9.2578,-9.2578,-9.2695,-9.2969,-9.332,-9.3867,-9.4687,-9.5742,-9.6523,-9.707,-9.7656,-9.7695,-6.7259,-6.7961,-6.7953,-6.8366,-6.8934,-6.9109,-6.9117,-6.9239,-7.0006,-7.0369,-7.0486,-7.1148,-7.1317,-7.1692,-7.1497,-7.1665,-7.1817,-7.1883,-7.239,-7.3297,-7.4533,-7.569,-7.6586,-7.683,-7.6855,-7.6879,-7.6894,-7.6894,-7.6879,-7.6894,-7.6894,-7.6879,-7.6894,-7.6894,-7.6879,-7.6879,-7.6879,-7.6908,-7.691,-7.691,-7.691,-7.691,-7.691,-7.7183,-7.8585,-8.0234,-8.1454,-8.2151,-8.214,-8.2022,-8.2078,-8.2116,-8.2128,-8.2172,-8.2192,-8.2192,-8.2192,-8.2201,-8.2201,-8.2218,-8.2304,-8.2546,-8.3224,-8.3699,-8.4083,-8.487,-8.5612,-8.6197,-8.6236,-8.6594,-8.7446,-8.8937,-9.0013,-9.1037,-9.1991,-9.25,-9.2578,-9.2578,-9.2611,-9.258,-9.2606,-9.258,-9.259,-9.2599,-9.259,-9.2606,-9.2567,-9.2574,-9.2574,-9.2574,-9.2574,-9.2574,-9.2567,-9.2606,-9.2606,-9.2606,-9.2567,-9.2574,-9.2574,-9.2585,-9.2606,-9.2578,-9.2578,-9.2578,-9.2578,-9.2773,-9.3047,-9.3437,-9.3906,-9.4765,-9.5976,-9.6406,-9.6758,-9.7422,-9.7695,-6.6901,-6.7097,-6.7071,-6.7173,-6.7438,-6.8054,-6.831,-6.833,-6.9177,-6.9557,-6.9624,-6.9768,-7.0247,-7.0831,-7.0909,-7.1193,-7.1711,-7.1827,-7.2284,-7.3064,-7.3436,-7.4655,-7.583,-7.6573,-7.6883,-7.6908,-7.6894,-7.6894,-7.6908,-7.6908,-7.6894,-7.6908,-7.6922,-7.6894,-7.6908,-7.691,-7.6936,-7.6948,-7.6994,-7.6965,-7.6965,-7.6975,-7.7014,-7.7277,-7.872,-8.0407,-8.1782,-8.2182,-8.2182,-8.2172,-8.2172,-8.2172,-8.2172,-8.2192,-8.2201,-8.2218,-8.2218,-8.2226,-8.2241,-8.2319,-8.256,-8.3146,-8.3926,-8.4831,-8.5573,-8.6236,-8.6783,-8.7141,-8.7152,-8.7431,-8.8368,-8.9364,-9.0429,-9.1322,-9.2091,-9.2595,-9.2603,-9.2595,-9.259,-9.259,-9.2574,-9.2606,-9.2574,-9.2574,-9.2606,-9.26,-9.2561,-9.2522,-9.2522,-9.2522,-9.2522,-9.2561,-9.2561,-9.2561,-9.2561,-9.2561,-9.2561,-9.2561,-9.2561,-9.2561,-9.2551,-9.2603,-9.257,-9.2578,-9.2578,-9.2851,-9.3281,-9.3867,-9.4453,-9.5351,-9.6211,-9.6679,-9.7148,-9.7539,-9.7695,-6.6844,-6.6795,-6.6817,-6.6805,-6.6876,-6.7305,-6.7485,-6.7625,-6.8366,-6.8748,-6.8856,-6.9089,-6.9596,-7.0025,-7.0415,-7.0883,-7.1234,-7.1702,-7.2326,-7.3105,-7.3622,-7.4567,-7.562,-7.6487,-7.6972,-7.696,-7.696,-7.696,-7.696,-7.6948,-7.696,-7.696,-7.6948,-7.696,-7.696,-7.6944,-7.6965,-7.6965,-7.6985,-7.7004,-7.7004,-7.7012,-7.7597,-7.8252,-7.9539,-8.0904,-8.2036,-8.2257,-8.2265,-8.2265,-8.2265,-8.2257,-8.221,-8.2218,-8.2265,-8.2234,-8.2241,-8.2241,-8.2293,-8.2371,-8.2645,-8.3504,-8.4362,-8.5182,-8.6047,-8.6873,-8.7342,-8.7414,-8.7504,-8.787,-8.914,-9.0115,-9.0955,-9.1731,-9.2294,-9.2574,-9.258,-9.2613,-9.2606,-9.258,-9.2613,-9.2567,-9.2561,-9.2561,-9.2561,-9.2561,-9.2561,-9.2522,-9.2522,-9.2522,-9.2522,-9.2522,-9.2522,-9.2522,-9.2522,-9.2522,-9.2522,-9.2522,-9.2522,-9.2522,-9.2535,-9.2546,-9.2551,-9.2617,-9.2734,-9.3281,-9.375,-9.4375,-9.5078,-9.5898,-9.664,-9.7148,-9.7461,-9.7617,-9.7695,-6.6547,-6.6609,-6.6488,-6.6478,-6.6622,-6.6622,-6.6727,-6.6954,-6.7727,-6.8195,-6.8188,-6.8851,-6.9155,-6.9467,-7.0052,-7.045,-7.0996,-7.1495,-7.2314,-7.286,-7.3679,-7.4546,-7.5482,-7.6262,-7.6856,-7.6973,-7.6995,-7.6995,-7.6995,-7.7004,-7.6985,-7.7004,-7.7034,-7.7024,-7.7034,-7.7004,-7.7004,-7.6995,-7.7012,-7.702,-7.702,-7.7059,-7.784,-7.9292,-8.0314,-8.1251,-8.2039,-8.2287,-8.2299,-8.2299,-8.2299,-8.2287,-8.2234,-8.2287,-8.2299,-8.2299,-8.2299,-8.2305,-8.2305,-8.2383,-8.2735,-8.3666,-8.4408,-8.5345,-8.6249,-8.6932,-8.7294,-8.7486,-8.7646,-8.8318,-8.9813,-9.0661,-9.1565,-9.2312,-9.2574,-9.2606,-9.26,-9.26,-9.2561,-9.2561,-9.2567,-9.2561,-9.2522,-9.2522,-9.2522,-9.2482,-9.2482,-9.2482,-9.2482,-9.2482,-9.2482,-9.2482,-9.2482,-9.2482,-9.2482,-9.2482,-9.2482,-9.2482,-9.2482,-9.2482,-9.2482,-9.2528,-9.258,-9.2808,-9.3086,-9.3622,-9.4369,-9.5156,-9.5859,-9.6562,-9.6992,-9.7422,-9.7617,-9.7695,-9.7695,-6.5155,-6.5741,-6.5017,-6.5116,-6.5736,-6.5775,-6.6165,-6.6907,-6.7649,-6.8066,-6.8124,-6.8273,-6.8812,-6.9233,-6.9458,-7.0325,-7.1277,-7.1792,-7.2018,-7.237,-7.315,-7.4047,-7.4913,-7.5794,-7.6471,-7.6926,-7.7028,-7.702,-7.7012,-7.7004,-7.7012,-7.7043,-7.7034,-7.7073,-7.7082,-7.7073,-7.7059,-7.7067,-7.7082,-7.7056,-7.7056,-7.7362,-7.8005,-7.9621,-8.0606,-8.1465,-8.209,-8.2285,-8.2328,-8.2328,-8.2328,-8.2276,-8.2266,-8.232,-8.2289,-8.2292,-8.2292,-8.2295,-8.2292,-8.2367,-8.3187,-8.4241,-8.4909,-8.5717,-8.6728,-8.7255,-8.7383,-8.7609,-8.812,-8.8937,-8.9904,-9.0895,-9.1663,-9.2333,-9.2567,-9.26,-9.2553,-9.2507,-9.2546,-9.2553,-9.2514,-9.2522,-9.2514,-9.2514,-9.2522,-9.2522,-9.2482,-9.2482,-9.2482,-9.2482,-9.2482,-9.2482,-9.2482,-9.2482,-9.2482,-9.2482,-9.2482,-9.2482,-9.2482,-9.2482,-9.2482,-9.2482,-9.26,-9.2763,-9.3348,-9.4063,-9.4894,-9.5802,-9.6509,-9.7098,-9.7449,-9.7684,-9.7684,-9.7684,-9.7684,-6.4961,-6.4922,-6.4916,-6.4945,-6.4939,-6.4899,-6.5407,-6.6266,-6.7086,-6.7737,-6.815,-6.8574,-6.8684,-6.888,-6.9282,-7.0147,-7.1089,-7.1831,-7.1909,-7.2143,-7.2885,-7.3744,-7.4564,-7.5477,-7.6302,-7.6888,-7.7073,-7.7095,-7.7075,-7.7036,-7.7036,-7.7036,-7.7067,-7.7075,-7.7095,-7.7107,-7.7107,-7.7107,-7.7078,-7.7122,-7.7239,-7.7815,-7.9001,-7.9723,-8.0937,-8.1834,-8.2148,-8.2304,-8.2304,-8.2304,-8.2304,-8.2304,-8.2304,-8.2304,-8.2304,-8.2303,-8.2301,-8.2303,-8.2421,-8.2695,-8.3593,-8.4687,-8.5234,-8.6093,-8.6991,-8.7382,-8.7408,-8.7699,-8.8702,-8.9539,-9.0003,-9.1201,-9.2053,-9.2404,-9.2553,-9.2507,-9.2507,-9.249,-9.249,-9.249,-9.252,-9.2529,-9.2507,-9.2507,-9.2514,-9.2514,-9.2522,-9.2482,-9.2482,-9.2482,-9.2482,-9.2482,-9.2522,-9.2522,-9.2514,-9.2514,-9.2514,-9.2514,-9.2514,-9.2514,-9.2514,-9.2514,-9.2522,-9.26,-9.338,-9.4466,-9.5222,-9.6055,-9.6881,-9.7544,-9.7623,-9.7706,-9.7701,-9.7701,-9.7701,-6.4452,-6.4373,-6.4842,-6.4765,-6.4332,-6.4293,-6.4684,-6.5426,-6.6283,-6.7216,-6.8141,-6.8765,-6.8922,-6.8847,-6.9208,-6.9878,-7.0738,-7.148,-7.1753,-7.2183,-7.2886,-7.3745,-7.4644,-7.5464,-7.6325,-7.7028,-7.7449,-7.7247,-7.7117,-7.7073,-7.7073,-7.7107,-7.7107,-7.7112,-7.7122,-7.7103,-7.7144,-7.7108,-7.7106,-7.7144,-7.7688,-7.8816,-7.9834,-8.0038,-8.1461,-8.2271,-8.2289,-8.2289,-8.2289,-8.2289,-8.2328,-8.2328,-8.2328,-8.2328,-8.2315,-8.2299,-8.2293,-8.231,-8.2515,-8.3109,-8.3851,-8.4827,-8.5647,-8.6468,-8.7131,-8.7405,-8.747,-8.7876,-8.8923,-9.0055,-9.0477,-9.1648,-9.235,-9.2507,-9.249,-9.2481,-9.252,-9.25,-9.2451,-9.2451,-9.2479,-9.249,-9.2471,-9.2498,-9.2507,-9.2514,-9.2514,-9.2482,-9.2482,-9.2482,-9.2482,-9.2522,-9.2522,-9.2514,-9.2507,-9.2498,-9.2498,-9.2498,-9.2498,-9.2498,-9.2498,-9.2507,-9.2507,-9.2624,-9.3903,-9.4957,-9.5668,-9.6308,-9.7135,-9.765,-9.7682,-9.7682,-9.7682,-9.7689,-9.7689,-6.231,-6.4228,-6.3603,-6.3653,-6.4252,-6.4291,-6.433,-6.4605,-6.5467,-6.6639,-6.8007,-6.832,-6.914,-6.9922,-6.9608,-6.9994,-7.0541,-7.1009,-7.148,-7.2066,-7.2808,-7.3667,-7.4603,-7.5462,-7.6245,-7.7067,-7.785,-7.7725,-7.7335,-7.7139,-7.7097,-7.7133,-7.7122,-7.7185,-7.7172,-7.7148,-7.7195,-7.7161,-7.7137,-7.7454,-7.8196,-7.9175,-7.9993,-8.0847,-8.1691,-8.2293,-8.2299,-8.2299,-8.2299,-8.2299,-8.2299,-8.2299,-8.2299,-8.2299,-8.2299,-8.2293,-8.2293,-8.2332,-8.2495,-8.3236,-8.4134,-8.4993,-8.5774,-8.6516,-8.7141,-8.7531,-8.7791,-8.8478,-8.9446,-9.0226,-9.0911,-9.1925,-9.2383,-9.25,-9.2461,-9.25,-9.249,-9.2468,-9.2456,-9.2444,-9.2444,-9.2456,-9.2479,-9.2471,-9.249,-9.2498,-9.2507,-9.2514,-9.2514,-9.2514,-9.2507,-9.2507,-9.2498,-9.2498,-9.249,-9.249,-9.252,-9.251,-9.251,-9.251,-9.252,-9.2481,-9.251,-9.29,-9.4149,-9.4978,-9.5387,-9.6137,-9.7245,-9.7667,-9.7659,-9.7667,-9.7675,-9.7675,-9.7667,-6.045,-6.2852,-6.3472,-6.395,-6.4271,-6.4314,-6.4314,-6.447,-6.5215,-6.6273,-6.7484,-6.8499,-6.9557,-7.0377,-7.0249,-7.0366,-7.0757,-7.1147,-7.1612,-7.1889,-7.2514,-7.3295,-7.4388,-7.5048,-7.5751,-7.7009,-7.78,-7.7842,-7.7493,-7.7534,-7.7651,-7.7148,-7.7109,-7.7148,-7.7145,-7.7142,-7.7122,-7.7112,-7.719,-7.7547,-7.8406,-7.9265,-8.0124,-8.0983,-8.187,-8.2209,-8.2241,-8.2241,-8.2234,-8.2226,-8.2257,-8.2257,-8.2218,-8.2218,-8.2218,-8.2218,-8.2218,-8.246,-8.3014,-8.3787,-8.4568,-8.5426,-8.6207,-8.6956,-8.7386,-8.7807,-8.8149,-8.8531,-8.9896,-9.0745,-9.1242,-9.1983,-9.2334,-9.249,-9.2468,-9.2429,-9.2456,-9.2432,-9.2419,-9.2405,-9.2405,-9.2419,-9.2444,-9.2468,-9.2451,-9.2471,-9.2481,-9.2481,-9.2481,-9.252,-9.252,-9.252,-9.251,-9.251,-9.251,-9.25,-9.25,-9.25,-9.25,-9.25,-9.25,-9.25,-9.2479,-9.2724,-9.3593,-9.4344,-9.4978,-9.6119,-9.7329,-9.7563,-9.7632,-9.7641,-9.765,-9.7641,-9.771,-5.9059,-6.1197,-6.3149,-6.3929,-6.4013,-6.4409,-6.4448,-6.4331,-6.4687,-6.5551,-6.6917,-6.8435,-6.9762,-7.0309,-7.0509,-7.0665,-7.0738,-7.1402,-7.1792,-7.1909,-7.2182,-7.2924,-7.3906,-7.4525,-7.5384,-7.6828,-7.7932,-7.801,-7.7888,-7.7888,-7.7864,-7.713,-7.7094,-7.7094,-7.7094,-7.7087,-7.7117,-7.7107,-7.7375,-7.796,-7.8774,-7.9593,-8.0446,-8.1226,-8.1851,-8.2234,-8.2179,-8.2179,-8.221,-8.2201,-8.2201,-8.2201,-8.2201,-8.2201,-8.2201,-8.2201,-8.2192,-8.2543,-8.3332,-8.4191,-8.5,-8.5781,-8.6726,-8.7321,-8.7741,-8.8267,-8.8997,-8.9359,-9.0256,-9.1114,-9.1571,-9.2156,-9.2339,-9.2456,-9.2444,-9.2393,-9.238,-9.2352,-9.2377,-9.2377,-9.2377,-9.2377,-9.2405,-9.2419,-9.2444,-9.2479,-9.249,-9.249,-9.249,-9.249,-9.249,-9.25,-9.249,-9.2479,-9.2479,-9.2479,-9.2479,-9.2479,-9.2479,-9.2468,-9.2468,-9.2456,-9.2456,-9.2807,-9.3298,-9.4106,-9.5003,-9.6224,-9.7327,-9.7494,-9.7622,-9.7611,-9.7611,-9.76,-9.7639,-5.832,-5.9396,-6.1892,-6.2992,-6.3162,-6.4737,-6.4938,-6.4202,-6.3589,-6.4375,-6.6053,-6.8122,-6.9333,-6.9762,-7.0465,-7.0816,-7.0777,-7.0777,-7.1357,-7.1825,-7.2104,-7.2606,-7.3465,-7.4285,-7.5026,-7.6119,-7.7564,-7.8272,-7.8272,-7.8143,-7.7843,-7.7224,-7.7112,-7.7107,-7.7107,-7.7107,-7.7062,-7.7251,-7.772,-7.8572,-7.9424,-8.0275,-8.1126,-8.1811,-8.2123,-8.2192,-8.2192,-8.2192,-8.2192,-8.2182,-8.2182,-8.2182,-8.2182,-8.2172,-8.2172,-8.2172,-8.2151,-8.2569,-8.336,-8.4239,-8.4805,-8.5351,-8.6366,-8.771,-8.8206,-8.8482,-8.9287,-9.0482,-9.1067,-9.1522,-9.1977,-9.2391,-9.2405,-9.2391,-9.2377,-9.2338,-9.2323,-9.2308,-9.2293,-9.2331,-9.2347,-9.2362,-9.2377,-9.2391,-9.2405,-9.2444,-9.2456,-9.2468,-9.2468,-9.2468,-9.2479,-9.2479,-9.2417,-9.2405,-9.2405,-9.2444,-9.2432,-9.2432,-9.2432,-9.2419,-9.2405,-9.2405,-9.2419,-9.2964,-9.3523,-9.429,-9.5055,-9.607,-9.6914,-9.7394,-9.76,-9.7577,-9.7577,-9.7577,-9.7577,-5.6706,-5.765,-5.9677,-6.1456,-6.296,-6.4177,-6.4502,-6.4314,-6.4437,-6.4872,-6.5702,-6.7654,-6.8903,-6.9606,-7.0844,-7.1429,-7.1462,-7.1448,-7.1682,-7.1799,-7.2034,-7.2463,-7.3243,-7.4063,-7.496,-7.5982,-7.7426,-7.7972,-7.7536,-7.8004,-7.777,-7.7301,-7.7128,-7.7089,-7.7089,-7.7075,-7.7036,-7.7262,-7.7926,-7.8776,-7.9635,-8.0484,-8.1304,-8.2114,-8.2192,-8.2143,-8.2133,-8.2133,-8.2162,-8.2151,-8.214,-8.214,-8.214,-8.2128,-8.2116,-8.2116,-8.2052,-8.2507,-8.3325,-8.4299,-8.5142,-8.6389,-8.7364,-8.817,-8.8676,-8.9372,-9.0135,-9.0968,-9.149,-9.1958,-9.2137,-9.2276,-9.2276,-9.2276,-9.2276,-9.2276,-9.226,-9.2243,-9.2243,-9.2243,-9.2315,-9.2331,-9.2362,-9.2377,-9.2391,-9.2405,-9.2419,-9.2432,-9.2444,-9.2444,-9.2444,-9.2456,-9.2432,-9.2419,-9.2419,-9.2405,-9.243,-9.243,-9.243,-9.243,-9.243,-9.243,-9.2522,-9.3093,-9.3755,-9.4496,-9.5211,-9.5888,-9.6564,-9.7279,-9.7513,-9.7539,-9.7539,-9.7552,-9.7552,-5.5676,-5.6619,-5.7749,-5.9763,-6.2126,-6.3343,-6.4131,-6.4613,-6.4886,-6.5133,-6.5301,-6.6706,-6.7994,-6.9198,-7.0675,-7.1682,-7.1753,-7.1823,-7.1854,-7.1893,-7.201,-7.2283,-7.3025,-7.3883,-7.4827,-7.5764,-7.6973,-7.7558,-7.7636,-7.7814,-7.7697,-7.748,-7.7145,-7.7075,-7.7028,-7.7012,-7.7004,-7.7199,-7.8135,-7.8867,-7.9686,-8.0739,-8.1431,-8.2133,-8.2162,-8.2151,-8.2089,-8.2077,-8.2065,-8.2091,-8.2078,-8.2078,-8.2065,-8.2012,-8.1998,-8.2022,-8.2085,-8.2419,-8.3291,-8.4489,-8.5623,-8.6845,-8.7832,-8.8467,-8.9146,-9.0146,-9.0906,-9.1408,-9.1914,-9.2187,-9.2187,-9.2204,-9.2204,-9.2243,-9.2243,-9.2243,-9.2208,-9.2208,-9.2208,-9.2208,-9.2226,-9.2182,-9.1607,-9.1583,-9.1832,-9.1846,-9.1899,-9.2093,-9.2405,-9.2405,-9.2405,-9.2405,-9.2405,-9.2391,-9.243,-9.243,-9.243,-9.243,-9.243,-9.243,-9.243,-9.243,-9.2742,-9.3366,-9.4028,-9.4729,-9.5494,-9.6273,-9.6873,-9.7379,-9.7457,-9.7496,-9.7511,-9.7525,-9.7511,-5.5628,-5.6464,-5.658,-5.8061,-6.0447,-6.218,-6.3748,-6.4731,-6.4474,-6.4287,-6.4489,-6.5425,-6.6596,-6.8195,-6.9873,-7.1113,-7.1659,-7.1807,-7.1885,-7.1885,-7.1876,-7.1963,-7.2587,-7.3523,-7.4567,-7.4927,-7.6283,-7.757,-7.8009,-7.7482,-7.7531,-7.7648,-7.7268,-7.7004,-7.7004,-7.7004,-7.7004,-7.7277,-7.875,-7.9364,-8.0007,-8.1165,-8.1855,-8.2038,-8.2104,-8.2091,-8.2026,-8.2026,-8.2051,-8.2022,-8.2022,-8.2022,-8.2007,-8.2007,-8.1991,-8.1991,-8.1975,-8.2442,-8.3353,-8.4871,-8.6055,-8.702,-8.7946,-8.8671,-8.9544,-9.0461,-9.1296,-9.1743,-9.213,-9.2208,-9.2169,-9.2169,-9.2169,-9.2169,-9.219,-9.219,-9.2171,-9.2152,-9.2152,-9.1841,-9.1937,-9.1878,-9.1053,-9.0633,-9.1038,-9.1208,-9.13,-9.1612,-9.2041,-9.2197,-9.2119,-9.243,-9.243,-9.243,-9.243,-9.243,-9.243,-9.243,-9.2377,-9.2377,-9.2494,-9.2596,-9.3039,-9.3677,-9.452,-9.5346,-9.6086,-9.681,-9.7177,-9.7449,-9.7481,-9.7481,-9.7496,-9.7481,-9.7465,-5.5121,-5.6503,-5.6503,-5.7282,-5.8763,-6.0447,-6.1868,-6.2859,-6.3226,-6.3662,-6.4326,-6.5106,-6.5691,-6.7056,-6.9185,-7.0697,-7.1048,-7.1731,-7.1848,-7.1848,-7.1848,-7.1848,-7.2355,-7.3407,-7.4382,-7.4917,-7.6087,-7.71,-7.7334,-7.71,-7.7089,-7.7194,-7.7194,-7.7011,-7.6994,-7.7043,-7.7189,-7.793,-7.8971,-7.9778,-8.0442,-8.1416,-8.2039,-8.2036,-8.2036,-8.2022,-8.2007,-8.2007,-8.1991,-8.1975,-8.1975,-8.1975,-8.1975,-8.1959,-8.1943,-8.1943,-8.1964,-8.2647,-8.3813,-8.5174,-8.6104,-8.7011,-8.7861,-8.8701,-8.9547,-9.0382,-9.1198,-9.1879,-9.2093,-9.2132,-9.2112,-9.2112,-9.2112,-9.2112,-9.2112,-9.2112,-9.2131,-9.2092,-9.2014,-9.1413,-9.1238,-9.0887,-9.0219,-8.9512,-8.9683,-9.001,-9.0088,-9.0741,-9.1247,-9.1481,-9.1612,-9.2197,-9.243,-9.243,-9.2391,-9.2377,-9.2362,-9.2362,-9.2362,-9.2308,-9.2464,-9.276,-9.3539,-9.4318,-9.5158,-9.5958,-9.6581,-9.7108,-9.7243,-9.7437,-9.7398,-9.7416,-9.7472,-9.7455,-9.7437,-5.484,-5.6464,-5.6503,-5.6775,-5.7507,-5.9113,-6.0642,-6.1985,-6.2929,-6.3522,-6.3951,-6.4887,-6.5502,-6.6351,-6.8174,-7.0269,-7.0531,-7.1054,-7.1665,-7.1704,-7.1743,-7.1743,-7.2289,-7.3379,-7.4236,-7.4859,-7.595,-7.7001,-7.704,-7.7001,-7.6988,-7.6975,-7.6908,-7.691,-7.6936,-7.7053,-7.7352,-7.8131,-7.9027,-7.987,-8.0674,-8.1438,-8.1983,-8.2007,-8.1991,-8.1991,-8.1975,-8.1959,-8.1959,-8.1959,-8.1943,-8.1943,-8.1981,-8.1964,-8.1908,-8.1929,-8.23,-8.3019,-8.4185,-8.5195,-8.6088,-8.6998,-8.7833,-8.8671,-8.9489,-9.0343,-9.1177,-9.1799,-9.2032,-9.211,-9.211,-9.211,-9.211,-9.211,-9.2032,-9.2032,-9.1954,-9.1915,-9.1449,-9.0887,-9.0285,-8.9858,-8.935,-8.8684,-8.8273,-8.8562,-8.8811,-8.9606,-9.0439,-9.0843,-9.1155,-9.17,-9.223,-9.2347,-9.2293,-9.2293,-9.2293,-9.2308,-9.2293,-9.2315,-9.2805,-9.3194,-9.4072,-9.4911,-9.5572,-9.6234,-9.6954,-9.7363,-9.7343,-9.7304,-9.7284,-9.7304,-9.7382,-9.7382,-9.7382,-5.485,-5.6347,-5.6503,-5.6494,-5.6787,-5.851,-6.0594,-6.2854,-6.3595,-6.3478,-6.3049,-6.4647,-6.5182,-6.5617,-6.7214,-6.8876,-7.0188,-7.0486,-7.107,-7.1537,-7.1693,-7.1693,-7.2199,-7.3288,-7.4003,-7.4806,-7.5779,-7.6689,-7.6869,-7.6908,-7.6894,-7.6894,-7.6879,-7.6855,-7.6894,-7.7127,-7.7594,-7.8426,-7.9282,-8.0123,-8.1003,-8.1586,-8.1937,-8.1959,-8.1998,-8.1943,-8.1926,-8.1926,-8.1947,-8.1929,-8.1911,-8.1892,-8.1892,-8.1892,-8.1892,-8.2087,-8.2592,-8.3291,-8.4301,-8.5156,-8.6049,-8.6904,-8.7681,-8.8556,-8.9313,-9.0012,-9.0828,-9.1566,-9.1954,-9.2032,-9.211,-9.211,-9.211,-9.2032,-9.1954,-9.1877,-9.1721,-9.141,-9.0828,-9.0206,-8.9546,-8.9003,-8.8419,-8.7737,-8.7522,-8.76,-8.8006,-8.859,-8.9424,-9.0391,-9.0742,-9.1209,-9.1715,-9.2165,-9.2204,-9.2243,-9.226,-9.2276,-9.2282,-9.2381,-9.2965,-9.3608,-9.4446,-9.5204,-9.5865,-9.6468,-9.7009,-9.7221,-9.7199,-9.7176,-9.7176,-9.7199,-9.7264,-9.7284,-9.7284,-5.4451,-5.5541,-5.6164,-5.6729,-5.7448,-5.9132,-6.1001,-6.2674,-6.2519,-6.2363,-6.2908,-6.3959,-6.4621,-6.4687,-6.6828,-6.8384,-6.9422,-7.0239,-7.0979,-7.1407,-7.1626,-7.1679,-7.2107,-7.2832,-7.3625,-7.4481,-7.5415,-7.6373,-7.6762,-7.6825,-7.6809,-7.6848,-7.6777,-7.676,-7.7032,-7.7382,-7.8193,-7.8987,-7.982,-8.0581,-8.1226,-8.177,-8.1964,-8.1947,-8.1947,-8.1929,-8.1929,-8.1911,-8.1911,-8.1892,-8.1892,-8.1892,-8.1892,-8.1892,-8.1892,-8.1892,-8.2281,-8.2786,-8.4107,-8.4651,-8.5428,-8.6632,-8.7292,-8.7759,-8.8574,-8.9468,-9.0323,-9.11,-9.1838,-9.2071,-9.211,-9.211,-9.1993,-9.1838,-9.1643,-9.1333,-9.11,-9.0478,-8.9895,-8.9118,-8.8497,-8.8147,-8.7526,-8.7409,-8.7234,-8.7117,-8.7273,-8.7856,-8.8556,-8.9604,-9.0496,-9.0924,-9.1546,-9.2112,-9.2169,-9.2187,-9.2187,-9.2226,-9.2228,-9.2463,-9.3124,-9.3843,-9.4776,-9.5455,-9.5999,-9.6516,-9.6989,-9.7082,-9.7106,-9.7082,-9.7057,-9.7106,-9.7153,-9.7176,-9.7176,-5.4324,-5.5181,-5.6046,-5.7048,-5.8192,-5.9192,-6.0631,-6.1992,-6.2055,-6.234,-6.2924,-6.4091,-6.4545,-6.4922,-6.6517,-6.7839,-6.8642,-6.9483,-7.03,-7.0922,-7.152,-7.1622,-7.1948,-7.2516,-7.3395,-7.4211,-7.505,-7.5988,-7.6566,-7.6743,-7.6708,-7.6708,-7.6671,-7.6904,-7.7331,-7.8049,-7.8922,-7.9657,-8.0431,-8.1113,-8.1579,-8.1929,-8.1911,-8.1892,-8.1892,-8.1892,-8.1892,-8.1892,-8.1892,-8.1892,-8.1892,-8.1892,-8.1892,-8.1892,-8.1892,-8.1892,-8.197,-8.2844,-8.399,-8.4339,-8.5388,-8.6376,-8.692,-8.7192,-8.795,-8.8805,-8.9836,-9.0789,-9.1527,-9.211,-9.211,-9.2071,-9.1838,-9.1605,-9.1138,-9.0672,-9.0128,-8.9507,-8.8769,-8.7953,-8.7525,-8.7254,-8.702,-8.702,-8.6982,-8.6961,-8.7117,-8.7485,-8.8243,-8.9177,-9.0111,-9.083,-9.1491,-9.2132,-9.2152,-9.2113,-9.2093,-9.2053,-9.2049,-9.2416,-9.3176,-9.3758,-9.4396,-9.5228,-9.6097,-9.6475,-9.6773,-9.6928,-9.7031,-9.7006,-9.6979,-9.7006,-9.7031,-9.7057,-9.7095,-5.4246,-5.5054,-5.6103,-5.743,-5.8778,-5.8985,-5.9982,-6.1381,-6.2186,-6.2717,-6.3067,-6.4429,-6.5064,-6.527,-6.632,-6.716,-6.8039,-6.8917,-6.9772,-7.0354,-7.1231,-7.1581,-7.1814,-7.2323,-7.2944,-7.3917,-7.479,-7.5547,-7.6361,-7.6652,-7.6652,-7.6612,-7.6632,-7.6826,-7.7408,-7.8457,-7.9233,-7.9816,-8.0553,-8.1232,-8.1698,-8.1892,-8.1892,-8.1892,-8.1892,-8.1892,-8.1892,-8.1892,-8.1892,-8.1892,-8.1892,-8.1892,-8.1873,-8.1873,-8.1873,-8.1873,-8.1854,-8.2805,-8.3794,-8.4298,-8.5264,-8.6173,-8.6809,-8.6909,-8.7475,-8.8606,-8.9715,-9.0436,-9.1151,-9.1617,-9.1695,-9.154,-9.1307,-9.0763,-9.0181,-8.9754,-8.9288,-8.8667,-8.7929,-8.7347,-8.7192,-8.692,-8.692,-8.692,-8.692,-8.6899,-8.7226,-8.7536,-8.8235,-8.9133,-8.9892,-9.0789,-9.1428,-9.2011,-9.2028,-9.2005,-9.1983,-9.1936,-9.1912,-9.2363,-9.3124,-9.3565,-9.3904,-9.4796,-9.5649,-9.6114,-9.6437,-9.6643,-9.6875,-9.6953,-9.6926,-9.6898,-9.6937,-9.7003,-9.729,-5.3913,-5.4341,-5.6407,-5.7936,-5.8869,-5.9516,-6.037,-6.1381,-6.156,-6.208,-6.2846,-6.3818,-6.4736,-6.5444,-6.6159,-6.692,-6.7704,-6.8596,-6.9489,-7.0287,-7.1084,-7.1511,-7.1532,-7.1842,-7.2405,-7.3103,-7.4014,-7.5235,-7.6281,-7.6553,-7.6612,-7.6612,-7.6612,-7.6824,-7.7211,-7.8339,-7.9329,-7.9812,-8.0803,-8.1407,-8.1796,-8.1892,-8.1892,-8.1892,-8.1892,-8.1892,-8.1892,-8.1892,-8.1892,-8.1892,-8.1892,-8.1873,-8.1834,-8.1834,-8.1775,-8.1755,-8.1794,-8.2704,-8.3691,-8.435,-8.5142,-8.615,-8.6785,-8.6809,-8.7313,-8.8577,-8.9531,-9.0113,-9.0617,-9.1005,-9.1199,-9.1028,-9.064,-8.9903,-8.9244,-8.8894,-8.8506,-8.7824,-8.7165,-8.701,-8.6893,-8.6854,-8.6854,-8.6854,-8.6832,-8.7103,-8.7646,-8.815,-8.8864,-8.9663,-9.0128,-9.0889,-9.1432,-9.1897,-9.1912,-9.1912,-9.1888,-9.1888,-9.1863,-9.2431,-9.3012,-9.3297,-9.3581,-9.433,-9.5105,-9.5415,-9.5852,-9.6416,-9.6609,-9.6493,-9.6493,-9.6319,-9.686,-9.7122,-9.7567,-5.3775,-5.4074,-5.611,-5.7729,-5.8778,-5.9322,-6.0201,-6.1196,-6.1337,-6.202,-6.3107,-6.3767,-6.4582,-6.5575,-6.629,-6.66,-6.7398,-6.8428,-6.9049,-6.9807,-7.0893,-7.1397,-7.1494,-7.1475,-7.2114,-7.2773,-7.4031,-7.5249,-7.6316,-7.6488,-7.6488,-7.651,-7.6549,-7.6704,-7.7091,-7.8353,-7.9266,-7.9709,-8.0988,-8.1596,-8.1814,-8.1834,-8.1873,-8.1873,-8.1892,-8.1892,-8.1854,-8.1854,-8.1834,-8.1834,-8.1814,-8.1814,-8.1755,-8.1734,-8.1734,-8.1713,-8.1885,-8.2428,-8.3607,-8.4359,-8.4955,-8.6079,-8.6713,-8.6687,-8.6842,-8.8016,-8.8917,-8.9537,-9.0439,-9.0904,-9.0671,-9.0477,-8.9702,-8.8926,-8.8577,-8.8267,-8.7801,-8.7258,-8.6948,-8.6909,-8.6832,-8.6832,-8.6832,-8.6832,-8.6809,-8.6916,-8.7498,-8.8403,-8.9217,-9.0082,-9.0547,-9.0999,-9.1502,-9.1799,-9.1838,-9.1838,-9.1812,-9.1812,-9.1812,-9.2018,-9.2406,-9.2793,-9.3296,-9.3706,-9.4132,-9.4403,-9.4916,-9.5516,-9.5524,-9.5245,-9.5408,-9.5618,-9.6383,-9.7194,-9.7844,-5.3907,-5.4307,-5.5838,-5.7379,-5.8686,-5.8958,-5.9876,-6.1128,-6.1306,-6.2222,-6.3585,-6.3723,-6.4847,-6.5911,-6.6415,-6.6376,-6.6919,-6.8258,-6.88,-6.9421,-7.0738,-7.1223,-7.1435,-7.1454,-7.2151,-7.302,-7.416,-7.526,-7.6382,-7.6421,-7.6421,-7.6397,-7.6552,-7.6746,-7.762,-7.851,-7.9254,-7.9951,-8.0841,-8.1523,-8.1708,-8.1734,-8.1775,-8.1854,-8.1873,-8.1854,-8.1814,-8.1773,-8.1751,-8.1751,-8.1713,-8.1691,-8.1691,-8.1691,-8.1646,-8.1624,-8.1624,-8.2506,-8.3604,-8.4043,-8.5062,-8.6068,-8.6389,-8.6621,-8.6776,-8.7345,-8.8249,-8.8959,-8.9861,-9.0171,-8.9939,-8.959,-8.8776,-8.8118,-8.7846,-8.7653,-8.7163,-8.6776,-8.6737,-8.6737,-8.6776,-8.6776,-8.6776,-8.68,-8.6892,-8.6958,-8.7513,-8.8377,-8.9279,-9.0179,-9.0914,-9.1174,-9.1484,-9.1666,-9.1732,-9.1732,-9.1705,-9.1705,-9.1705,-9.1677,-9.1793,-9.218,-9.2489,-9.2693,-9.305,-9.3514,-9.3862,-9.4373,-9.4227,-9.4188,-9.4543,-9.5014,-9.5979,-9.6867,-9.8031,-5.4568,-5.5916,-5.6952,-5.791,-5.8814,-5.9512,-6.0414,-6.1197,-6.1264,-6.2177,-6.3437,-6.3883,-6.4696,-6.6322,-6.6376,-6.6397,-6.6611,-6.8026,-6.8685,-6.9111,-7.0581,-7.1141,-7.1334,-7.1412,-7.2358,-7.3226,-7.4077,-7.4966,-7.6011,-7.6281,-7.6397,-7.6397,-7.6397,-7.6552,-7.6823,-7.7891,-7.9052,-7.9748,-8.0638,-8.1437,-8.16,-8.1669,-8.1713,-8.1734,-8.1716,-8.1734,-8.1713,-8.1708,-8.1708,-8.1691,-8.1669,-8.1646,-8.1624,-8.16,-8.1553,-8.1504,-8.1478,-8.2381,-8.332,-8.3796,-8.4811,-8.6163,-8.6472,-8.6472,-8.6703,-8.709,-8.7726,-8.7909,-8.8594,-8.8853,-8.8698,-8.84,-8.7782,-8.7224,-8.6837,-8.6837,-8.6605,-8.6567,-8.6567,-8.6605,-8.6683,-8.6683,-8.6683,-8.6799,-8.6953,-8.7273,-8.8045,-8.8866,-8.9677,-9.0488,-9.123,-9.1376,-9.1522,-9.1561,-9.1591,-9.1522,-9.1492,-9.1561,-9.1629,-9.1591,-9.1591,-9.1629,-9.187,-9.2102,-9.2419,-9.2813,-9.3161,-9.3276,-9.3554,-9.3631,-9.394,-9.448,-9.5451,-9.6652,-9.7928]}]]